<?xml version="1.0" encoding="UTF-8" standalone="no" ?>
<gpx xmlns="http://www.topografix.com/GPX/1/1" xmlns:xsi="http://www.w3.org/2001/XMLSchema-instance" xsi:schemaLocation="http://www.topografix.com/GPX/1/1 http://www.topografix.com/GPX/1/1/gpx.xsd" version="1.1" creator="VisuGPX - https://www.visugpx.com">
  <metadata>
    <name>Rando Le Meguillou</name>
    <desc><![CDATA[Rando pédestre au Méguillou depuis Le Bousquet d\\\'Orb]]></desc>
  </metadata>
  <trk>
    <name><![CDATA[2014-03-02T08:51:12Z]]></name>
    <trkseg>
      <trkpt lat="43.69446" lon="3.16413">
        <ele>263.27</ele>
        <time>2014-03-02T08:51:12Z</time>
      </trkpt>
      <trkpt lat="43.69441" lon="3.16417">
        <ele>262.418</ele>
        <time>2014-03-02T08:51:49Z</time>
      </trkpt>
      <trkpt lat="43.69445" lon="3.16412">
        <ele>268.399</ele>
        <time>2014-03-02T08:52:09Z</time>
      </trkpt>
      <trkpt lat="43.69446" lon="3.16412">
        <ele>270.389</ele>
        <time>2014-03-02T08:52:19Z</time>
      </trkpt>
      <trkpt lat="43.6944" lon="3.16414">
        <ele>260.249</ele>
        <time>2014-03-02T08:52:45Z</time>
      </trkpt>
      <trkpt lat="43.69439" lon="3.16416">
        <ele>259.698</ele>
        <time>2014-03-02T08:53:01Z</time>
      </trkpt>
      <trkpt lat="43.69437" lon="3.16411">
        <ele>260.329</ele>
        <time>2014-03-02T08:53:19Z</time>
      </trkpt>
      <trkpt lat="43.69435" lon="3.16404">
        <ele>254.638</ele>
        <time>2014-03-02T08:53:28Z</time>
      </trkpt>
      <trkpt lat="43.69434" lon="3.16414">
        <ele>252.068</ele>
        <time>2014-03-02T08:53:40Z</time>
      </trkpt>
      <trkpt lat="43.69436" lon="3.16413">
        <ele>250.558</ele>
        <time>2014-03-02T08:53:47Z</time>
      </trkpt>
      <trkpt lat="43.69436" lon="3.16413">
        <ele>251.189</ele>
        <time>2014-03-02T08:53:54Z</time>
      </trkpt>
      <trkpt lat="43.69439" lon="3.16417">
        <ele>250.678</ele>
        <time>2014-03-02T08:54:12Z</time>
      </trkpt>
      <trkpt lat="43.69439" lon="3.16418">
        <ele>249.999</ele>
        <time>2014-03-02T08:54:20Z</time>
      </trkpt>
      <trkpt lat="43.6944" lon="3.16417">
        <ele>252.769</ele>
        <time>2014-03-02T08:54:27Z</time>
      </trkpt>
      <trkpt lat="43.69435" lon="3.16418">
        <ele>247.358</ele>
        <time>2014-03-02T08:55:39Z</time>
      </trkpt>
      <trkpt lat="43.69434" lon="3.16418">
        <ele>247.589</ele>
        <time>2014-03-02T08:55:48Z</time>
      </trkpt>
      <trkpt lat="43.6943" lon="3.1642">
        <ele>251.579</ele>
        <time>2014-03-02T08:55:53Z</time>
      </trkpt>
      <trkpt lat="43.69426" lon="3.16426">
        <ele>254.679</ele>
        <time>2014-03-02T08:56:00Z</time>
      </trkpt>
      <trkpt lat="43.69425" lon="3.16428">
        <ele>254.689</ele>
        <time>2014-03-02T08:56:01Z</time>
      </trkpt>
      <trkpt lat="43.69425" lon="3.16436">
        <ele>257.53</ele>
        <time>2014-03-02T08:56:09Z</time>
      </trkpt>
      <trkpt lat="43.69424" lon="3.16446">
        <ele>259.021</ele>
        <time>2014-03-02T08:56:17Z</time>
      </trkpt>
      <trkpt lat="43.69422" lon="3.1645">
        <ele>262.561</ele>
        <time>2014-03-02T08:56:20Z</time>
      </trkpt>
      <trkpt lat="43.69425" lon="3.16459">
        <ele>265.302</ele>
        <time>2014-03-02T08:56:28Z</time>
      </trkpt>
      <trkpt lat="43.69423" lon="3.16463">
        <ele>267.32</ele>
        <time>2014-03-02T08:56:34Z</time>
      </trkpt>
      <trkpt lat="43.69417" lon="3.16465">
        <ele>264.918</ele>
        <time>2014-03-02T08:56:41Z</time>
      </trkpt>
      <trkpt lat="43.69408" lon="3.16468">
        <ele>266.249</ele>
        <time>2014-03-02T08:56:49Z</time>
      </trkpt>
      <trkpt lat="43.694" lon="3.16465">
        <ele>267.5</ele>
        <time>2014-03-02T08:56:56Z</time>
      </trkpt>
      <trkpt lat="43.69391" lon="3.16462">
        <ele>269.199</ele>
        <time>2014-03-02T08:57:04Z</time>
      </trkpt>
      <trkpt lat="43.69381" lon="3.16463">
        <ele>275.52</ele>
        <time>2014-03-02T08:57:12Z</time>
      </trkpt>
      <trkpt lat="43.69376" lon="3.16463">
        <ele>278.66</ele>
        <time>2014-03-02T08:57:16Z</time>
      </trkpt>
      <trkpt lat="43.6937" lon="3.16466">
        <ele>279.899</ele>
        <time>2014-03-02T08:57:23Z</time>
      </trkpt>
      <trkpt lat="43.69365" lon="3.16463">
        <ele>276.588</ele>
        <time>2014-03-02T08:57:30Z</time>
      </trkpt>
      <trkpt lat="43.69358" lon="3.16464">
        <ele>273.498</ele>
        <time>2014-03-02T08:57:39Z</time>
      </trkpt>
      <trkpt lat="43.69352" lon="3.16467">
        <ele>271.658</ele>
        <time>2014-03-02T08:57:48Z</time>
      </trkpt>
      <trkpt lat="43.69346" lon="3.1647">
        <ele>278.276</ele>
        <time>2014-03-02T08:57:56Z</time>
      </trkpt>
      <trkpt lat="43.69342" lon="3.16474">
        <ele>282.359</ele>
        <time>2014-03-02T08:58:04Z</time>
      </trkpt>
      <trkpt lat="43.6933" lon="3.1647">
        <ele>260.445</ele>
        <time>2014-03-02T08:58:20Z</time>
      </trkpt>
      <trkpt lat="43.69322" lon="3.16469">
        <ele>262.848</ele>
        <time>2014-03-02T08:58:29Z</time>
      </trkpt>
      <trkpt lat="43.69317" lon="3.16467">
        <ele>261.808</ele>
        <time>2014-03-02T08:58:34Z</time>
      </trkpt>
      <trkpt lat="43.69312" lon="3.16468">
        <ele>266.209</ele>
        <time>2014-03-02T08:58:42Z</time>
      </trkpt>
      <trkpt lat="43.69305" lon="3.16465">
        <ele>270.36</ele>
        <time>2014-03-02T08:58:50Z</time>
      </trkpt>
      <trkpt lat="43.69305" lon="3.16452">
        <ele>282.231</ele>
        <time>2014-03-02T08:58:59Z</time>
      </trkpt>
      <trkpt lat="43.69305" lon="3.16447">
        <ele>288.051</ele>
        <time>2014-03-02T08:59:05Z</time>
      </trkpt>
      <trkpt lat="43.69306" lon="3.16427">
        <ele>286.669</ele>
        <time>2014-03-02T08:59:15Z</time>
      </trkpt>
      <trkpt lat="43.69308" lon="3.16415">
        <ele>290.22</ele>
        <time>2014-03-02T08:59:23Z</time>
      </trkpt>
      <trkpt lat="43.69314" lon="3.16401">
        <ele>293.699</ele>
        <time>2014-03-02T08:59:31Z</time>
      </trkpt>
      <trkpt lat="43.69314" lon="3.1639">
        <ele>296.779</ele>
        <time>2014-03-02T08:59:41Z</time>
      </trkpt>
      <trkpt lat="43.69315" lon="3.16377">
        <ele>294.338</ele>
        <time>2014-03-02T08:59:51Z</time>
      </trkpt>
      <trkpt lat="43.69317" lon="3.1637">
        <ele>297.309</ele>
        <time>2014-03-02T08:59:57Z</time>
      </trkpt>
      <trkpt lat="43.69324" lon="3.16365">
        <ele>308.601</ele>
        <time>2014-03-02T09:00:06Z</time>
      </trkpt>
      <trkpt lat="43.6933" lon="3.16357">
        <ele>311.809</ele>
        <time>2014-03-02T09:00:15Z</time>
      </trkpt>
      <trkpt lat="43.69334" lon="3.16352">
        <ele>314.68</ele>
        <time>2014-03-02T09:00:21Z</time>
      </trkpt>
      <trkpt lat="43.69336" lon="3.16351">
        <ele>315.096</ele>
        <time>2014-03-02T09:00:23Z</time>
      </trkpt>
      <trkpt lat="43.69346" lon="3.16341">
        <ele>315.839</ele>
        <time>2014-03-02T09:00:34Z</time>
      </trkpt>
      <trkpt lat="43.69352" lon="3.16336">
        <ele>318.06</ele>
        <time>2014-03-02T09:00:42Z</time>
      </trkpt>
      <trkpt lat="43.69358" lon="3.16328">
        <ele>320.32</ele>
        <time>2014-03-02T09:00:51Z</time>
      </trkpt>
      <trkpt lat="43.69364" lon="3.1632">
        <ele>320.939</ele>
        <time>2014-03-02T09:00:59Z</time>
      </trkpt>
      <trkpt lat="43.69365" lon="3.1631">
        <ele>318.208</ele>
        <time>2014-03-02T09:01:08Z</time>
      </trkpt>
      <trkpt lat="43.69366" lon="3.16301">
        <ele>314.317</ele>
        <time>2014-03-02T09:01:16Z</time>
      </trkpt>
      <trkpt lat="43.69366" lon="3.16296">
        <ele>312.968</ele>
        <time>2014-03-02T09:01:20Z</time>
      </trkpt>
      <trkpt lat="43.69364" lon="3.16287">
        <ele>310.637</ele>
        <time>2014-03-02T09:01:26Z</time>
      </trkpt>
      <trkpt lat="43.69362" lon="3.1627">
        <ele>303.956</ele>
        <time>2014-03-02T09:01:36Z</time>
      </trkpt>
      <trkpt lat="43.69362" lon="3.16258">
        <ele>301.517</ele>
        <time>2014-03-02T09:01:45Z</time>
      </trkpt>
      <trkpt lat="43.69364" lon="3.16245">
        <ele>302.148</ele>
        <time>2014-03-02T09:01:53Z</time>
      </trkpt>
      <trkpt lat="43.69368" lon="3.16234">
        <ele>304.058</ele>
        <time>2014-03-02T09:02:00Z</time>
      </trkpt>
      <trkpt lat="43.69371" lon="3.16225">
        <ele>305.469</ele>
        <time>2014-03-02T09:02:06Z</time>
      </trkpt>
      <trkpt lat="43.69375" lon="3.16214">
        <ele>308.558</ele>
        <time>2014-03-02T09:02:13Z</time>
      </trkpt>
      <trkpt lat="43.6938" lon="3.16203">
        <ele>313.159</ele>
        <time>2014-03-02T09:02:20Z</time>
      </trkpt>
      <trkpt lat="43.69383" lon="3.1619">
        <ele>310.198</ele>
        <time>2014-03-02T09:02:30Z</time>
      </trkpt>
      <trkpt lat="43.69383" lon="3.1618">
        <ele>308.337</ele>
        <time>2014-03-02T09:02:39Z</time>
      </trkpt>
      <trkpt lat="43.69384" lon="3.16169">
        <ele>306.748</ele>
        <time>2014-03-02T09:02:47Z</time>
      </trkpt>
      <trkpt lat="43.69385" lon="3.16158">
        <ele>305.528</ele>
        <time>2014-03-02T09:02:54Z</time>
      </trkpt>
      <trkpt lat="43.69385" lon="3.16156">
        <ele>305.658</ele>
        <time>2014-03-02T09:02:57Z</time>
      </trkpt>
      <trkpt lat="43.69393" lon="3.1614">
        <ele>311.599</ele>
        <time>2014-03-02T09:03:07Z</time>
      </trkpt>
      <trkpt lat="43.69401" lon="3.16127">
        <ele>315.448</ele>
        <time>2014-03-02T09:03:16Z</time>
      </trkpt>
      <trkpt lat="43.69408" lon="3.16117">
        <ele>317.859</ele>
        <time>2014-03-02T09:03:24Z</time>
      </trkpt>
      <trkpt lat="43.69408" lon="3.16111">
        <ele>316.268</ele>
        <time>2014-03-02T09:03:32Z</time>
      </trkpt>
      <trkpt lat="43.69406" lon="3.16106">
        <ele>312.449</ele>
        <time>2014-03-02T09:04:03Z</time>
      </trkpt>
      <trkpt lat="43.69404" lon="3.16094">
        <ele>308.888</ele>
        <time>2014-03-02T09:04:14Z</time>
      </trkpt>
      <trkpt lat="43.69402" lon="3.16088">
        <ele>311.688</ele>
        <time>2014-03-02T09:04:21Z</time>
      </trkpt>
      <trkpt lat="43.69402" lon="3.16085">
        <ele>311.188</ele>
        <time>2014-03-02T09:04:24Z</time>
      </trkpt>
      <trkpt lat="43.69402" lon="3.16079">
        <ele>312.578</ele>
        <time>2014-03-02T09:04:33Z</time>
      </trkpt>
      <trkpt lat="43.69403" lon="3.16072">
        <ele>313.608</ele>
        <time>2014-03-02T09:04:41Z</time>
      </trkpt>
      <trkpt lat="43.69404" lon="3.1607">
        <ele>314.028</ele>
        <time>2014-03-02T09:04:43Z</time>
      </trkpt>
      <trkpt lat="43.69411" lon="3.1606">
        <ele>318.178</ele>
        <time>2014-03-02T09:04:54Z</time>
      </trkpt>
      <trkpt lat="43.69416" lon="3.16051">
        <ele>321.599</ele>
        <time>2014-03-02T09:05:01Z</time>
      </trkpt>
      <trkpt lat="43.69419" lon="3.16042">
        <ele>322.879</ele>
        <time>2014-03-02T09:05:09Z</time>
      </trkpt>
      <trkpt lat="43.6942" lon="3.16039">
        <ele>322.988</ele>
        <time>2014-03-02T09:05:12Z</time>
      </trkpt>
      <trkpt lat="43.69423" lon="3.16027">
        <ele>321.327</ele>
        <time>2014-03-02T09:05:20Z</time>
      </trkpt>
      <trkpt lat="43.69425" lon="3.16016">
        <ele>317.867</ele>
        <time>2014-03-02T09:05:28Z</time>
      </trkpt>
      <trkpt lat="43.69426" lon="3.16005">
        <ele>318.878</ele>
        <time>2014-03-02T09:05:37Z</time>
      </trkpt>
      <trkpt lat="43.69429" lon="3.15998">
        <ele>315.917</ele>
        <time>2014-03-02T09:05:43Z</time>
      </trkpt>
      <trkpt lat="43.69431" lon="3.15987">
        <ele>319.427</ele>
        <time>2014-03-02T09:05:51Z</time>
      </trkpt>
      <trkpt lat="43.69433" lon="3.15976">
        <ele>317.066</ele>
        <time>2014-03-02T09:05:59Z</time>
      </trkpt>
      <trkpt lat="43.69438" lon="3.15966">
        <ele>318.187</ele>
        <time>2014-03-02T09:06:07Z</time>
      </trkpt>
      <trkpt lat="43.69451" lon="3.15955">
        <ele>327.599</ele>
        <time>2014-03-02T09:06:17Z</time>
      </trkpt>
      <trkpt lat="43.69456" lon="3.15951">
        <ele>330.659</ele>
        <time>2014-03-02T09:06:22Z</time>
      </trkpt>
      <trkpt lat="43.69462" lon="3.15944">
        <ele>333.079</ele>
        <time>2014-03-02T09:06:30Z</time>
      </trkpt>
      <trkpt lat="43.69466" lon="3.15938">
        <ele>331.997</ele>
        <time>2014-03-02T09:06:39Z</time>
      </trkpt>
      <trkpt lat="43.69467" lon="3.15936">
        <ele>327.517</ele>
        <time>2014-03-02T09:06:44Z</time>
      </trkpt>
      <trkpt lat="43.69471" lon="3.15932">
        <ele>320.497</ele>
        <time>2014-03-02T09:06:52Z</time>
      </trkpt>
      <trkpt lat="43.69474" lon="3.15926">
        <ele>321.667</ele>
        <time>2014-03-02T09:06:58Z</time>
      </trkpt>
      <trkpt lat="43.69478" lon="3.15918">
        <ele>324.628</ele>
        <time>2014-03-02T09:07:05Z</time>
      </trkpt>
      <trkpt lat="43.69482" lon="3.15912">
        <ele>326.818</ele>
        <time>2014-03-02T09:07:11Z</time>
      </trkpt>
      <trkpt lat="43.69484" lon="3.15905">
        <ele>328.168</ele>
        <time>2014-03-02T09:07:16Z</time>
      </trkpt>
      <trkpt lat="43.69485" lon="3.15902">
        <ele>324.607</ele>
        <time>2014-03-02T09:07:23Z</time>
      </trkpt>
      <trkpt lat="43.69488" lon="3.15897">
        <ele>323.827</ele>
        <time>2014-03-02T09:07:29Z</time>
      </trkpt>
      <trkpt lat="43.69492" lon="3.15889">
        <ele>323.828</ele>
        <time>2014-03-02T09:07:37Z</time>
      </trkpt>
      <trkpt lat="43.69497" lon="3.1588">
        <ele>325.568</ele>
        <time>2014-03-02T09:07:45Z</time>
      </trkpt>
      <trkpt lat="43.69501" lon="3.15872">
        <ele>327.078</ele>
        <time>2014-03-02T09:07:53Z</time>
      </trkpt>
      <trkpt lat="43.695" lon="3.15865">
        <ele>324.068</ele>
        <time>2014-03-02T09:08:00Z</time>
      </trkpt>
      <trkpt lat="43.69499" lon="3.1586">
        <ele>324.988</ele>
        <time>2014-03-02T09:08:06Z</time>
      </trkpt>
      <trkpt lat="43.69499" lon="3.15853">
        <ele>327.168</ele>
        <time>2014-03-02T09:08:12Z</time>
      </trkpt>
      <trkpt lat="43.69499" lon="3.15844">
        <ele>323.167</ele>
        <time>2014-03-02T09:08:19Z</time>
      </trkpt>
      <trkpt lat="43.69499" lon="3.15838">
        <ele>319.977</ele>
        <time>2014-03-02T09:08:25Z</time>
      </trkpt>
      <trkpt lat="43.695" lon="3.15834">
        <ele>317.837</ele>
        <time>2014-03-02T09:08:30Z</time>
      </trkpt>
      <trkpt lat="43.69494" lon="3.15828">
        <ele>309.073</ele>
        <time>2014-03-02T09:08:37Z</time>
      </trkpt>
      <trkpt lat="43.69487" lon="3.15828">
        <ele>308.776</ele>
        <time>2014-03-02T09:08:44Z</time>
      </trkpt>
      <trkpt lat="43.69485" lon="3.15829">
        <ele>306.017</ele>
        <time>2014-03-02T09:08:54Z</time>
      </trkpt>
      <trkpt lat="43.69482" lon="3.15825">
        <ele>310.178</ele>
        <time>2014-03-02T09:09:01Z</time>
      </trkpt>
      <trkpt lat="43.69478" lon="3.1582">
        <ele>313.788</ele>
        <time>2014-03-02T09:09:09Z</time>
      </trkpt>
      <trkpt lat="43.69477" lon="3.15815">
        <ele>317.018</ele>
        <time>2014-03-02T09:09:18Z</time>
      </trkpt>
      <trkpt lat="43.69479" lon="3.15811">
        <ele>316.397</ele>
        <time>2014-03-02T09:09:25Z</time>
      </trkpt>
      <trkpt lat="43.69478" lon="3.15805">
        <ele>309.855</ele>
        <time>2014-03-02T09:09:33Z</time>
      </trkpt>
      <trkpt lat="43.69477" lon="3.15797">
        <ele>311.939</ele>
        <time>2014-03-02T09:10:10Z</time>
      </trkpt>
      <trkpt lat="43.69481" lon="3.15792">
        <ele>315.127</ele>
        <time>2014-03-02T09:10:31Z</time>
      </trkpt>
      <trkpt lat="43.69481" lon="3.15788">
        <ele>318.157</ele>
        <time>2014-03-02T09:10:38Z</time>
      </trkpt>
      <trkpt lat="43.69481" lon="3.15779">
        <ele>320.597</ele>
        <time>2014-03-02T09:10:48Z</time>
      </trkpt>
      <trkpt lat="43.69483" lon="3.1577">
        <ele>320.676</ele>
        <time>2014-03-02T09:10:54Z</time>
      </trkpt>
      <trkpt lat="43.69485" lon="3.15763">
        <ele>313.515</ele>
        <time>2014-03-02T09:11:02Z</time>
      </trkpt>
      <trkpt lat="43.69482" lon="3.15758">
        <ele>313.386</ele>
        <time>2014-03-02T09:11:08Z</time>
      </trkpt>
      <trkpt lat="43.6948" lon="3.15752">
        <ele>312.836</ele>
        <time>2014-03-02T09:11:14Z</time>
      </trkpt>
      <trkpt lat="43.69479" lon="3.15747">
        <ele>317.128</ele>
        <time>2014-03-02T09:11:18Z</time>
      </trkpt>
      <trkpt lat="43.69481" lon="3.15736">
        <ele>322.109</ele>
        <time>2014-03-02T09:11:25Z</time>
      </trkpt>
      <trkpt lat="43.69482" lon="3.15727">
        <ele>321.722</ele>
        <time>2014-03-02T09:11:31Z</time>
      </trkpt>
      <trkpt lat="43.69483" lon="3.15723">
        <ele>324.109</ele>
        <time>2014-03-02T09:11:36Z</time>
      </trkpt>
      <trkpt lat="43.69484" lon="3.15717">
        <ele>325.488</ele>
        <time>2014-03-02T09:11:42Z</time>
      </trkpt>
      <trkpt lat="43.6949" lon="3.1571">
        <ele>325.287</ele>
        <time>2014-03-02T09:11:49Z</time>
      </trkpt>
      <trkpt lat="43.69492" lon="3.15701">
        <ele>328.668</ele>
        <time>2014-03-02T09:11:58Z</time>
      </trkpt>
      <trkpt lat="43.69494" lon="3.15694">
        <ele>329.418</ele>
        <time>2014-03-02T09:12:04Z</time>
      </trkpt>
      <trkpt lat="43.69496" lon="3.15688">
        <ele>329.489</ele>
        <time>2014-03-02T09:12:11Z</time>
      </trkpt>
      <trkpt lat="43.695" lon="3.15682">
        <ele>332.639</ele>
        <time>2014-03-02T09:12:17Z</time>
      </trkpt>
      <trkpt lat="43.69503" lon="3.15676">
        <ele>332.178</ele>
        <time>2014-03-02T09:12:23Z</time>
      </trkpt>
      <trkpt lat="43.69503" lon="3.1567">
        <ele>334.898</ele>
        <time>2014-03-02T09:12:29Z</time>
      </trkpt>
      <trkpt lat="43.69508" lon="3.15663">
        <ele>335.048</ele>
        <time>2014-03-02T09:12:35Z</time>
      </trkpt>
      <trkpt lat="43.6951" lon="3.15657">
        <ele>334.398</ele>
        <time>2014-03-02T09:12:41Z</time>
      </trkpt>
      <trkpt lat="43.69514" lon="3.15651">
        <ele>333.948</ele>
        <time>2014-03-02T09:12:47Z</time>
      </trkpt>
      <trkpt lat="43.69516" lon="3.15646">
        <ele>332.707</ele>
        <time>2014-03-02T09:12:52Z</time>
      </trkpt>
      <trkpt lat="43.69518" lon="3.15638">
        <ele>332.196</ele>
        <time>2014-03-02T09:13:00Z</time>
      </trkpt>
      <trkpt lat="43.69522" lon="3.1563">
        <ele>329.757</ele>
        <time>2014-03-02T09:13:08Z</time>
      </trkpt>
      <trkpt lat="43.69527" lon="3.15626">
        <ele>326.006</ele>
        <time>2014-03-02T09:13:14Z</time>
      </trkpt>
      <trkpt lat="43.69526" lon="3.15623">
        <ele>323.105</ele>
        <time>2014-03-02T09:13:21Z</time>
      </trkpt>
      <trkpt lat="43.69533" lon="3.15611">
        <ele>321.897</ele>
        <time>2014-03-02T09:13:43Z</time>
      </trkpt>
      <trkpt lat="43.69536" lon="3.15605">
        <ele>323.998</ele>
        <time>2014-03-02T09:13:50Z</time>
      </trkpt>
      <trkpt lat="43.69541" lon="3.156">
        <ele>327.908</ele>
        <time>2014-03-02T09:13:57Z</time>
      </trkpt>
      <trkpt lat="43.69544" lon="3.15597">
        <ele>327.497</ele>
        <time>2014-03-02T09:14:03Z</time>
      </trkpt>
      <trkpt lat="43.69546" lon="3.15592">
        <ele>322.636</ele>
        <time>2014-03-02T09:14:10Z</time>
      </trkpt>
      <trkpt lat="43.69549" lon="3.15585">
        <ele>327.549</ele>
        <time>2014-03-02T09:14:26Z</time>
      </trkpt>
      <trkpt lat="43.6955" lon="3.15582">
        <ele>331.309</ele>
        <time>2014-03-02T09:14:34Z</time>
      </trkpt>
      <trkpt lat="43.69552" lon="3.15578">
        <ele>331.798</ele>
        <time>2014-03-02T09:14:41Z</time>
      </trkpt>
      <trkpt lat="43.69557" lon="3.15573">
        <ele>332.637</ele>
        <time>2014-03-02T09:14:48Z</time>
      </trkpt>
      <trkpt lat="43.69558" lon="3.15572">
        <ele>334.678</ele>
        <time>2014-03-02T09:14:51Z</time>
      </trkpt>
      <trkpt lat="43.69568" lon="3.15564">
        <ele>336.858</ele>
        <time>2014-03-02T09:15:02Z</time>
      </trkpt>
      <trkpt lat="43.69572" lon="3.1556">
        <ele>338.058</ele>
        <time>2014-03-02T09:15:09Z</time>
      </trkpt>
      <trkpt lat="43.69576" lon="3.15554">
        <ele>341.078</ele>
        <time>2014-03-02T09:15:18Z</time>
      </trkpt>
      <trkpt lat="43.69577" lon="3.15548">
        <ele>342.207</ele>
        <time>2014-03-02T09:15:24Z</time>
      </trkpt>
      <trkpt lat="43.69582" lon="3.15545">
        <ele>340.567</ele>
        <time>2014-03-02T09:15:30Z</time>
      </trkpt>
      <trkpt lat="43.69586" lon="3.15542">
        <ele>342.358</ele>
        <time>2014-03-02T09:15:38Z</time>
      </trkpt>
      <trkpt lat="43.69587" lon="3.15536">
        <ele>343.148</ele>
        <time>2014-03-02T09:15:43Z</time>
      </trkpt>
      <trkpt lat="43.69593" lon="3.15532">
        <ele>341.417</ele>
        <time>2014-03-02T09:15:49Z</time>
      </trkpt>
      <trkpt lat="43.69594" lon="3.15525">
        <ele>337.766</ele>
        <time>2014-03-02T09:15:55Z</time>
      </trkpt>
      <trkpt lat="43.69601" lon="3.15514">
        <ele>333.706</ele>
        <time>2014-03-02T09:16:08Z</time>
      </trkpt>
      <trkpt lat="43.69594" lon="3.15506">
        <ele>328.496</ele>
        <time>2014-03-02T09:16:16Z</time>
      </trkpt>
      <trkpt lat="43.69591" lon="3.15501">
        <ele>329.107</ele>
        <time>2014-03-02T09:16:21Z</time>
      </trkpt>
      <trkpt lat="43.69591" lon="3.15497">
        <ele>330.247</ele>
        <time>2014-03-02T09:16:28Z</time>
      </trkpt>
      <trkpt lat="43.69594" lon="3.15491">
        <ele>329.667</ele>
        <time>2014-03-02T09:16:36Z</time>
      </trkpt>
      <trkpt lat="43.69596" lon="3.15487">
        <ele>329.626</ele>
        <time>2014-03-02T09:16:42Z</time>
      </trkpt>
      <trkpt lat="43.69595" lon="3.15486">
        <ele>330.727</ele>
        <time>2014-03-02T09:16:43Z</time>
      </trkpt>
      <trkpt lat="43.69594" lon="3.15482">
        <ele>333.027</ele>
        <time>2014-03-02T09:16:49Z</time>
      </trkpt>
      <trkpt lat="43.69594" lon="3.1548">
        <ele>332.077</ele>
        <time>2014-03-02T09:16:51Z</time>
      </trkpt>
      <trkpt lat="43.69596" lon="3.15473">
        <ele>334.707</ele>
        <time>2014-03-02T09:16:57Z</time>
      </trkpt>
      <trkpt lat="43.69598" lon="3.15469">
        <ele>339.488</ele>
        <time>2014-03-02T09:17:05Z</time>
      </trkpt>
      <trkpt lat="43.69599" lon="3.15466">
        <ele>339.618</ele>
        <time>2014-03-02T09:17:10Z</time>
      </trkpt>
      <trkpt lat="43.69597" lon="3.15462">
        <ele>338.107</ele>
        <time>2014-03-02T09:17:15Z</time>
      </trkpt>
      <trkpt lat="43.69596" lon="3.15454">
        <ele>339.038</ele>
        <time>2014-03-02T09:17:22Z</time>
      </trkpt>
      <trkpt lat="43.69595" lon="3.15448">
        <ele>341.258</ele>
        <time>2014-03-02T09:17:28Z</time>
      </trkpt>
      <trkpt lat="43.69595" lon="3.15441">
        <ele>340.517</ele>
        <time>2014-03-02T09:17:34Z</time>
      </trkpt>
      <trkpt lat="43.69595" lon="3.15436">
        <ele>339.877</ele>
        <time>2014-03-02T09:17:39Z</time>
      </trkpt>
      <trkpt lat="43.69594" lon="3.15429">
        <ele>341.868</ele>
        <time>2014-03-02T09:17:46Z</time>
      </trkpt>
      <trkpt lat="43.69594" lon="3.15422">
        <ele>340.627</ele>
        <time>2014-03-02T09:17:53Z</time>
      </trkpt>
      <trkpt lat="43.69593" lon="3.15413">
        <ele>339.047</ele>
        <time>2014-03-02T09:17:59Z</time>
      </trkpt>
      <trkpt lat="43.69593" lon="3.15407">
        <ele>338.407</ele>
        <time>2014-03-02T09:18:05Z</time>
      </trkpt>
      <trkpt lat="43.69593" lon="3.154">
        <ele>337.097</ele>
        <time>2014-03-02T09:18:12Z</time>
      </trkpt>
      <trkpt lat="43.69592" lon="3.15392">
        <ele>334.586</ele>
        <time>2014-03-02T09:18:19Z</time>
      </trkpt>
      <trkpt lat="43.6959" lon="3.15386">
        <ele>335.327</ele>
        <time>2014-03-02T09:18:24Z</time>
      </trkpt>
      <trkpt lat="43.6959" lon="3.15378">
        <ele>338.137</ele>
        <time>2014-03-02T09:18:33Z</time>
      </trkpt>
      <trkpt lat="43.6959" lon="3.15373">
        <ele>338.267</ele>
        <time>2014-03-02T09:18:38Z</time>
      </trkpt>
      <trkpt lat="43.69588" lon="3.15364">
        <ele>338.667</ele>
        <time>2014-03-02T09:18:46Z</time>
      </trkpt>
      <trkpt lat="43.69588" lon="3.15355">
        <ele>341.457</ele>
        <time>2014-03-02T09:18:54Z</time>
      </trkpt>
      <trkpt lat="43.69587" lon="3.15348">
        <ele>343.587</ele>
        <time>2014-03-02T09:19:00Z</time>
      </trkpt>
      <trkpt lat="43.69587" lon="3.15342">
        <ele>345.087</ele>
        <time>2014-03-02T09:19:05Z</time>
      </trkpt>
      <trkpt lat="43.69586" lon="3.15333">
        <ele>346.027</ele>
        <time>2014-03-02T09:19:12Z</time>
      </trkpt>
      <trkpt lat="43.69585" lon="3.15326">
        <ele>347.797</ele>
        <time>2014-03-02T09:19:19Z</time>
      </trkpt>
      <trkpt lat="43.69586" lon="3.15321">
        <ele>348.998</ele>
        <time>2014-03-02T09:19:24Z</time>
      </trkpt>
      <trkpt lat="43.69584" lon="3.15317">
        <ele>351.147</ele>
        <time>2014-03-02T09:19:30Z</time>
      </trkpt>
      <trkpt lat="43.69582" lon="3.1531">
        <ele>350.817</ele>
        <time>2014-03-02T09:19:37Z</time>
      </trkpt>
      <trkpt lat="43.69578" lon="3.15301">
        <ele>352.337</ele>
        <time>2014-03-02T09:19:45Z</time>
      </trkpt>
      <trkpt lat="43.69577" lon="3.15295">
        <ele>351.327</ele>
        <time>2014-03-02T09:19:50Z</time>
      </trkpt>
      <trkpt lat="43.69576" lon="3.15288">
        <ele>351.877</ele>
        <time>2014-03-02T09:19:56Z</time>
      </trkpt>
      <trkpt lat="43.69575" lon="3.1528">
        <ele>352.707</ele>
        <time>2014-03-02T09:20:04Z</time>
      </trkpt>
      <trkpt lat="43.69576" lon="3.15272">
        <ele>352.237</ele>
        <time>2014-03-02T09:20:09Z</time>
      </trkpt>
      <trkpt lat="43.69573" lon="3.15269">
        <ele>352.407</ele>
        <time>2014-03-02T09:20:15Z</time>
      </trkpt>
      <trkpt lat="43.69572" lon="3.15264">
        <ele>349.636</ele>
        <time>2014-03-02T09:20:19Z</time>
      </trkpt>
      <trkpt lat="43.6957" lon="3.15258">
        <ele>348.946</ele>
        <time>2014-03-02T09:20:24Z</time>
      </trkpt>
      <trkpt lat="43.69571" lon="3.1525">
        <ele>348.747</ele>
        <time>2014-03-02T09:20:30Z</time>
      </trkpt>
      <trkpt lat="43.69571" lon="3.15244">
        <ele>348.927</ele>
        <time>2014-03-02T09:20:35Z</time>
      </trkpt>
      <trkpt lat="43.69569" lon="3.15236">
        <ele>347.117</ele>
        <time>2014-03-02T09:20:43Z</time>
      </trkpt>
      <trkpt lat="43.6957" lon="3.15228">
        <ele>352.327</ele>
        <time>2014-03-02T09:20:57Z</time>
      </trkpt>
      <trkpt lat="43.69572" lon="3.15222">
        <ele>357.318</ele>
        <time>2014-03-02T09:21:04Z</time>
      </trkpt>
      <trkpt lat="43.69572" lon="3.15219">
        <ele>359.628</ele>
        <time>2014-03-02T09:21:07Z</time>
      </trkpt>
      <trkpt lat="43.69573" lon="3.15215">
        <ele>361.368</ele>
        <time>2014-03-02T09:21:10Z</time>
      </trkpt>
      <trkpt lat="43.69576" lon="3.15207">
        <ele>360.437</ele>
        <time>2014-03-02T09:21:17Z</time>
      </trkpt>
      <trkpt lat="43.69578" lon="3.15199">
        <ele>361.557</ele>
        <time>2014-03-02T09:21:23Z</time>
      </trkpt>
      <trkpt lat="43.69578" lon="3.15193">
        <ele>363.057</ele>
        <time>2014-03-02T09:21:30Z</time>
      </trkpt>
      <trkpt lat="43.69578" lon="3.15181">
        <ele>366.658</ele>
        <time>2014-03-02T09:21:44Z</time>
      </trkpt>
      <trkpt lat="43.69575" lon="3.15172">
        <ele>365.357</ele>
        <time>2014-03-02T09:21:51Z</time>
      </trkpt>
      <trkpt lat="43.69572" lon="3.15167">
        <ele>358.546</ele>
        <time>2014-03-02T09:21:56Z</time>
      </trkpt>
      <trkpt lat="43.69574" lon="3.1516">
        <ele>361.026</ele>
        <time>2014-03-02T09:22:05Z</time>
      </trkpt>
      <trkpt lat="43.69575" lon="3.15154">
        <ele>363.356</ele>
        <time>2014-03-02T09:22:11Z</time>
      </trkpt>
      <trkpt lat="43.69575" lon="3.15148">
        <ele>366.327</ele>
        <time>2014-03-02T09:22:17Z</time>
      </trkpt>
      <trkpt lat="43.69578" lon="3.15143">
        <ele>368.677</ele>
        <time>2014-03-02T09:22:23Z</time>
      </trkpt>
      <trkpt lat="43.69579" lon="3.15138">
        <ele>369.047</ele>
        <time>2014-03-02T09:22:29Z</time>
      </trkpt>
      <trkpt lat="43.69575" lon="3.15132">
        <ele>366.326</ele>
        <time>2014-03-02T09:22:34Z</time>
      </trkpt>
      <trkpt lat="43.69574" lon="3.1512">
        <ele>357.666</ele>
        <time>2014-03-02T09:22:43Z</time>
      </trkpt>
      <trkpt lat="43.69574" lon="3.15115">
        <ele>353.345</ele>
        <time>2014-03-02T09:22:49Z</time>
      </trkpt>
      <trkpt lat="43.69572" lon="3.1511">
        <ele>349.345</ele>
        <time>2014-03-02T09:22:56Z</time>
      </trkpt>
      <trkpt lat="43.6958" lon="3.15093">
        <ele>353.177</ele>
        <time>2014-03-02T09:23:16Z</time>
      </trkpt>
      <trkpt lat="43.69578" lon="3.15087">
        <ele>358.167</ele>
        <time>2014-03-02T09:23:26Z</time>
      </trkpt>
      <trkpt lat="43.69587" lon="3.15082">
        <ele>368.407</ele>
        <time>2014-03-02T09:23:45Z</time>
      </trkpt>
      <trkpt lat="43.69582" lon="3.15071">
        <ele>372.357</ele>
        <time>2014-03-02T09:24:00Z</time>
      </trkpt>
      <trkpt lat="43.69578" lon="3.15065">
        <ele>372.897</ele>
        <time>2014-03-02T09:24:06Z</time>
      </trkpt>
      <trkpt lat="43.69581" lon="3.15061">
        <ele>373.126</ele>
        <time>2014-03-02T09:24:13Z</time>
      </trkpt>
      <trkpt lat="43.69583" lon="3.15054">
        <ele>372.936</ele>
        <time>2014-03-02T09:24:20Z</time>
      </trkpt>
      <trkpt lat="43.6958" lon="3.15048">
        <ele>376.206</ele>
        <time>2014-03-02T09:24:26Z</time>
      </trkpt>
      <trkpt lat="43.69581" lon="3.15041">
        <ele>378.977</ele>
        <time>2014-03-02T09:24:32Z</time>
      </trkpt>
      <trkpt lat="43.69581" lon="3.15033">
        <ele>381.907</ele>
        <time>2014-03-02T09:24:39Z</time>
      </trkpt>
      <trkpt lat="43.6958" lon="3.15029">
        <ele>383.677</ele>
        <time>2014-03-02T09:24:42Z</time>
      </trkpt>
      <trkpt lat="43.69578" lon="3.15022">
        <ele>386.797</ele>
        <time>2014-03-02T09:24:48Z</time>
      </trkpt>
      <trkpt lat="43.69579" lon="3.15018">
        <ele>387.787</ele>
        <time>2014-03-02T09:24:53Z</time>
      </trkpt>
      <trkpt lat="43.6958" lon="3.15011">
        <ele>389.917</ele>
        <time>2014-03-02T09:24:58Z</time>
      </trkpt>
      <trkpt lat="43.69582" lon="3.15003">
        <ele>390.757</ele>
        <time>2014-03-02T09:25:05Z</time>
      </trkpt>
      <trkpt lat="43.69581" lon="3.14995">
        <ele>390.016</ele>
        <time>2014-03-02T09:25:12Z</time>
      </trkpt>
      <trkpt lat="43.69582" lon="3.14979">
        <ele>396.377</ele>
        <time>2014-03-02T09:25:29Z</time>
      </trkpt>
      <trkpt lat="43.69588" lon="3.1497">
        <ele>397.317</ele>
        <time>2014-03-02T09:25:37Z</time>
      </trkpt>
      <trkpt lat="43.69585" lon="3.14962">
        <ele>399.917</ele>
        <time>2014-03-02T09:25:45Z</time>
      </trkpt>
      <trkpt lat="43.69581" lon="3.14956">
        <ele>402.706</ele>
        <time>2014-03-02T09:25:52Z</time>
      </trkpt>
      <trkpt lat="43.69579" lon="3.14945">
        <ele>395.965</ele>
        <time>2014-03-02T09:26:02Z</time>
      </trkpt>
      <trkpt lat="43.69583" lon="3.14937">
        <ele>394.095</ele>
        <time>2014-03-02T09:26:11Z</time>
      </trkpt>
      <trkpt lat="43.69586" lon="3.14934">
        <ele>392.025</ele>
        <time>2014-03-02T09:26:17Z</time>
      </trkpt>
      <trkpt lat="43.69587" lon="3.1493">
        <ele>391.916</ele>
        <time>2014-03-02T09:26:22Z</time>
      </trkpt>
      <trkpt lat="43.69586" lon="3.14924">
        <ele>391.856</ele>
        <time>2014-03-02T09:26:31Z</time>
      </trkpt>
      <trkpt lat="43.69589" lon="3.14918">
        <ele>390.646</ele>
        <time>2014-03-02T09:26:39Z</time>
      </trkpt>
      <trkpt lat="43.69592" lon="3.14912">
        <ele>388.956</ele>
        <time>2014-03-02T09:26:47Z</time>
      </trkpt>
      <trkpt lat="43.69595" lon="3.14908">
        <ele>388.596</ele>
        <time>2014-03-02T09:26:54Z</time>
      </trkpt>
      <trkpt lat="43.69601" lon="3.14899">
        <ele>386.326</ele>
        <time>2014-03-02T09:27:10Z</time>
      </trkpt>
      <trkpt lat="43.696" lon="3.14896">
        <ele>387.346</ele>
        <time>2014-03-02T09:27:15Z</time>
      </trkpt>
      <trkpt lat="43.696" lon="3.14873">
        <ele>389.337</ele>
        <time>2014-03-02T09:27:47Z</time>
      </trkpt>
      <trkpt lat="43.696" lon="3.1487">
        <ele>391.387</ele>
        <time>2014-03-02T09:27:54Z</time>
      </trkpt>
      <trkpt lat="43.69599" lon="3.14866">
        <ele>396.387</ele>
        <time>2014-03-02T09:28:01Z</time>
      </trkpt>
      <trkpt lat="43.69599" lon="3.14862">
        <ele>396.766</ele>
        <time>2014-03-02T09:28:05Z</time>
      </trkpt>
      <trkpt lat="43.69602" lon="3.14858">
        <ele>398.866</ele>
        <time>2014-03-02T09:28:11Z</time>
      </trkpt>
      <trkpt lat="43.69599" lon="3.1485">
        <ele>391.805</ele>
        <time>2014-03-02T09:28:16Z</time>
      </trkpt>
      <trkpt lat="43.696" lon="3.14847">
        <ele>390.555</ele>
        <time>2014-03-02T09:28:20Z</time>
      </trkpt>
      <trkpt lat="43.69595" lon="3.1484">
        <ele>387.736</ele>
        <time>2014-03-02T09:28:30Z</time>
      </trkpt>
      <trkpt lat="43.69597" lon="3.14833">
        <ele>390.886</ele>
        <time>2014-03-02T09:28:40Z</time>
      </trkpt>
      <trkpt lat="43.69599" lon="3.14827">
        <ele>398.156</ele>
        <time>2014-03-02T09:28:49Z</time>
      </trkpt>
      <trkpt lat="43.69596" lon="3.14821">
        <ele>397.836</ele>
        <time>2014-03-02T09:28:57Z</time>
      </trkpt>
      <trkpt lat="43.69597" lon="3.14812">
        <ele>402.152</ele>
        <time>2014-03-02T09:29:05Z</time>
      </trkpt>
      <trkpt lat="43.69595" lon="3.14798">
        <ele>401.006</ele>
        <time>2014-03-02T09:29:17Z</time>
      </trkpt>
      <trkpt lat="43.69592" lon="3.14789">
        <ele>399.395</ele>
        <time>2014-03-02T09:29:25Z</time>
      </trkpt>
      <trkpt lat="43.69593" lon="3.14785">
        <ele>398.185</ele>
        <time>2014-03-02T09:29:30Z</time>
      </trkpt>
      <trkpt lat="43.69589" lon="3.14781">
        <ele>400.306</ele>
        <time>2014-03-02T09:29:36Z</time>
      </trkpt>
      <trkpt lat="43.6959" lon="3.14775">
        <ele>400.525</ele>
        <time>2014-03-02T09:29:42Z</time>
      </trkpt>
      <trkpt lat="43.69584" lon="3.14754">
        <ele>404.637</ele>
        <time>2014-03-02T09:30:08Z</time>
      </trkpt>
      <trkpt lat="43.69579" lon="3.14748">
        <ele>405.386</ele>
        <time>2014-03-02T09:30:15Z</time>
      </trkpt>
      <trkpt lat="43.6958" lon="3.14742">
        <ele>407.737</ele>
        <time>2014-03-02T09:30:20Z</time>
      </trkpt>
      <trkpt lat="43.69583" lon="3.14731">
        <ele>408.317</ele>
        <time>2014-03-02T09:30:28Z</time>
      </trkpt>
      <trkpt lat="43.69584" lon="3.14724">
        <ele>407.926</ele>
        <time>2014-03-02T09:30:34Z</time>
      </trkpt>
      <trkpt lat="43.69583" lon="3.1472">
        <ele>403.605</ele>
        <time>2014-03-02T09:30:39Z</time>
      </trkpt>
      <trkpt lat="43.69582" lon="3.14716">
        <ele>402.675</ele>
        <time>2014-03-02T09:30:42Z</time>
      </trkpt>
      <trkpt lat="43.69584" lon="3.14711">
        <ele>404.255</ele>
        <time>2014-03-02T09:30:48Z</time>
      </trkpt>
      <trkpt lat="43.69586" lon="3.14706">
        <ele>407.156</ele>
        <time>2014-03-02T09:30:53Z</time>
      </trkpt>
      <trkpt lat="43.69582" lon="3.14689">
        <ele>411.025</ele>
        <time>2014-03-02T09:31:10Z</time>
      </trkpt>
      <trkpt lat="43.69578" lon="3.1468">
        <ele>421.777</ele>
        <time>2014-03-02T09:31:29Z</time>
      </trkpt>
      <trkpt lat="43.69568" lon="3.14673">
        <ele>415.476</ele>
        <time>2014-03-02T09:31:44Z</time>
      </trkpt>
      <trkpt lat="43.6956" lon="3.1467">
        <ele>409.864</ele>
        <time>2014-03-02T09:31:56Z</time>
      </trkpt>
      <trkpt lat="43.69555" lon="3.1465">
        <ele>394.004</ele>
        <time>2014-03-02T09:32:32Z</time>
      </trkpt>
      <trkpt lat="43.69561" lon="3.14649">
        <ele>400.206</ele>
        <time>2014-03-02T09:32:37Z</time>
      </trkpt>
      <trkpt lat="43.69567" lon="3.14649">
        <ele>401.506</ele>
        <time>2014-03-02T09:32:44Z</time>
      </trkpt>
      <trkpt lat="43.69572" lon="3.14657">
        <ele>407.996</ele>
        <time>2014-03-02T09:33:22Z</time>
      </trkpt>
      <trkpt lat="43.69574" lon="3.1465">
        <ele>410.727</ele>
        <time>2014-03-02T09:34:11Z</time>
      </trkpt>
      <trkpt lat="43.69569" lon="3.14647">
        <ele>414.667</ele>
        <time>2014-03-02T09:34:17Z</time>
      </trkpt>
      <trkpt lat="43.69574" lon="3.14643">
        <ele>410.495</ele>
        <time>2014-03-02T09:34:23Z</time>
      </trkpt>
      <trkpt lat="43.69575" lon="3.14641">
        <ele>409.145</ele>
        <time>2014-03-02T09:34:25Z</time>
      </trkpt>
      <trkpt lat="43.69578" lon="3.14636">
        <ele>408.715</ele>
        <time>2014-03-02T09:34:31Z</time>
      </trkpt>
      <trkpt lat="43.69581" lon="3.14629">
        <ele>407.895</ele>
        <time>2014-03-02T09:34:41Z</time>
      </trkpt>
      <trkpt lat="43.69588" lon="3.14619">
        <ele>415.256</ele>
        <time>2014-03-02T09:34:54Z</time>
      </trkpt>
      <trkpt lat="43.69588" lon="3.14615">
        <ele>415.385</ele>
        <time>2014-03-02T09:35:01Z</time>
      </trkpt>
      <trkpt lat="43.69582" lon="3.14606">
        <ele>420.255</ele>
        <time>2014-03-02T09:35:34Z</time>
      </trkpt>
      <trkpt lat="43.69572" lon="3.14606">
        <ele>418.534</ele>
        <time>2014-03-02T09:35:42Z</time>
      </trkpt>
      <trkpt lat="43.69569" lon="3.14604">
        <ele>413.524</ele>
        <time>2014-03-02T09:35:49Z</time>
      </trkpt>
      <trkpt lat="43.69563" lon="3.14598">
        <ele>411.595</ele>
        <time>2014-03-02T09:36:07Z</time>
      </trkpt>
      <trkpt lat="43.69559" lon="3.14596">
        <ele>412.055</ele>
        <time>2014-03-02T09:36:12Z</time>
      </trkpt>
      <trkpt lat="43.69552" lon="3.14589">
        <ele>403.945</ele>
        <time>2014-03-02T09:36:27Z</time>
      </trkpt>
      <trkpt lat="43.6954" lon="3.14582">
        <ele>408.616</ele>
        <time>2014-03-02T09:36:42Z</time>
      </trkpt>
      <trkpt lat="43.69539" lon="3.14562">
        <ele>415.476</ele>
        <time>2014-03-02T09:37:20Z</time>
      </trkpt>
      <trkpt lat="43.69535" lon="3.14553">
        <ele>411.884</ele>
        <time>2014-03-02T09:37:29Z</time>
      </trkpt>
      <trkpt lat="43.69525" lon="3.14545">
        <ele>409.394</ele>
        <time>2014-03-02T09:37:43Z</time>
      </trkpt>
      <trkpt lat="43.69519" lon="3.14531">
        <ele>411.305</ele>
        <time>2014-03-02T09:38:03Z</time>
      </trkpt>
      <trkpt lat="43.69511" lon="3.14529">
        <ele>412.435</ele>
        <time>2014-03-02T09:38:08Z</time>
      </trkpt>
      <trkpt lat="43.69509" lon="3.14525">
        <ele>411.525</ele>
        <time>2014-03-02T09:38:14Z</time>
      </trkpt>
      <trkpt lat="43.69507" lon="3.14521">
        <ele>412.765</ele>
        <time>2014-03-02T09:38:20Z</time>
      </trkpt>
      <trkpt lat="43.69504" lon="3.14511">
        <ele>416.755</ele>
        <time>2014-03-02T09:38:37Z</time>
      </trkpt>
      <trkpt lat="43.69503" lon="3.14505">
        <ele>417.916</ele>
        <time>2014-03-02T09:38:43Z</time>
      </trkpt>
      <trkpt lat="43.69502" lon="3.14493">
        <ele>417.465</ele>
        <time>2014-03-02T09:38:55Z</time>
      </trkpt>
      <trkpt lat="43.69498" lon="3.1449">
        <ele>420.296</ele>
        <time>2014-03-02T09:39:00Z</time>
      </trkpt>
      <trkpt lat="43.69494" lon="3.14487">
        <ele>422.576</ele>
        <time>2014-03-02T09:39:05Z</time>
      </trkpt>
      <trkpt lat="43.69495" lon="3.14468">
        <ele>430.506</ele>
        <time>2014-03-02T09:39:24Z</time>
      </trkpt>
      <trkpt lat="43.69489" lon="3.14447">
        <ele>458.576</ele>
        <time>2014-03-02T09:40:01Z</time>
      </trkpt>
      <trkpt lat="43.69487" lon="3.14446">
        <ele>460.366</ele>
        <time>2014-03-02T09:40:06Z</time>
      </trkpt>
      <trkpt lat="43.69483" lon="3.14435">
        <ele>463.465</ele>
        <time>2014-03-02T09:40:22Z</time>
      </trkpt>
      <trkpt lat="43.69483" lon="3.14428">
        <ele>459.625</ele>
        <time>2014-03-02T09:40:31Z</time>
      </trkpt>
      <trkpt lat="43.69484" lon="3.14404">
        <ele>472.635</ele>
        <time>2014-03-02T09:41:11Z</time>
      </trkpt>
      <trkpt lat="43.69483" lon="3.14399">
        <ele>475.275</ele>
        <time>2014-03-02T09:41:18Z</time>
      </trkpt>
      <trkpt lat="43.69469" lon="3.14388">
        <ele>458.294</ele>
        <time>2014-03-02T09:41:54Z</time>
      </trkpt>
      <trkpt lat="43.69461" lon="3.14387">
        <ele>454.572</ele>
        <time>2014-03-02T09:42:39Z</time>
      </trkpt>
      <trkpt lat="43.69461" lon="3.14386">
        <ele>452.653</ele>
        <time>2014-03-02T09:42:43Z</time>
      </trkpt>
      <trkpt lat="43.69456" lon="3.14382">
        <ele>456.654</ele>
        <time>2014-03-02T09:42:50Z</time>
      </trkpt>
      <trkpt lat="43.69487" lon="3.14396">
        <ele>475.154</ele>
        <time>2014-03-02T09:43:29Z</time>
      </trkpt>
      <trkpt lat="43.69492" lon="3.14382">
        <ele>471.554</ele>
        <time>2014-03-02T09:45:06Z</time>
      </trkpt>
      <trkpt lat="43.69502" lon="3.14387">
        <ele>467.173</ele>
        <time>2014-03-02T09:45:12Z</time>
      </trkpt>
      <trkpt lat="43.69439" lon="3.14374">
        <ele>454.631</ele>
        <time>2014-03-02T09:45:54Z</time>
      </trkpt>
      <trkpt lat="43.69476" lon="3.14373">
        <ele>484.334</ele>
        <time>2014-03-02T09:46:44Z</time>
      </trkpt>
      <trkpt lat="43.6947" lon="3.14373">
        <ele>488.406</ele>
        <time>2014-03-02T09:46:49Z</time>
      </trkpt>
      <trkpt lat="43.69464" lon="3.14367">
        <ele>498.697</ele>
        <time>2014-03-02T09:46:57Z</time>
      </trkpt>
      <trkpt lat="43.69472" lon="3.14362">
        <ele>493.264</ele>
        <time>2014-03-02T09:47:03Z</time>
      </trkpt>
      <trkpt lat="43.69437" lon="3.14355">
        <ele>466.412</ele>
        <time>2014-03-02T09:47:28Z</time>
      </trkpt>
      <trkpt lat="43.69441" lon="3.14364">
        <ele>464.173</ele>
        <time>2014-03-02T09:47:33Z</time>
      </trkpt>
      <trkpt lat="43.69443" lon="3.14371">
        <ele>464.624</ele>
        <time>2014-03-02T09:47:39Z</time>
      </trkpt>
      <trkpt lat="43.69436" lon="3.14382">
        <ele>470.075</ele>
        <time>2014-03-02T09:47:51Z</time>
      </trkpt>
      <trkpt lat="43.69434" lon="3.14387">
        <ele>474.356</ele>
        <time>2014-03-02T09:47:58Z</time>
      </trkpt>
      <trkpt lat="43.69434" lon="3.14393">
        <ele>472.415</ele>
        <time>2014-03-02T09:48:04Z</time>
      </trkpt>
      <trkpt lat="43.69437" lon="3.14401">
        <ele>472.915</ele>
        <time>2014-03-02T09:48:09Z</time>
      </trkpt>
      <trkpt lat="43.69435" lon="3.14411">
        <ele>468.924</ele>
        <time>2014-03-02T09:48:17Z</time>
      </trkpt>
      <trkpt lat="43.69437" lon="3.14417">
        <ele>468.494</ele>
        <time>2014-03-02T09:48:24Z</time>
      </trkpt>
      <trkpt lat="43.69435" lon="3.14423">
        <ele>469.454</ele>
        <time>2014-03-02T09:48:30Z</time>
      </trkpt>
      <trkpt lat="43.69435" lon="3.14428">
        <ele>470.804</ele>
        <time>2014-03-02T09:48:33Z</time>
      </trkpt>
      <trkpt lat="43.69439" lon="3.14435">
        <ele>470.514</ele>
        <time>2014-03-02T09:48:38Z</time>
      </trkpt>
      <trkpt lat="43.69437" lon="3.1444">
        <ele>470.655</ele>
        <time>2014-03-02T09:48:45Z</time>
      </trkpt>
      <trkpt lat="43.69435" lon="3.14443">
        <ele>471.284</ele>
        <time>2014-03-02T09:48:48Z</time>
      </trkpt>
      <trkpt lat="43.69432" lon="3.14449">
        <ele>469.903</ele>
        <time>2014-03-02T09:48:53Z</time>
      </trkpt>
      <trkpt lat="43.69432" lon="3.14456">
        <ele>473.565</ele>
        <time>2014-03-02T09:48:59Z</time>
      </trkpt>
      <trkpt lat="43.69431" lon="3.14464">
        <ele>471.084</ele>
        <time>2014-03-02T09:49:05Z</time>
      </trkpt>
      <trkpt lat="43.69432" lon="3.14472">
        <ele>471.365</ele>
        <time>2014-03-02T09:49:12Z</time>
      </trkpt>
      <trkpt lat="43.69437" lon="3.1448">
        <ele>470.715</ele>
        <time>2014-03-02T09:49:16Z</time>
      </trkpt>
      <trkpt lat="43.69432" lon="3.14487">
        <ele>471.665</ele>
        <time>2014-03-02T09:49:22Z</time>
      </trkpt>
      <trkpt lat="43.69431" lon="3.14491">
        <ele>472.525</ele>
        <time>2014-03-02T09:49:27Z</time>
      </trkpt>
      <trkpt lat="43.6943" lon="3.14496">
        <ele>474.706</ele>
        <time>2014-03-02T09:49:33Z</time>
      </trkpt>
      <trkpt lat="43.69426" lon="3.14503">
        <ele>471.945</ele>
        <time>2014-03-02T09:49:40Z</time>
      </trkpt>
      <trkpt lat="43.69424" lon="3.14504">
        <ele>471.115</ele>
        <time>2014-03-02T09:49:41Z</time>
      </trkpt>
      <trkpt lat="43.69422" lon="3.14512">
        <ele>469.134</ele>
        <time>2014-03-02T09:49:49Z</time>
      </trkpt>
      <trkpt lat="43.69423" lon="3.14515">
        <ele>467.333</ele>
        <time>2014-03-02T09:49:51Z</time>
      </trkpt>
      <trkpt lat="43.69424" lon="3.1452">
        <ele>465.913</ele>
        <time>2014-03-02T09:49:54Z</time>
      </trkpt>
      <trkpt lat="43.69427" lon="3.14522">
        <ele>468.624</ele>
        <time>2014-03-02T09:50:02Z</time>
      </trkpt>
      <trkpt lat="43.69433" lon="3.14529">
        <ele>469.425</ele>
        <time>2014-03-02T09:50:07Z</time>
      </trkpt>
      <trkpt lat="43.69431" lon="3.14541">
        <ele>471.145</ele>
        <time>2014-03-02T09:50:14Z</time>
      </trkpt>
      <trkpt lat="43.6943" lon="3.14542">
        <ele>471.736</ele>
        <time>2014-03-02T09:50:15Z</time>
      </trkpt>
      <trkpt lat="43.6943" lon="3.14548">
        <ele>477.047</ele>
        <time>2014-03-02T09:50:20Z</time>
      </trkpt>
      <trkpt lat="43.69428" lon="3.14553">
        <ele>480.136</ele>
        <time>2014-03-02T09:50:26Z</time>
      </trkpt>
      <trkpt lat="43.69432" lon="3.14558">
        <ele>477.715</ele>
        <time>2014-03-02T09:50:33Z</time>
      </trkpt>
      <trkpt lat="43.69432" lon="3.1456">
        <ele>475.204</ele>
        <time>2014-03-02T09:50:37Z</time>
      </trkpt>
      <trkpt lat="43.69436" lon="3.14568">
        <ele>471.514</ele>
        <time>2014-03-02T09:50:44Z</time>
      </trkpt>
      <trkpt lat="43.69438" lon="3.14571">
        <ele>470.153</ele>
        <time>2014-03-02T09:50:46Z</time>
      </trkpt>
      <trkpt lat="43.69431" lon="3.14575">
        <ele>464.281</ele>
        <time>2014-03-02T09:50:51Z</time>
      </trkpt>
      <trkpt lat="43.6943" lon="3.14582">
        <ele>463.213</ele>
        <time>2014-03-02T09:50:57Z</time>
      </trkpt>
      <trkpt lat="43.69439" lon="3.14589">
        <ele>456.042</ele>
        <time>2014-03-02T09:51:06Z</time>
      </trkpt>
      <trkpt lat="43.69427" lon="3.14588">
        <ele>470.147</ele>
        <time>2014-03-02T09:51:15Z</time>
      </trkpt>
      <trkpt lat="43.69427" lon="3.1459">
        <ele>481.108</ele>
        <time>2014-03-02T09:51:24Z</time>
      </trkpt>
      <trkpt lat="43.69433" lon="3.14591">
        <ele>486.697</ele>
        <time>2014-03-02T09:51:29Z</time>
      </trkpt>
      <trkpt lat="43.69433" lon="3.14592">
        <ele>484.407</ele>
        <time>2014-03-02T09:51:30Z</time>
      </trkpt>
      <trkpt lat="43.69444" lon="3.14598">
        <ele>484.086</ele>
        <time>2014-03-02T09:51:35Z</time>
      </trkpt>
      <trkpt lat="43.69444" lon="3.14602">
        <ele>482.485</ele>
        <time>2014-03-02T09:51:39Z</time>
      </trkpt>
      <trkpt lat="43.6943" lon="3.14618">
        <ele>464.541</ele>
        <time>2014-03-02T09:51:52Z</time>
      </trkpt>
      <trkpt lat="43.6943" lon="3.14623">
        <ele>462.563</ele>
        <time>2014-03-02T09:51:59Z</time>
      </trkpt>
      <trkpt lat="43.69435" lon="3.14627">
        <ele>462.353</ele>
        <time>2014-03-02T09:52:03Z</time>
      </trkpt>
      <trkpt lat="43.69436" lon="3.14634">
        <ele>460.493</ele>
        <time>2014-03-02T09:52:08Z</time>
      </trkpt>
      <trkpt lat="43.69441" lon="3.1464">
        <ele>470.536</ele>
        <time>2014-03-02T09:52:15Z</time>
      </trkpt>
      <trkpt lat="43.69444" lon="3.14646">
        <ele>474.566</ele>
        <time>2014-03-02T09:52:19Z</time>
      </trkpt>
      <trkpt lat="43.69446" lon="3.14652">
        <ele>477.747</ele>
        <time>2014-03-02T09:52:23Z</time>
      </trkpt>
      <trkpt lat="43.69446" lon="3.14659">
        <ele>474.455</ele>
        <time>2014-03-02T09:52:28Z</time>
      </trkpt>
      <trkpt lat="43.69451" lon="3.14665">
        <ele>474.565</ele>
        <time>2014-03-02T09:52:35Z</time>
      </trkpt>
      <trkpt lat="43.69454" lon="3.14673">
        <ele>476.815</ele>
        <time>2014-03-02T09:52:42Z</time>
      </trkpt>
      <trkpt lat="43.69457" lon="3.14689">
        <ele>476.895</ele>
        <time>2014-03-02T09:52:54Z</time>
      </trkpt>
      <trkpt lat="43.6946" lon="3.14692">
        <ele>476.155</ele>
        <time>2014-03-02T09:52:56Z</time>
      </trkpt>
      <trkpt lat="43.69462" lon="3.14705">
        <ele>480.256</ele>
        <time>2014-03-02T09:53:04Z</time>
      </trkpt>
      <trkpt lat="43.6946" lon="3.14708">
        <ele>479.435</ele>
        <time>2014-03-02T09:53:06Z</time>
      </trkpt>
      <trkpt lat="43.69457" lon="3.14715">
        <ele>477.775</ele>
        <time>2014-03-02T09:53:13Z</time>
      </trkpt>
      <trkpt lat="43.69458" lon="3.14722">
        <ele>477.855</ele>
        <time>2014-03-02T09:53:18Z</time>
      </trkpt>
      <trkpt lat="43.69457" lon="3.14731">
        <ele>478.115</ele>
        <time>2014-03-02T09:53:25Z</time>
      </trkpt>
      <trkpt lat="43.69456" lon="3.14739">
        <ele>475.234</ele>
        <time>2014-03-02T09:53:33Z</time>
      </trkpt>
      <trkpt lat="43.69454" lon="3.14747">
        <ele>472.123</ele>
        <time>2014-03-02T09:53:39Z</time>
      </trkpt>
      <trkpt lat="43.69447" lon="3.14757">
        <ele>472.144</ele>
        <time>2014-03-02T09:53:46Z</time>
      </trkpt>
      <trkpt lat="43.69448" lon="3.14763">
        <ele>466.612</ele>
        <time>2014-03-02T09:53:51Z</time>
      </trkpt>
      <trkpt lat="43.69449" lon="3.14771">
        <ele>469.345</ele>
        <time>2014-03-02T09:53:58Z</time>
      </trkpt>
      <trkpt lat="43.6945" lon="3.14776">
        <ele>469.005</ele>
        <time>2014-03-02T09:54:02Z</time>
      </trkpt>
      <trkpt lat="43.69452" lon="3.14784">
        <ele>470.105</ele>
        <time>2014-03-02T09:54:07Z</time>
      </trkpt>
      <trkpt lat="43.69455" lon="3.14795">
        <ele>472.697</ele>
        <time>2014-03-02T09:54:14Z</time>
      </trkpt>
      <trkpt lat="43.69459" lon="3.148">
        <ele>474.796</ele>
        <time>2014-03-02T09:54:18Z</time>
      </trkpt>
      <trkpt lat="43.69467" lon="3.14808">
        <ele>475.987</ele>
        <time>2014-03-02T09:54:23Z</time>
      </trkpt>
      <trkpt lat="43.69464" lon="3.14817">
        <ele>476.926</ele>
        <time>2014-03-02T09:54:29Z</time>
      </trkpt>
      <trkpt lat="43.69463" lon="3.14819">
        <ele>477.506</ele>
        <time>2014-03-02T09:54:31Z</time>
      </trkpt>
      <trkpt lat="43.6946" lon="3.14828">
        <ele>478.776</ele>
        <time>2014-03-02T09:54:37Z</time>
      </trkpt>
      <trkpt lat="43.69459" lon="3.14829">
        <ele>478.686</ele>
        <time>2014-03-02T09:54:38Z</time>
      </trkpt>
      <trkpt lat="43.69453" lon="3.14841">
        <ele>474.285</ele>
        <time>2014-03-02T09:54:46Z</time>
      </trkpt>
      <trkpt lat="43.69456" lon="3.14855">
        <ele>471.105</ele>
        <time>2014-03-02T09:54:59Z</time>
      </trkpt>
      <trkpt lat="43.69456" lon="3.14863">
        <ele>466.644</ele>
        <time>2014-03-02T09:55:05Z</time>
      </trkpt>
      <trkpt lat="43.69458" lon="3.14869">
        <ele>463.744</ele>
        <time>2014-03-02T09:55:11Z</time>
      </trkpt>
      <trkpt lat="43.6945" lon="3.14872">
        <ele>467.205</ele>
        <time>2014-03-02T09:55:17Z</time>
      </trkpt>
      <trkpt lat="43.69447" lon="3.14876">
        <ele>463.334</ele>
        <time>2014-03-02T09:55:23Z</time>
      </trkpt>
      <trkpt lat="43.69444" lon="3.14874">
        <ele>454.093</ele>
        <time>2014-03-02T09:55:30Z</time>
      </trkpt>
      <trkpt lat="43.69464" lon="3.14886">
        <ele>443.691</ele>
        <time>2014-03-02T09:55:39Z</time>
      </trkpt>
      <trkpt lat="43.69473" lon="3.14889">
        <ele>432.112</ele>
        <time>2014-03-02T09:55:46Z</time>
      </trkpt>
      <trkpt lat="43.69459" lon="3.14892">
        <ele>417.049</ele>
        <time>2014-03-02T09:55:53Z</time>
      </trkpt>
      <trkpt lat="43.69455" lon="3.14892">
        <ele>415.22</ele>
        <time>2014-03-02T09:55:54Z</time>
      </trkpt>
      <trkpt lat="43.6946" lon="3.14892">
        <ele>412.152</ele>
        <time>2014-03-02T09:56:01Z</time>
      </trkpt>
      <trkpt lat="43.69451" lon="3.1489">
        <ele>414.795</ele>
        <time>2014-03-02T09:56:13Z</time>
      </trkpt>
      <trkpt lat="43.69451" lon="3.14884">
        <ele>443.823</ele>
        <time>2014-03-02T09:56:20Z</time>
      </trkpt>
      <trkpt lat="43.69446" lon="3.14883">
        <ele>466.204</ele>
        <time>2014-03-02T09:56:28Z</time>
      </trkpt>
      <trkpt lat="43.69452" lon="3.14884">
        <ele>463.576</ele>
        <time>2014-03-02T09:56:39Z</time>
      </trkpt>
      <trkpt lat="43.69453" lon="3.14889">
        <ele>461.908</ele>
        <time>2014-03-02T09:56:46Z</time>
      </trkpt>
      <trkpt lat="43.69447" lon="3.1489">
        <ele>463.356</ele>
        <time>2014-03-02T09:56:51Z</time>
      </trkpt>
      <trkpt lat="43.69457" lon="3.14897">
        <ele>442.024</ele>
        <time>2014-03-02T09:57:18Z</time>
      </trkpt>
      <trkpt lat="43.69445" lon="3.14906">
        <ele>462.165</ele>
        <time>2014-03-02T09:58:39Z</time>
      </trkpt>
      <trkpt lat="43.69438" lon="3.14906">
        <ele>456.794</ele>
        <time>2014-03-02T09:58:45Z</time>
      </trkpt>
      <trkpt lat="43.69432" lon="3.14909">
        <ele>454.129</ele>
        <time>2014-03-02T09:58:51Z</time>
      </trkpt>
      <trkpt lat="43.69425" lon="3.14914">
        <ele>457.595</ele>
        <time>2014-03-02T09:58:57Z</time>
      </trkpt>
      <trkpt lat="43.69422" lon="3.14915">
        <ele>457.475</ele>
        <time>2014-03-02T09:58:59Z</time>
      </trkpt>
      <trkpt lat="43.69417" lon="3.14919">
        <ele>457.165</ele>
        <time>2014-03-02T09:59:05Z</time>
      </trkpt>
      <trkpt lat="43.69413" lon="3.14923">
        <ele>458.405</ele>
        <time>2014-03-02T09:59:13Z</time>
      </trkpt>
      <trkpt lat="43.69407" lon="3.14927">
        <ele>457.775</ele>
        <time>2014-03-02T09:59:22Z</time>
      </trkpt>
      <trkpt lat="43.69406" lon="3.14928">
        <ele>456.885</ele>
        <time>2014-03-02T09:59:24Z</time>
      </trkpt>
      <trkpt lat="43.69403" lon="3.14931">
        <ele>454.774</ele>
        <time>2014-03-02T09:59:30Z</time>
      </trkpt>
      <trkpt lat="43.694" lon="3.14937">
        <ele>455.145</ele>
        <time>2014-03-02T09:59:39Z</time>
      </trkpt>
      <trkpt lat="43.69395" lon="3.14938">
        <ele>459.696</ele>
        <time>2014-03-02T09:59:41Z</time>
      </trkpt>
      <trkpt lat="43.69394" lon="3.1494">
        <ele>456.855</ele>
        <time>2014-03-02T09:59:48Z</time>
      </trkpt>
      <trkpt lat="43.69392" lon="3.14939">
        <ele>450.843</ele>
        <time>2014-03-02T09:59:54Z</time>
      </trkpt>
      <trkpt lat="43.69367" lon="3.14949">
        <ele>458.267</ele>
        <time>2014-03-02T10:00:23Z</time>
      </trkpt>
      <trkpt lat="43.69372" lon="3.14956">
        <ele>456.936</ele>
        <time>2014-03-02T10:00:30Z</time>
      </trkpt>
      <trkpt lat="43.69368" lon="3.14965">
        <ele>460.497</ele>
        <time>2014-03-02T10:00:38Z</time>
      </trkpt>
      <trkpt lat="43.69368" lon="3.14971">
        <ele>460.386</ele>
        <time>2014-03-02T10:00:44Z</time>
      </trkpt>
      <trkpt lat="43.69369" lon="3.14978">
        <ele>459.166</ele>
        <time>2014-03-02T10:00:49Z</time>
      </trkpt>
      <trkpt lat="43.69365" lon="3.14984">
        <ele>460.046</ele>
        <time>2014-03-02T10:00:57Z</time>
      </trkpt>
      <trkpt lat="43.69361" lon="3.14988">
        <ele>463.197</ele>
        <time>2014-03-02T10:01:01Z</time>
      </trkpt>
      <trkpt lat="43.69359" lon="3.14994">
        <ele>468.907</ele>
        <time>2014-03-02T10:01:08Z</time>
      </trkpt>
      <trkpt lat="43.6936" lon="3.14998">
        <ele>471.397</ele>
        <time>2014-03-02T10:01:13Z</time>
      </trkpt>
      <trkpt lat="43.6936" lon="3.15007">
        <ele>471.586</ele>
        <time>2014-03-02T10:01:21Z</time>
      </trkpt>
      <trkpt lat="43.69362" lon="3.15013">
        <ele>471.636</ele>
        <time>2014-03-02T10:01:27Z</time>
      </trkpt>
      <trkpt lat="43.69364" lon="3.15023">
        <ele>469.356</ele>
        <time>2014-03-02T10:01:36Z</time>
      </trkpt>
      <trkpt lat="43.69362" lon="3.15028">
        <ele>470.606</ele>
        <time>2014-03-02T10:01:42Z</time>
      </trkpt>
      <trkpt lat="43.69362" lon="3.15034">
        <ele>470.756</ele>
        <time>2014-03-02T10:01:48Z</time>
      </trkpt>
      <trkpt lat="43.69367" lon="3.15042">
        <ele>468.476</ele>
        <time>2014-03-02T10:01:55Z</time>
      </trkpt>
      <trkpt lat="43.69361" lon="3.15047">
        <ele>470.856</ele>
        <time>2014-03-02T10:02:00Z</time>
      </trkpt>
      <trkpt lat="43.69358" lon="3.15052">
        <ele>473.927</ele>
        <time>2014-03-02T10:02:06Z</time>
      </trkpt>
      <trkpt lat="43.6936" lon="3.15057">
        <ele>473.786</ele>
        <time>2014-03-02T10:02:11Z</time>
      </trkpt>
      <trkpt lat="43.69357" lon="3.15062">
        <ele>472.015</ele>
        <time>2014-03-02T10:02:15Z</time>
      </trkpt>
      <trkpt lat="43.69358" lon="3.15067">
        <ele>469.975</ele>
        <time>2014-03-02T10:02:20Z</time>
      </trkpt>
      <trkpt lat="43.6936" lon="3.15074">
        <ele>467.605</ele>
        <time>2014-03-02T10:02:26Z</time>
      </trkpt>
      <trkpt lat="43.69355" lon="3.15078">
        <ele>467.155</ele>
        <time>2014-03-02T10:02:32Z</time>
      </trkpt>
      <trkpt lat="43.69352" lon="3.15082">
        <ele>467.515</ele>
        <time>2014-03-02T10:02:36Z</time>
      </trkpt>
      <trkpt lat="43.69353" lon="3.15087">
        <ele>464.014</ele>
        <time>2014-03-02T10:02:41Z</time>
      </trkpt>
      <trkpt lat="43.69356" lon="3.15093">
        <ele>462.605</ele>
        <time>2014-03-02T10:02:46Z</time>
      </trkpt>
      <trkpt lat="43.6935" lon="3.15101">
        <ele>468.086</ele>
        <time>2014-03-02T10:02:54Z</time>
      </trkpt>
      <trkpt lat="43.69349" lon="3.15105">
        <ele>464.705</ele>
        <time>2014-03-02T10:03:00Z</time>
      </trkpt>
      <trkpt lat="43.69345" lon="3.1511">
        <ele>470.477</ele>
        <time>2014-03-02T10:03:08Z</time>
      </trkpt>
      <trkpt lat="43.69344" lon="3.15113">
        <ele>470.786</ele>
        <time>2014-03-02T10:03:14Z</time>
      </trkpt>
      <trkpt lat="43.69341" lon="3.15116">
        <ele>470.436</ele>
        <time>2014-03-02T10:03:19Z</time>
      </trkpt>
      <trkpt lat="43.69332" lon="3.15116">
        <ele>474.598</ele>
        <time>2014-03-02T10:03:24Z</time>
      </trkpt>
      <trkpt lat="43.69331" lon="3.15119">
        <ele>475.546</ele>
        <time>2014-03-02T10:03:31Z</time>
      </trkpt>
      <trkpt lat="43.69325" lon="3.15121">
        <ele>478.907</ele>
        <time>2014-03-02T10:03:37Z</time>
      </trkpt>
      <trkpt lat="43.69319" lon="3.15122">
        <ele>483.467</ele>
        <time>2014-03-02T10:03:42Z</time>
      </trkpt>
      <trkpt lat="43.69314" lon="3.15122">
        <ele>485.086</ele>
        <time>2014-03-02T10:03:49Z</time>
      </trkpt>
      <trkpt lat="43.69303" lon="3.15121">
        <ele>485.155</ele>
        <time>2014-03-02T10:04:02Z</time>
      </trkpt>
      <trkpt lat="43.69301" lon="3.15123">
        <ele>477.193</ele>
        <time>2014-03-02T10:04:09Z</time>
      </trkpt>
      <trkpt lat="43.69298" lon="3.15124">
        <ele>475.804</ele>
        <time>2014-03-02T10:04:15Z</time>
      </trkpt>
      <trkpt lat="43.69293" lon="3.15124">
        <ele>472.884</ele>
        <time>2014-03-02T10:04:22Z</time>
      </trkpt>
      <trkpt lat="43.69285" lon="3.15122">
        <ele>475.485</ele>
        <time>2014-03-02T10:04:27Z</time>
      </trkpt>
      <trkpt lat="43.69279" lon="3.15119">
        <ele>475.275</ele>
        <time>2014-03-02T10:04:32Z</time>
      </trkpt>
      <trkpt lat="43.69277" lon="3.1512">
        <ele>474.265</ele>
        <time>2014-03-02T10:04:43Z</time>
      </trkpt>
      <trkpt lat="43.69274" lon="3.15122">
        <ele>472.884</ele>
        <time>2014-03-02T10:04:51Z</time>
      </trkpt>
      <trkpt lat="43.69264" lon="3.15119">
        <ele>472.074</ele>
        <time>2014-03-02T10:04:58Z</time>
      </trkpt>
      <trkpt lat="43.69256" lon="3.1512">
        <ele>476.266</ele>
        <time>2014-03-02T10:05:04Z</time>
      </trkpt>
      <trkpt lat="43.69255" lon="3.15121">
        <ele>473.345</ele>
        <time>2014-03-02T10:05:11Z</time>
      </trkpt>
      <trkpt lat="43.69251" lon="3.15121">
        <ele>475.566</ele>
        <time>2014-03-02T10:05:17Z</time>
      </trkpt>
      <trkpt lat="43.69248" lon="3.15125">
        <ele>476.675</ele>
        <time>2014-03-02T10:05:24Z</time>
      </trkpt>
      <trkpt lat="43.69239" lon="3.15122">
        <ele>466.514</ele>
        <time>2014-03-02T10:05:40Z</time>
      </trkpt>
      <trkpt lat="43.69226" lon="3.15125">
        <ele>473.737</ele>
        <time>2014-03-02T10:05:50Z</time>
      </trkpt>
      <trkpt lat="43.6922" lon="3.15126">
        <ele>475.756</ele>
        <time>2014-03-02T10:05:56Z</time>
      </trkpt>
      <trkpt lat="43.69213" lon="3.15126">
        <ele>476.996</ele>
        <time>2014-03-02T10:06:02Z</time>
      </trkpt>
      <trkpt lat="43.6921" lon="3.15129">
        <ele>480.997</ele>
        <time>2014-03-02T10:06:07Z</time>
      </trkpt>
      <trkpt lat="43.69211" lon="3.15128">
        <ele>478.285</ele>
        <time>2014-03-02T10:06:15Z</time>
      </trkpt>
      <trkpt lat="43.69211" lon="3.15127">
        <ele>473.294</ele>
        <time>2014-03-02T10:06:21Z</time>
      </trkpt>
      <trkpt lat="43.69198" lon="3.15121">
        <ele>463.173</ele>
        <time>2014-03-02T10:06:33Z</time>
      </trkpt>
      <trkpt lat="43.6919" lon="3.15118">
        <ele>459.712</ele>
        <time>2014-03-02T10:06:39Z</time>
      </trkpt>
      <trkpt lat="43.69177" lon="3.15113">
        <ele>457.774</ele>
        <time>2014-03-02T10:06:47Z</time>
      </trkpt>
      <trkpt lat="43.69175" lon="3.15113">
        <ele>455.984</ele>
        <time>2014-03-02T10:06:54Z</time>
      </trkpt>
      <trkpt lat="43.69172" lon="3.15111">
        <ele>454.514</ele>
        <time>2014-03-02T10:07:16Z</time>
      </trkpt>
      <trkpt lat="43.69167" lon="3.15111">
        <ele>455.144</ele>
        <time>2014-03-02T10:07:22Z</time>
      </trkpt>
      <trkpt lat="43.69166" lon="3.15111">
        <ele>456.985</ele>
        <time>2014-03-02T10:07:27Z</time>
      </trkpt>
      <trkpt lat="43.69162" lon="3.15111">
        <ele>460.986</ele>
        <time>2014-03-02T10:07:31Z</time>
      </trkpt>
      <trkpt lat="43.69165" lon="3.15114">
        <ele>454.494</ele>
        <time>2014-03-02T10:07:45Z</time>
      </trkpt>
      <trkpt lat="43.69164" lon="3.15114">
        <ele>450.643</ele>
        <time>2014-03-02T10:07:49Z</time>
      </trkpt>
      <trkpt lat="43.69156" lon="3.15114">
        <ele>462.888</ele>
        <time>2014-03-02T10:07:55Z</time>
      </trkpt>
      <trkpt lat="43.69156" lon="3.15117">
        <ele>471.65</ele>
        <time>2014-03-02T10:08:01Z</time>
      </trkpt>
      <trkpt lat="43.69154" lon="3.15122">
        <ele>473.077</ele>
        <time>2014-03-02T10:08:07Z</time>
      </trkpt>
      <trkpt lat="43.69156" lon="3.15125">
        <ele>477.018</ele>
        <time>2014-03-02T10:08:12Z</time>
      </trkpt>
      <trkpt lat="43.69156" lon="3.15125">
        <ele>478.358</ele>
        <time>2014-03-02T10:08:13Z</time>
      </trkpt>
      <trkpt lat="43.6916" lon="3.15129">
        <ele>476.486</ele>
        <time>2014-03-02T10:08:18Z</time>
      </trkpt>
      <trkpt lat="43.69163" lon="3.1513">
        <ele>493.629</ele>
        <time>2014-03-02T10:08:28Z</time>
      </trkpt>
      <trkpt lat="43.69159" lon="3.15135">
        <ele>490.436</ele>
        <time>2014-03-02T10:08:32Z</time>
      </trkpt>
      <trkpt lat="43.69156" lon="3.15144">
        <ele>489.595</ele>
        <time>2014-03-02T10:08:40Z</time>
      </trkpt>
      <trkpt lat="43.69153" lon="3.15155">
        <ele>485.964</ele>
        <time>2014-03-02T10:08:50Z</time>
      </trkpt>
      <trkpt lat="43.69152" lon="3.15162">
        <ele>487.935</ele>
        <time>2014-03-02T10:08:59Z</time>
      </trkpt>
      <trkpt lat="43.69151" lon="3.15168">
        <ele>487.886</ele>
        <time>2014-03-02T10:09:06Z</time>
      </trkpt>
      <trkpt lat="43.69152" lon="3.15174">
        <ele>484.575</ele>
        <time>2014-03-02T10:09:13Z</time>
      </trkpt>
      <trkpt lat="43.69153" lon="3.15179">
        <ele>483.955</ele>
        <time>2014-03-02T10:09:18Z</time>
      </trkpt>
      <trkpt lat="43.69152" lon="3.15188">
        <ele>482.125</ele>
        <time>2014-03-02T10:09:27Z</time>
      </trkpt>
      <trkpt lat="43.69151" lon="3.15195">
        <ele>485.166</ele>
        <time>2014-03-02T10:09:34Z</time>
      </trkpt>
      <trkpt lat="43.69153" lon="3.15198">
        <ele>487.757</ele>
        <time>2014-03-02T10:09:37Z</time>
      </trkpt>
      <trkpt lat="43.6916" lon="3.15207">
        <ele>496.788</ele>
        <time>2014-03-02T10:09:45Z</time>
      </trkpt>
      <trkpt lat="43.69159" lon="3.15215">
        <ele>501.928</ele>
        <time>2014-03-02T10:09:52Z</time>
      </trkpt>
      <trkpt lat="43.69159" lon="3.15218">
        <ele>503.617</ele>
        <time>2014-03-02T10:09:55Z</time>
      </trkpt>
      <trkpt lat="43.69153" lon="3.15224">
        <ele>504.046</ele>
        <time>2014-03-02T10:10:05Z</time>
      </trkpt>
      <trkpt lat="43.69154" lon="3.15226">
        <ele>498.134</ele>
        <time>2014-03-02T10:10:11Z</time>
      </trkpt>
      <trkpt lat="43.69151" lon="3.15228">
        <ele>492.353</ele>
        <time>2014-03-02T10:10:17Z</time>
      </trkpt>
      <trkpt lat="43.69147" lon="3.15234">
        <ele>488.844</ele>
        <time>2014-03-02T10:10:29Z</time>
      </trkpt>
      <trkpt lat="43.69142" lon="3.15233">
        <ele>482.994</ele>
        <time>2014-03-02T10:10:36Z</time>
      </trkpt>
      <trkpt lat="43.69135" lon="3.15236">
        <ele>492.547</ele>
        <time>2014-03-02T10:10:44Z</time>
      </trkpt>
      <trkpt lat="43.69135" lon="3.15238">
        <ele>498.488</ele>
        <time>2014-03-02T10:10:49Z</time>
      </trkpt>
      <trkpt lat="43.69133" lon="3.15243">
        <ele>510.159</ele>
        <time>2014-03-02T10:10:55Z</time>
      </trkpt>
      <trkpt lat="43.69128" lon="3.1525">
        <ele>513.908</ele>
        <time>2014-03-02T10:11:03Z</time>
      </trkpt>
      <trkpt lat="43.69122" lon="3.15258">
        <ele>512.867</ele>
        <time>2014-03-02T10:11:11Z</time>
      </trkpt>
      <trkpt lat="43.69118" lon="3.15264">
        <ele>504.614</ele>
        <time>2014-03-02T10:11:17Z</time>
      </trkpt>
      <trkpt lat="43.69116" lon="3.15267">
        <ele>495.862</ele>
        <time>2014-03-02T10:11:22Z</time>
      </trkpt>
      <trkpt lat="43.69116" lon="3.15269">
        <ele>484.142</ele>
        <time>2014-03-02T10:11:30Z</time>
      </trkpt>
      <trkpt lat="43.69113" lon="3.15271">
        <ele>488.425</ele>
        <time>2014-03-02T10:11:44Z</time>
      </trkpt>
      <trkpt lat="43.69101" lon="3.15257">
        <ele>498.186</ele>
        <time>2014-03-02T10:16:23Z</time>
      </trkpt>
      <trkpt lat="43.69103" lon="3.15267">
        <ele>488.905</ele>
        <time>2014-03-02T10:17:49Z</time>
      </trkpt>
      <trkpt lat="43.69096" lon="3.15264">
        <ele>488.915</ele>
        <time>2014-03-02T10:17:57Z</time>
      </trkpt>
      <trkpt lat="43.69088" lon="3.15258">
        <ele>492.075</ele>
        <time>2014-03-02T10:18:07Z</time>
      </trkpt>
      <trkpt lat="43.69084" lon="3.15257">
        <ele>493.775</ele>
        <time>2014-03-02T10:18:13Z</time>
      </trkpt>
      <trkpt lat="43.69082" lon="3.15251">
        <ele>496.056</ele>
        <time>2014-03-02T10:18:25Z</time>
      </trkpt>
      <trkpt lat="43.69084" lon="3.15247">
        <ele>499.896</ele>
        <time>2014-03-02T10:18:32Z</time>
      </trkpt>
      <trkpt lat="43.69084" lon="3.1524">
        <ele>497.445</ele>
        <time>2014-03-02T10:18:42Z</time>
      </trkpt>
      <trkpt lat="43.69081" lon="3.15239">
        <ele>502.536</ele>
        <time>2014-03-02T10:18:48Z</time>
      </trkpt>
      <trkpt lat="43.69079" lon="3.15232">
        <ele>500.316</ele>
        <time>2014-03-02T10:18:55Z</time>
      </trkpt>
      <trkpt lat="43.69075" lon="3.15226">
        <ele>505.567</ele>
        <time>2014-03-02T10:19:05Z</time>
      </trkpt>
      <trkpt lat="43.69076" lon="3.15219">
        <ele>516.618</ele>
        <time>2014-03-02T10:19:19Z</time>
      </trkpt>
      <trkpt lat="43.69078" lon="3.15214">
        <ele>516.777</ele>
        <time>2014-03-02T10:19:27Z</time>
      </trkpt>
      <trkpt lat="43.69076" lon="3.15209">
        <ele>522.297</ele>
        <time>2014-03-02T10:19:35Z</time>
      </trkpt>
      <trkpt lat="43.69078" lon="3.15193">
        <ele>522.106</ele>
        <time>2014-03-02T10:20:03Z</time>
      </trkpt>
      <trkpt lat="43.69075" lon="3.15184">
        <ele>520.935</ele>
        <time>2014-03-02T10:20:15Z</time>
      </trkpt>
      <trkpt lat="43.6908" lon="3.15177">
        <ele>518.875</ele>
        <time>2014-03-02T10:20:34Z</time>
      </trkpt>
      <trkpt lat="43.69074" lon="3.15177">
        <ele>520.976</ele>
        <time>2014-03-02T10:20:39Z</time>
      </trkpt>
      <trkpt lat="43.69072" lon="3.15175">
        <ele>518.404</ele>
        <time>2014-03-02T10:20:45Z</time>
      </trkpt>
      <trkpt lat="43.69067" lon="3.15166">
        <ele>517.175</ele>
        <time>2014-03-02T10:20:54Z</time>
      </trkpt>
      <trkpt lat="43.69069" lon="3.15154">
        <ele>498.574</ele>
        <time>2014-03-02T10:21:16Z</time>
      </trkpt>
      <trkpt lat="43.69071" lon="3.15147">
        <ele>512.826</ele>
        <time>2014-03-02T10:23:27Z</time>
      </trkpt>
      <trkpt lat="43.69071" lon="3.1514">
        <ele>513.876</ele>
        <time>2014-03-02T10:23:35Z</time>
      </trkpt>
      <trkpt lat="43.69071" lon="3.15137">
        <ele>514.716</ele>
        <time>2014-03-02T10:23:40Z</time>
      </trkpt>
      <trkpt lat="43.69068" lon="3.15132">
        <ele>519.326</ele>
        <time>2014-03-02T10:23:48Z</time>
      </trkpt>
      <trkpt lat="43.69064" lon="3.15127">
        <ele>529.546</ele>
        <time>2014-03-02T10:24:05Z</time>
      </trkpt>
      <trkpt lat="43.69061" lon="3.15123">
        <ele>537.678</ele>
        <time>2014-03-02T10:24:14Z</time>
      </trkpt>
      <trkpt lat="43.69059" lon="3.15122">
        <ele>538.846</ele>
        <time>2014-03-02T10:24:19Z</time>
      </trkpt>
      <trkpt lat="43.69058" lon="3.15119">
        <ele>537.965</ele>
        <time>2014-03-02T10:24:25Z</time>
      </trkpt>
      <trkpt lat="43.69058" lon="3.15115">
        <ele>534.425</ele>
        <time>2014-03-02T10:24:32Z</time>
      </trkpt>
      <trkpt lat="43.69058" lon="3.15108">
        <ele>531.444</ele>
        <time>2014-03-02T10:24:37Z</time>
      </trkpt>
      <trkpt lat="43.69057" lon="3.15105">
        <ele>530.534</ele>
        <time>2014-03-02T10:24:42Z</time>
      </trkpt>
      <trkpt lat="43.69057" lon="3.15099">
        <ele>527.054</ele>
        <time>2014-03-02T10:24:49Z</time>
      </trkpt>
      <trkpt lat="43.69058" lon="3.15095">
        <ele>525.904</ele>
        <time>2014-03-02T10:24:57Z</time>
      </trkpt>
      <trkpt lat="43.69051" lon="3.15086">
        <ele>531.075</ele>
        <time>2014-03-02T10:25:17Z</time>
      </trkpt>
      <trkpt lat="43.6905" lon="3.15084">
        <ele>536.326</ele>
        <time>2014-03-02T10:25:24Z</time>
      </trkpt>
      <trkpt lat="43.69045" lon="3.15083">
        <ele>537.725</ele>
        <time>2014-03-02T10:25:31Z</time>
      </trkpt>
      <trkpt lat="43.69036" lon="3.15068">
        <ele>543.356</ele>
        <time>2014-03-02T10:26:00Z</time>
      </trkpt>
      <trkpt lat="43.69034" lon="3.15064">
        <ele>541.835</ele>
        <time>2014-03-02T10:26:07Z</time>
      </trkpt>
      <trkpt lat="43.69032" lon="3.15058">
        <ele>546.367</ele>
        <time>2014-03-02T10:26:15Z</time>
      </trkpt>
      <trkpt lat="43.6903" lon="3.15048">
        <ele>543.464</ele>
        <time>2014-03-02T10:26:39Z</time>
      </trkpt>
      <trkpt lat="43.69026" lon="3.1504">
        <ele>552.946</ele>
        <time>2014-03-02T10:26:57Z</time>
      </trkpt>
      <trkpt lat="43.69024" lon="3.15035">
        <ele>554.435</ele>
        <time>2014-03-02T10:27:06Z</time>
      </trkpt>
      <trkpt lat="43.69022" lon="3.15029">
        <ele>555.515</ele>
        <time>2014-03-02T10:27:12Z</time>
      </trkpt>
      <trkpt lat="43.69021" lon="3.15025">
        <ele>553.805</ele>
        <time>2014-03-02T10:27:17Z</time>
      </trkpt>
      <trkpt lat="43.6902" lon="3.1502">
        <ele>552.725</ele>
        <time>2014-03-02T10:27:25Z</time>
      </trkpt>
      <trkpt lat="43.6902" lon="3.15012">
        <ele>547.434</ele>
        <time>2014-03-02T10:27:31Z</time>
      </trkpt>
      <trkpt lat="43.69023" lon="3.15007">
        <ele>547.535</ele>
        <time>2014-03-02T10:27:36Z</time>
      </trkpt>
      <trkpt lat="43.69022" lon="3.15002">
        <ele>558.727</ele>
        <time>2014-03-02T10:27:45Z</time>
      </trkpt>
      <trkpt lat="43.6902" lon="3.14997">
        <ele>565.076</ele>
        <time>2014-03-02T10:27:53Z</time>
      </trkpt>
      <trkpt lat="43.6902" lon="3.14992">
        <ele>562.345</ele>
        <time>2014-03-02T10:28:00Z</time>
      </trkpt>
      <trkpt lat="43.69016" lon="3.14984">
        <ele>569.555</ele>
        <time>2014-03-02T10:28:13Z</time>
      </trkpt>
      <trkpt lat="43.69013" lon="3.14976">
        <ele>562.084</ele>
        <time>2014-03-02T10:28:26Z</time>
      </trkpt>
      <trkpt lat="43.69011" lon="3.14974">
        <ele>560.814</ele>
        <time>2014-03-02T10:28:35Z</time>
      </trkpt>
      <trkpt lat="43.69008" lon="3.14974">
        <ele>564.974</ele>
        <time>2014-03-02T10:28:52Z</time>
      </trkpt>
      <trkpt lat="43.69008" lon="3.14976">
        <ele>561.054</ele>
        <time>2014-03-02T10:29:00Z</time>
      </trkpt>
      <trkpt lat="43.69008" lon="3.14975">
        <ele>565.454</ele>
        <time>2014-03-02T10:29:07Z</time>
      </trkpt>
      <trkpt lat="43.69001" lon="3.14969">
        <ele>586.147</ele>
        <time>2014-03-02T10:29:30Z</time>
      </trkpt>
      <trkpt lat="43.68997" lon="3.14967">
        <ele>589.976</ele>
        <time>2014-03-02T10:29:39Z</time>
      </trkpt>
      <trkpt lat="43.68992" lon="3.14956">
        <ele>591.996</ele>
        <time>2014-03-02T10:29:56Z</time>
      </trkpt>
      <trkpt lat="43.68992" lon="3.14948">
        <ele>586.534</ele>
        <time>2014-03-02T10:30:03Z</time>
      </trkpt>
      <trkpt lat="43.6899" lon="3.14941">
        <ele>587.965</ele>
        <time>2014-03-02T10:30:11Z</time>
      </trkpt>
      <trkpt lat="43.68989" lon="3.14936">
        <ele>594.976</ele>
        <time>2014-03-02T10:30:18Z</time>
      </trkpt>
      <trkpt lat="43.68989" lon="3.14932">
        <ele>602.057</ele>
        <time>2014-03-02T10:30:23Z</time>
      </trkpt>
      <trkpt lat="43.68989" lon="3.14928">
        <ele>602.836</ele>
        <time>2014-03-02T10:30:29Z</time>
      </trkpt>
      <trkpt lat="43.68989" lon="3.14923">
        <ele>601.535</ele>
        <time>2014-03-02T10:30:35Z</time>
      </trkpt>
      <trkpt lat="43.68991" lon="3.14908">
        <ele>592.393</ele>
        <time>2014-03-02T10:30:50Z</time>
      </trkpt>
      <trkpt lat="43.68992" lon="3.14899">
        <ele>584.913</ele>
        <time>2014-03-02T10:30:59Z</time>
      </trkpt>
      <trkpt lat="43.68993" lon="3.14893">
        <ele>588.795</ele>
        <time>2014-03-02T10:31:05Z</time>
      </trkpt>
      <trkpt lat="43.68996" lon="3.14887">
        <ele>587.574</ele>
        <time>2014-03-02T10:31:11Z</time>
      </trkpt>
      <trkpt lat="43.68994" lon="3.1488">
        <ele>581.974</ele>
        <time>2014-03-02T10:31:18Z</time>
      </trkpt>
      <trkpt lat="43.68996" lon="3.14872">
        <ele>575.493</ele>
        <time>2014-03-02T10:31:27Z</time>
      </trkpt>
      <trkpt lat="43.68996" lon="3.1487">
        <ele>583.275</ele>
        <time>2014-03-02T10:31:34Z</time>
      </trkpt>
      <trkpt lat="43.69003" lon="3.14859">
        <ele>574.013</ele>
        <time>2014-03-02T10:31:44Z</time>
      </trkpt>
      <trkpt lat="43.69008" lon="3.14847">
        <ele>582.014</ele>
        <time>2014-03-02T10:32:09Z</time>
      </trkpt>
      <trkpt lat="43.69017" lon="3.14836">
        <ele>578.295</ele>
        <time>2014-03-02T10:32:28Z</time>
      </trkpt>
      <trkpt lat="43.6902" lon="3.14815">
        <ele>612.156</ele>
        <time>2014-03-02T10:33:37Z</time>
      </trkpt>
      <trkpt lat="43.69021" lon="3.14807">
        <ele>612.625</ele>
        <time>2014-03-02T10:33:52Z</time>
      </trkpt>
      <trkpt lat="43.69024" lon="3.14793">
        <ele>621.215</ele>
        <time>2014-03-02T10:34:25Z</time>
      </trkpt>
      <trkpt lat="43.69027" lon="3.14787">
        <ele>618.464</ele>
        <time>2014-03-02T10:34:37Z</time>
      </trkpt>
      <trkpt lat="43.69031" lon="3.14778">
        <ele>614.615</ele>
        <time>2014-03-02T10:34:59Z</time>
      </trkpt>
      <trkpt lat="43.69031" lon="3.14774">
        <ele>621.185</ele>
        <time>2014-03-02T10:35:10Z</time>
      </trkpt>
      <trkpt lat="43.6903" lon="3.1477">
        <ele>623.406</ele>
        <time>2014-03-02T10:35:16Z</time>
      </trkpt>
      <trkpt lat="43.6903" lon="3.14754">
        <ele>633.495</ele>
        <time>2014-03-02T10:35:41Z</time>
      </trkpt>
      <trkpt lat="43.69034" lon="3.14734">
        <ele>613.762</ele>
        <time>2014-03-02T10:35:54Z</time>
      </trkpt>
      <trkpt lat="43.69042" lon="3.14714">
        <ele>622.645</ele>
        <time>2014-03-02T10:36:26Z</time>
      </trkpt>
      <trkpt lat="43.69042" lon="3.14709">
        <ele>626.445</ele>
        <time>2014-03-02T10:36:35Z</time>
      </trkpt>
      <trkpt lat="43.69045" lon="3.14694">
        <ele>640.063</ele>
        <time>2014-03-02T10:37:10Z</time>
      </trkpt>
      <trkpt lat="43.69049" lon="3.14682">
        <ele>633.263</ele>
        <time>2014-03-02T10:37:21Z</time>
      </trkpt>
      <trkpt lat="43.6905" lon="3.14673">
        <ele>640.615</ele>
        <time>2014-03-02T10:37:39Z</time>
      </trkpt>
      <trkpt lat="43.69051" lon="3.14668">
        <ele>638.794</ele>
        <time>2014-03-02T10:37:44Z</time>
      </trkpt>
      <trkpt lat="43.69053" lon="3.14658">
        <ele>641.515</ele>
        <time>2014-03-02T10:37:54Z</time>
      </trkpt>
      <trkpt lat="43.69055" lon="3.14649">
        <ele>646.565</ele>
        <time>2014-03-02T10:38:04Z</time>
      </trkpt>
      <trkpt lat="43.69057" lon="3.14638">
        <ele>640.774</ele>
        <time>2014-03-02T10:38:16Z</time>
      </trkpt>
      <trkpt lat="43.69059" lon="3.14629">
        <ele>641.434</ele>
        <time>2014-03-02T10:38:27Z</time>
      </trkpt>
      <trkpt lat="43.69059" lon="3.14618">
        <ele>648.866</ele>
        <time>2014-03-02T10:38:42Z</time>
      </trkpt>
      <trkpt lat="43.69058" lon="3.14613">
        <ele>648.415</ele>
        <time>2014-03-02T10:38:47Z</time>
      </trkpt>
      <trkpt lat="43.69059" lon="3.14609">
        <ele>648.144</ele>
        <time>2014-03-02T10:38:55Z</time>
      </trkpt>
      <trkpt lat="43.69059" lon="3.14588">
        <ele>658.514</ele>
        <time>2014-03-02T10:39:22Z</time>
      </trkpt>
      <trkpt lat="43.69066" lon="3.1457">
        <ele>641.702</ele>
        <time>2014-03-02T10:39:38Z</time>
      </trkpt>
      <trkpt lat="43.6907" lon="3.14562">
        <ele>634.012</ele>
        <time>2014-03-02T10:39:44Z</time>
      </trkpt>
      <trkpt lat="43.69071" lon="3.14555">
        <ele>633.963</ele>
        <time>2014-03-02T10:39:51Z</time>
      </trkpt>
      <trkpt lat="43.69072" lon="3.14556">
        <ele>639.945</ele>
        <time>2014-03-02T10:39:58Z</time>
      </trkpt>
      <trkpt lat="43.69079" lon="3.1454">
        <ele>638.383</ele>
        <time>2014-03-02T10:40:17Z</time>
      </trkpt>
      <trkpt lat="43.69081" lon="3.14536">
        <ele>638.974</ele>
        <time>2014-03-02T10:40:23Z</time>
      </trkpt>
      <trkpt lat="43.69086" lon="3.14532">
        <ele>648.026</ele>
        <time>2014-03-02T10:40:34Z</time>
      </trkpt>
      <trkpt lat="43.69091" lon="3.14529">
        <ele>655.356</ele>
        <time>2014-03-02T10:40:43Z</time>
      </trkpt>
      <trkpt lat="43.69099" lon="3.14507">
        <ele>651.283</ele>
        <time>2014-03-02T10:41:10Z</time>
      </trkpt>
      <trkpt lat="43.69101" lon="3.14501">
        <ele>644.343</ele>
        <time>2014-03-02T10:41:14Z</time>
      </trkpt>
      <trkpt lat="43.69102" lon="3.14494">
        <ele>643.343</ele>
        <time>2014-03-02T10:41:21Z</time>
      </trkpt>
      <trkpt lat="43.69114" lon="3.14475">
        <ele>645.903</ele>
        <time>2014-03-02T10:41:49Z</time>
      </trkpt>
      <trkpt lat="43.69118" lon="3.14447">
        <ele>603.454</ele>
        <time>2014-03-02T10:45:30Z</time>
      </trkpt>
      <trkpt lat="43.69124" lon="3.14465">
        <ele>642.873</ele>
        <time>2014-03-02T10:47:08Z</time>
      </trkpt>
      <trkpt lat="43.6912" lon="3.14468">
        <ele>641.684</ele>
        <time>2014-03-02T10:47:14Z</time>
      </trkpt>
      <trkpt lat="43.69119" lon="3.14472">
        <ele>637.753</ele>
        <time>2014-03-02T10:47:21Z</time>
      </trkpt>
      <trkpt lat="43.69114" lon="3.1448">
        <ele>635.383</ele>
        <time>2014-03-02T10:47:30Z</time>
      </trkpt>
      <trkpt lat="43.69112" lon="3.14486">
        <ele>634.544</ele>
        <time>2014-03-02T10:47:36Z</time>
      </trkpt>
      <trkpt lat="43.69114" lon="3.14476">
        <ele>642.773</ele>
        <time>2014-03-02T10:48:11Z</time>
      </trkpt>
      <trkpt lat="43.69114" lon="3.14439">
        <ele>659.835</ele>
        <time>2014-03-02T10:50:51Z</time>
      </trkpt>
      <trkpt lat="43.69113" lon="3.14428">
        <ele>661.775</ele>
        <time>2014-03-02T10:50:59Z</time>
      </trkpt>
      <trkpt lat="43.69114" lon="3.1442">
        <ele>662.414</ele>
        <time>2014-03-02T10:51:05Z</time>
      </trkpt>
      <trkpt lat="43.69113" lon="3.14412">
        <ele>661.653</ele>
        <time>2014-03-02T10:51:11Z</time>
      </trkpt>
      <trkpt lat="43.69114" lon="3.14394">
        <ele>654.222</ele>
        <time>2014-03-02T10:51:21Z</time>
      </trkpt>
      <trkpt lat="43.69113" lon="3.14388">
        <ele>657.913</ele>
        <time>2014-03-02T10:51:27Z</time>
      </trkpt>
      <trkpt lat="43.69113" lon="3.14381">
        <ele>659.024</ele>
        <time>2014-03-02T10:51:31Z</time>
      </trkpt>
      <trkpt lat="43.69113" lon="3.14373">
        <ele>657.793</ele>
        <time>2014-03-02T10:51:36Z</time>
      </trkpt>
      <trkpt lat="43.69113" lon="3.14371">
        <ele>658.073</ele>
        <time>2014-03-02T10:51:37Z</time>
      </trkpt>
      <trkpt lat="43.69112" lon="3.14367">
        <ele>658.954</ele>
        <time>2014-03-02T10:51:40Z</time>
      </trkpt>
      <trkpt lat="43.69111" lon="3.14357">
        <ele>664.805</ele>
        <time>2014-03-02T10:51:48Z</time>
      </trkpt>
      <trkpt lat="43.69111" lon="3.1435">
        <ele>668.534</ele>
        <time>2014-03-02T10:51:54Z</time>
      </trkpt>
      <trkpt lat="43.6911" lon="3.14343">
        <ele>670.334</ele>
        <time>2014-03-02T10:51:59Z</time>
      </trkpt>
      <trkpt lat="43.69111" lon="3.14333">
        <ele>668.023</ele>
        <time>2014-03-02T10:52:04Z</time>
      </trkpt>
      <trkpt lat="43.69113" lon="3.14314">
        <ele>661.673</ele>
        <time>2014-03-02T10:52:13Z</time>
      </trkpt>
      <trkpt lat="43.69118" lon="3.14303">
        <ele>660.223</ele>
        <time>2014-03-02T10:52:20Z</time>
      </trkpt>
      <trkpt lat="43.6912" lon="3.14292">
        <ele>653.103</ele>
        <time>2014-03-02T10:52:26Z</time>
      </trkpt>
      <trkpt lat="43.69121" lon="3.14284">
        <ele>649.523</ele>
        <time>2014-03-02T10:52:31Z</time>
      </trkpt>
      <trkpt lat="43.69122" lon="3.14281">
        <ele>648.873</ele>
        <time>2014-03-02T10:52:33Z</time>
      </trkpt>
      <trkpt lat="43.69128" lon="3.14269">
        <ele>643.792</ele>
        <time>2014-03-02T10:52:40Z</time>
      </trkpt>
      <trkpt lat="43.6913" lon="3.1426">
        <ele>643.733</ele>
        <time>2014-03-02T10:52:46Z</time>
      </trkpt>
      <trkpt lat="43.69132" lon="3.14253">
        <ele>642.783</ele>
        <time>2014-03-02T10:52:50Z</time>
      </trkpt>
      <trkpt lat="43.69134" lon="3.14246">
        <ele>642.263</ele>
        <time>2014-03-02T10:52:55Z</time>
      </trkpt>
      <trkpt lat="43.69137" lon="3.14234">
        <ele>643.904</ele>
        <time>2014-03-02T10:53:02Z</time>
      </trkpt>
      <trkpt lat="43.69137" lon="3.14232">
        <ele>644.994</ele>
        <time>2014-03-02T10:53:04Z</time>
      </trkpt>
      <trkpt lat="43.69139" lon="3.1422">
        <ele>647.134</ele>
        <time>2014-03-02T10:53:12Z</time>
      </trkpt>
      <trkpt lat="43.69142" lon="3.1421">
        <ele>647.304</ele>
        <time>2014-03-02T10:53:19Z</time>
      </trkpt>
      <trkpt lat="43.69149" lon="3.14198">
        <ele>640.062</ele>
        <time>2014-03-02T10:53:28Z</time>
      </trkpt>
      <trkpt lat="43.69151" lon="3.14191">
        <ele>640.993</ele>
        <time>2014-03-02T10:53:34Z</time>
      </trkpt>
      <trkpt lat="43.69152" lon="3.14185">
        <ele>645.023</ele>
        <time>2014-03-02T10:53:40Z</time>
      </trkpt>
      <trkpt lat="43.69151" lon="3.14178">
        <ele>646.543</ele>
        <time>2014-03-02T10:53:46Z</time>
      </trkpt>
      <trkpt lat="43.69156" lon="3.14165">
        <ele>643.563</ele>
        <time>2014-03-02T10:53:53Z</time>
      </trkpt>
      <trkpt lat="43.69161" lon="3.14154">
        <ele>645.074</ele>
        <time>2014-03-02T10:54:01Z</time>
      </trkpt>
      <trkpt lat="43.69164" lon="3.14147">
        <ele>645.534</ele>
        <time>2014-03-02T10:54:06Z</time>
      </trkpt>
      <trkpt lat="43.69167" lon="3.14141">
        <ele>648.424</ele>
        <time>2014-03-02T10:54:11Z</time>
      </trkpt>
      <trkpt lat="43.69169" lon="3.14138">
        <ele>648.114</ele>
        <time>2014-03-02T10:54:13Z</time>
      </trkpt>
      <trkpt lat="43.69173" lon="3.1413">
        <ele>647.274</ele>
        <time>2014-03-02T10:54:19Z</time>
      </trkpt>
      <trkpt lat="43.69179" lon="3.1412">
        <ele>642.742</ele>
        <time>2014-03-02T10:54:28Z</time>
      </trkpt>
      <trkpt lat="43.69185" lon="3.14115">
        <ele>646.843</ele>
        <time>2014-03-02T10:54:42Z</time>
      </trkpt>
      <trkpt lat="43.69187" lon="3.1411">
        <ele>647.313</ele>
        <time>2014-03-02T10:54:46Z</time>
      </trkpt>
      <trkpt lat="43.69187" lon="3.14105">
        <ele>644.853</ele>
        <time>2014-03-02T10:54:51Z</time>
      </trkpt>
      <trkpt lat="43.6919" lon="3.14097">
        <ele>640.773</ele>
        <time>2014-03-02T10:54:57Z</time>
      </trkpt>
      <trkpt lat="43.69194" lon="3.14092">
        <ele>639.622</ele>
        <time>2014-03-02T10:55:02Z</time>
      </trkpt>
      <trkpt lat="43.69198" lon="3.14085">
        <ele>640.513</ele>
        <time>2014-03-02T10:55:08Z</time>
      </trkpt>
      <trkpt lat="43.69199" lon="3.14082">
        <ele>639.552</ele>
        <time>2014-03-02T10:55:10Z</time>
      </trkpt>
      <trkpt lat="43.69206" lon="3.14074">
        <ele>644.734</ele>
        <time>2014-03-02T10:55:17Z</time>
      </trkpt>
      <trkpt lat="43.69217" lon="3.14058">
        <ele>634.862</ele>
        <time>2014-03-02T10:55:27Z</time>
      </trkpt>
      <trkpt lat="43.6922" lon="3.14052">
        <ele>634.922</ele>
        <time>2014-03-02T10:55:33Z</time>
      </trkpt>
      <trkpt lat="43.69224" lon="3.14045">
        <ele>636.763</ele>
        <time>2014-03-02T10:55:39Z</time>
      </trkpt>
      <trkpt lat="43.69231" lon="3.14037">
        <ele>632.433</ele>
        <time>2014-03-02T10:55:47Z</time>
      </trkpt>
      <trkpt lat="43.69233" lon="3.14032">
        <ele>631.953</ele>
        <time>2014-03-02T10:55:53Z</time>
      </trkpt>
      <trkpt lat="43.69238" lon="3.14025">
        <ele>635.644</ele>
        <time>2014-03-02T10:56:00Z</time>
      </trkpt>
      <trkpt lat="43.69242" lon="3.1402">
        <ele>637.564</ele>
        <time>2014-03-02T10:56:05Z</time>
      </trkpt>
      <trkpt lat="43.69245" lon="3.14012">
        <ele>639.644</ele>
        <time>2014-03-02T10:56:11Z</time>
      </trkpt>
      <trkpt lat="43.69251" lon="3.14006">
        <ele>640.654</ele>
        <time>2014-03-02T10:56:17Z</time>
      </trkpt>
      <trkpt lat="43.69256" lon="3.14">
        <ele>636.993</ele>
        <time>2014-03-02T10:56:23Z</time>
      </trkpt>
      <trkpt lat="43.69259" lon="3.13994">
        <ele>635.223</ele>
        <time>2014-03-02T10:56:27Z</time>
      </trkpt>
      <trkpt lat="43.69268" lon="3.13981">
        <ele>625.712</ele>
        <time>2014-03-02T10:56:35Z</time>
      </trkpt>
      <trkpt lat="43.69273" lon="3.13974">
        <ele>623.882</ele>
        <time>2014-03-02T10:56:40Z</time>
      </trkpt>
      <trkpt lat="43.69281" lon="3.13963">
        <ele>612.671</ele>
        <time>2014-03-02T10:56:47Z</time>
      </trkpt>
      <trkpt lat="43.69283" lon="3.13957">
        <ele>615.112</ele>
        <time>2014-03-02T10:56:54Z</time>
      </trkpt>
      <trkpt lat="43.69283" lon="3.13957">
        <ele>619.123</ele>
        <time>2014-03-02T10:56:58Z</time>
      </trkpt>
      <trkpt lat="43.69285" lon="3.1395">
        <ele>620.703</ele>
        <time>2014-03-02T10:57:03Z</time>
      </trkpt>
      <trkpt lat="43.6929" lon="3.13942">
        <ele>616.972</ele>
        <time>2014-03-02T10:57:09Z</time>
      </trkpt>
      <trkpt lat="43.69294" lon="3.13934">
        <ele>617.002</ele>
        <time>2014-03-02T10:57:15Z</time>
      </trkpt>
      <trkpt lat="43.69299" lon="3.13925">
        <ele>611.922</ele>
        <time>2014-03-02T10:57:20Z</time>
      </trkpt>
      <trkpt lat="43.69309" lon="3.13917">
        <ele>610.982</ele>
        <time>2014-03-02T10:57:28Z</time>
      </trkpt>
      <trkpt lat="43.69317" lon="3.13912">
        <ele>609.542</ele>
        <time>2014-03-02T10:57:35Z</time>
      </trkpt>
      <trkpt lat="43.69323" lon="3.13907">
        <ele>609.763</ele>
        <time>2014-03-02T10:57:42Z</time>
      </trkpt>
      <trkpt lat="43.69329" lon="3.13901">
        <ele>606.272</ele>
        <time>2014-03-02T10:57:48Z</time>
      </trkpt>
      <trkpt lat="43.69334" lon="3.13896">
        <ele>600.621</ele>
        <time>2014-03-02T10:57:54Z</time>
      </trkpt>
      <trkpt lat="43.69335" lon="3.13894">
        <ele>598.271</ele>
        <time>2014-03-02T10:57:56Z</time>
      </trkpt>
      <trkpt lat="43.69343" lon="3.1389">
        <ele>598.642</ele>
        <time>2014-03-02T10:58:04Z</time>
      </trkpt>
      <trkpt lat="43.6935" lon="3.13889">
        <ele>600.683</ele>
        <time>2014-03-02T10:58:11Z</time>
      </trkpt>
      <trkpt lat="43.69356" lon="3.13886">
        <ele>603.793</ele>
        <time>2014-03-02T10:58:18Z</time>
      </trkpt>
      <trkpt lat="43.69359" lon="3.13885">
        <ele>608.674</ele>
        <time>2014-03-02T10:58:24Z</time>
      </trkpt>
      <trkpt lat="43.69364" lon="3.13883">
        <ele>614.174</ele>
        <time>2014-03-02T10:58:30Z</time>
      </trkpt>
      <trkpt lat="43.6937" lon="3.13876">
        <ele>614.233</ele>
        <time>2014-03-02T10:58:37Z</time>
      </trkpt>
      <trkpt lat="43.69375" lon="3.13869">
        <ele>613.413</ele>
        <time>2014-03-02T10:58:44Z</time>
      </trkpt>
      <trkpt lat="43.69381" lon="3.13866">
        <ele>620.265</ele>
        <time>2014-03-02T10:58:50Z</time>
      </trkpt>
      <trkpt lat="43.69385" lon="3.1386">
        <ele>620.193</ele>
        <time>2014-03-02T10:58:55Z</time>
      </trkpt>
      <trkpt lat="43.69388" lon="3.13856">
        <ele>624.014</ele>
        <time>2014-03-02T10:59:02Z</time>
      </trkpt>
      <trkpt lat="43.69388" lon="3.13853">
        <ele>629.055</ele>
        <time>2014-03-02T10:59:07Z</time>
      </trkpt>
      <trkpt lat="43.69393" lon="3.13849">
        <ele>633.175</ele>
        <time>2014-03-02T10:59:14Z</time>
      </trkpt>
      <trkpt lat="43.69395" lon="3.13845">
        <ele>639.605</ele>
        <time>2014-03-02T10:59:19Z</time>
      </trkpt>
      <trkpt lat="43.69397" lon="3.1384">
        <ele>642.364</ele>
        <time>2014-03-02T10:59:25Z</time>
      </trkpt>
      <trkpt lat="43.694" lon="3.13836">
        <ele>643.563</ele>
        <time>2014-03-02T10:59:30Z</time>
      </trkpt>
      <trkpt lat="43.69406" lon="3.13829">
        <ele>645.654</ele>
        <time>2014-03-02T10:59:37Z</time>
      </trkpt>
      <trkpt lat="43.69411" lon="3.13815">
        <ele>624.789</ele>
        <time>2014-03-02T10:59:43Z</time>
      </trkpt>
      <trkpt lat="43.69414" lon="3.13812">
        <ele>619.789</ele>
        <time>2014-03-02T10:59:48Z</time>
      </trkpt>
      <trkpt lat="43.69416" lon="3.1381">
        <ele>621.041</ele>
        <time>2014-03-02T10:59:54Z</time>
      </trkpt>
      <trkpt lat="43.6942" lon="3.13805">
        <ele>620.852</ele>
        <time>2014-03-02T11:00:00Z</time>
      </trkpt>
      <trkpt lat="43.69422" lon="3.13799">
        <ele>630.383</ele>
        <time>2014-03-02T11:00:07Z</time>
      </trkpt>
      <trkpt lat="43.69424" lon="3.13796">
        <ele>641.675</ele>
        <time>2014-03-02T11:00:13Z</time>
      </trkpt>
      <trkpt lat="43.69429" lon="3.13784">
        <ele>645.124</ele>
        <time>2014-03-02T11:00:24Z</time>
      </trkpt>
      <trkpt lat="43.69432" lon="3.1378">
        <ele>652.725</ele>
        <time>2014-03-02T11:00:31Z</time>
      </trkpt>
      <trkpt lat="43.69435" lon="3.13776">
        <ele>656.165</ele>
        <time>2014-03-02T11:00:37Z</time>
      </trkpt>
      <trkpt lat="43.69439" lon="3.13771">
        <ele>657.864</ele>
        <time>2014-03-02T11:00:43Z</time>
      </trkpt>
      <trkpt lat="43.69446" lon="3.13752">
        <ele>639.251</ele>
        <time>2014-03-02T11:01:01Z</time>
      </trkpt>
      <trkpt lat="43.69449" lon="3.13745">
        <ele>636.432</ele>
        <time>2014-03-02T11:01:07Z</time>
      </trkpt>
      <trkpt lat="43.6945" lon="3.13739">
        <ele>639.874</ele>
        <time>2014-03-02T11:01:15Z</time>
      </trkpt>
      <trkpt lat="43.69449" lon="3.13733">
        <ele>652.495</ele>
        <time>2014-03-02T11:01:26Z</time>
      </trkpt>
      <trkpt lat="43.69447" lon="3.13732">
        <ele>658.556</ele>
        <time>2014-03-02T11:01:32Z</time>
      </trkpt>
      <trkpt lat="43.69445" lon="3.13727">
        <ele>660.664</ele>
        <time>2014-03-02T11:01:40Z</time>
      </trkpt>
      <trkpt lat="43.69444" lon="3.13704">
        <ele>657.083</ele>
        <time>2014-03-02T11:04:18Z</time>
      </trkpt>
      <trkpt lat="43.69444" lon="3.13698">
        <ele>661.285</ele>
        <time>2014-03-02T11:04:25Z</time>
      </trkpt>
      <trkpt lat="43.69443" lon="3.13687">
        <ele>665.224</ele>
        <time>2014-03-02T11:04:35Z</time>
      </trkpt>
      <trkpt lat="43.69443" lon="3.13678">
        <ele>667.844</ele>
        <time>2014-03-02T11:04:42Z</time>
      </trkpt>
      <trkpt lat="43.69442" lon="3.13668">
        <ele>667.884</ele>
        <time>2014-03-02T11:04:51Z</time>
      </trkpt>
      <trkpt lat="43.69445" lon="3.13658">
        <ele>665.283</ele>
        <time>2014-03-02T11:04:58Z</time>
      </trkpt>
      <trkpt lat="43.69445" lon="3.1365">
        <ele>664.993</ele>
        <time>2014-03-02T11:05:04Z</time>
      </trkpt>
      <trkpt lat="43.69446" lon="3.13641">
        <ele>665.393</ele>
        <time>2014-03-02T11:05:11Z</time>
      </trkpt>
      <trkpt lat="43.69448" lon="3.1363">
        <ele>666.344</ele>
        <time>2014-03-02T11:05:19Z</time>
      </trkpt>
      <trkpt lat="43.6945" lon="3.13618">
        <ele>665.494</ele>
        <time>2014-03-02T11:05:27Z</time>
      </trkpt>
      <trkpt lat="43.69452" lon="3.13608">
        <ele>664.284</ele>
        <time>2014-03-02T11:05:35Z</time>
      </trkpt>
      <trkpt lat="43.69451" lon="3.13602">
        <ele>665.874</ele>
        <time>2014-03-02T11:05:41Z</time>
      </trkpt>
      <trkpt lat="43.69451" lon="3.13593">
        <ele>667.905</ele>
        <time>2014-03-02T11:05:49Z</time>
      </trkpt>
      <trkpt lat="43.69453" lon="3.13585">
        <ele>666.133</ele>
        <time>2014-03-02T11:05:59Z</time>
      </trkpt>
      <trkpt lat="43.69453" lon="3.13578">
        <ele>666.683</ele>
        <time>2014-03-02T11:06:04Z</time>
      </trkpt>
      <trkpt lat="43.69452" lon="3.13567">
        <ele>669.234</ele>
        <time>2014-03-02T11:06:12Z</time>
      </trkpt>
      <trkpt lat="43.69452" lon="3.13558">
        <ele>671.025</ele>
        <time>2014-03-02T11:06:19Z</time>
      </trkpt>
      <trkpt lat="43.69451" lon="3.1355">
        <ele>671.454</ele>
        <time>2014-03-02T11:06:24Z</time>
      </trkpt>
      <trkpt lat="43.6945" lon="3.13541">
        <ele>671.673</ele>
        <time>2014-03-02T11:06:30Z</time>
      </trkpt>
      <trkpt lat="43.69449" lon="3.13531">
        <ele>670.322</ele>
        <time>2014-03-02T11:06:38Z</time>
      </trkpt>
      <trkpt lat="43.69449" lon="3.13523">
        <ele>668.063</ele>
        <time>2014-03-02T11:06:44Z</time>
      </trkpt>
      <trkpt lat="43.69448" lon="3.1351">
        <ele>669.403</ele>
        <time>2014-03-02T11:06:52Z</time>
      </trkpt>
      <trkpt lat="43.69448" lon="3.13499">
        <ele>670.194</ele>
        <time>2014-03-02T11:07:01Z</time>
      </trkpt>
      <trkpt lat="43.69446" lon="3.13488">
        <ele>672.334</ele>
        <time>2014-03-02T11:07:08Z</time>
      </trkpt>
      <trkpt lat="43.69443" lon="3.13479">
        <ele>675.314</ele>
        <time>2014-03-02T11:07:15Z</time>
      </trkpt>
      <trkpt lat="43.69441" lon="3.13469">
        <ele>673.623</ele>
        <time>2014-03-02T11:07:22Z</time>
      </trkpt>
      <trkpt lat="43.69437" lon="3.13462">
        <ele>674.984</ele>
        <time>2014-03-02T11:07:29Z</time>
      </trkpt>
      <trkpt lat="43.69432" lon="3.13458">
        <ele>675.255</ele>
        <time>2014-03-02T11:07:36Z</time>
      </trkpt>
      <trkpt lat="43.69428" lon="3.13453">
        <ele>674.393</ele>
        <time>2014-03-02T11:07:42Z</time>
      </trkpt>
      <trkpt lat="43.69422" lon="3.13447">
        <ele>673.223</ele>
        <time>2014-03-02T11:07:49Z</time>
      </trkpt>
      <trkpt lat="43.69418" lon="3.13439">
        <ele>671.562</ele>
        <time>2014-03-02T11:07:55Z</time>
      </trkpt>
      <trkpt lat="43.69415" lon="3.13433">
        <ele>669.691</ele>
        <time>2014-03-02T11:08:01Z</time>
      </trkpt>
      <trkpt lat="43.69412" lon="3.13429">
        <ele>667.321</ele>
        <time>2014-03-02T11:08:07Z</time>
      </trkpt>
      <trkpt lat="43.6941" lon="3.13425">
        <ele>668.362</ele>
        <time>2014-03-02T11:08:11Z</time>
      </trkpt>
      <trkpt lat="43.69404" lon="3.13419">
        <ele>668.492</ele>
        <time>2014-03-02T11:08:18Z</time>
      </trkpt>
      <trkpt lat="43.69399" lon="3.13414">
        <ele>669.862</ele>
        <time>2014-03-02T11:08:25Z</time>
      </trkpt>
      <trkpt lat="43.69394" lon="3.13409">
        <ele>672.493</ele>
        <time>2014-03-02T11:08:32Z</time>
      </trkpt>
      <trkpt lat="43.69388" lon="3.13403">
        <ele>672.932</ele>
        <time>2014-03-02T11:08:40Z</time>
      </trkpt>
      <trkpt lat="43.69383" lon="3.13396">
        <ele>671.051</ele>
        <time>2014-03-02T11:08:47Z</time>
      </trkpt>
      <trkpt lat="43.69379" lon="3.1339">
        <ele>671.291</ele>
        <time>2014-03-02T11:08:54Z</time>
      </trkpt>
      <trkpt lat="43.69375" lon="3.13384">
        <ele>670.971</ele>
        <time>2014-03-02T11:09:00Z</time>
      </trkpt>
      <trkpt lat="43.69374" lon="3.13365">
        <ele>661.832</ele>
        <time>2014-03-02T11:09:35Z</time>
      </trkpt>
      <trkpt lat="43.69377" lon="3.13364">
        <ele>662.442</ele>
        <time>2014-03-02T11:09:44Z</time>
      </trkpt>
      <trkpt lat="43.69379" lon="3.13363">
        <ele>661.201</ele>
        <time>2014-03-02T11:09:59Z</time>
      </trkpt>
      <trkpt lat="43.6938" lon="3.13372">
        <ele>670.382</ele>
        <time>2014-03-02T11:10:59Z</time>
      </trkpt>
      <trkpt lat="43.6938" lon="3.13367">
        <ele>672.263</ele>
        <time>2014-03-02T11:11:18Z</time>
      </trkpt>
      <trkpt lat="43.69379" lon="3.13367">
        <ele>680.172</ele>
        <time>2014-03-02T11:11:34Z</time>
      </trkpt>
      <trkpt lat="43.69381" lon="3.13369">
        <ele>673.351</ele>
        <time>2014-03-02T11:11:43Z</time>
      </trkpt>
      <trkpt lat="43.6938" lon="3.13368">
        <ele>663.947</ele>
        <time>2014-03-02T11:11:50Z</time>
      </trkpt>
      <trkpt lat="43.69378" lon="3.13358">
        <ele>659.09</ele>
        <time>2014-03-02T11:12:01Z</time>
      </trkpt>
      <trkpt lat="43.69374" lon="3.13359">
        <ele>665.422</ele>
        <time>2014-03-02T11:12:23Z</time>
      </trkpt>
      <trkpt lat="43.69382" lon="3.13356">
        <ele>652.638</ele>
        <time>2014-03-02T11:12:51Z</time>
      </trkpt>
      <trkpt lat="43.69382" lon="3.13354">
        <ele>649.088</ele>
        <time>2014-03-02T11:12:54Z</time>
      </trkpt>
      <trkpt lat="43.69385" lon="3.1335">
        <ele>642.259</ele>
        <time>2014-03-02T11:13:01Z</time>
      </trkpt>
      <trkpt lat="43.69379" lon="3.13359">
        <ele>645.441</ele>
        <time>2014-03-02T11:13:17Z</time>
      </trkpt>
      <trkpt lat="43.69372" lon="3.13364">
        <ele>653.853</ele>
        <time>2014-03-02T11:13:28Z</time>
      </trkpt>
      <trkpt lat="43.69372" lon="3.1336">
        <ele>667.085</ele>
        <time>2014-03-02T11:13:41Z</time>
      </trkpt>
      <trkpt lat="43.69376" lon="3.1336">
        <ele>663.563</ele>
        <time>2014-03-02T11:13:49Z</time>
      </trkpt>
      <trkpt lat="43.69379" lon="3.13359">
        <ele>657.301</ele>
        <time>2014-03-02T11:13:56Z</time>
      </trkpt>
      <trkpt lat="43.69381" lon="3.13353">
        <ele>665.581</ele>
        <time>2014-03-02T11:15:49Z</time>
      </trkpt>
      <trkpt lat="43.69382" lon="3.13357">
        <ele>667.581</ele>
        <time>2014-03-02T11:19:10Z</time>
      </trkpt>
      <trkpt lat="43.69381" lon="3.13355">
        <ele>662.012</ele>
        <time>2014-03-02T11:19:44Z</time>
      </trkpt>
      <trkpt lat="43.69383" lon="3.13357">
        <ele>666.284</ele>
        <time>2014-03-02T11:19:50Z</time>
      </trkpt>
      <trkpt lat="43.69385" lon="3.13357">
        <ele>659.951</ele>
        <time>2014-03-02T11:23:35Z</time>
      </trkpt>
      <trkpt lat="43.69379" lon="3.13357">
        <ele>682.361</ele>
        <time>2014-03-02T11:25:48Z</time>
      </trkpt>
      <trkpt lat="43.69383" lon="3.1336">
        <ele>657.944</ele>
        <time>2014-03-02T11:29:10Z</time>
      </trkpt>
      <trkpt lat="43.69382" lon="3.13367">
        <ele>671.326</ele>
        <time>2014-03-02T11:29:18Z</time>
      </trkpt>
      <trkpt lat="43.69379" lon="3.13362">
        <ele>670.821</ele>
        <time>2014-03-02T11:29:40Z</time>
      </trkpt>
      <trkpt lat="43.69382" lon="3.13352">
        <ele>659.998</ele>
        <time>2014-03-02T11:29:46Z</time>
      </trkpt>
      <trkpt lat="43.69384" lon="3.13351">
        <ele>657.64</ele>
        <time>2014-03-02T11:29:54Z</time>
      </trkpt>
      <trkpt lat="43.69382" lon="3.13358">
        <ele>667.013</ele>
        <time>2014-03-02T11:30:08Z</time>
      </trkpt>
      <trkpt lat="43.69377" lon="3.13372">
        <ele>678.064</ele>
        <time>2014-03-02T11:30:21Z</time>
      </trkpt>
      <trkpt lat="43.69378" lon="3.13369">
        <ele>704.566</ele>
        <time>2014-03-02T11:30:53Z</time>
      </trkpt>
      <trkpt lat="43.6938" lon="3.1337">
        <ele>702.223</ele>
        <time>2014-03-02T11:31:03Z</time>
      </trkpt>
      <trkpt lat="43.69381" lon="3.1337">
        <ele>687.359</ele>
        <time>2014-03-02T11:31:12Z</time>
      </trkpt>
      <trkpt lat="43.69379" lon="3.13373">
        <ele>667.763</ele>
        <time>2014-03-02T11:31:36Z</time>
      </trkpt>
      <trkpt lat="43.69377" lon="3.13375">
        <ele>675.234</ele>
        <time>2014-03-02T11:31:41Z</time>
      </trkpt>
      <trkpt lat="43.69376" lon="3.1338">
        <ele>679.874</ele>
        <time>2014-03-02T11:31:49Z</time>
      </trkpt>
      <trkpt lat="43.6938" lon="3.13356">
        <ele>636.19</ele>
        <time>2014-03-02T11:33:39Z</time>
      </trkpt>
      <trkpt lat="43.69376" lon="3.13358">
        <ele>639.561</ele>
        <time>2014-03-02T11:33:54Z</time>
      </trkpt>
      <trkpt lat="43.69383" lon="3.13366">
        <ele>637.169</ele>
        <time>2014-03-02T11:35:01Z</time>
      </trkpt>
      <trkpt lat="43.69385" lon="3.13364">
        <ele>631.77</ele>
        <time>2014-03-02T11:35:10Z</time>
      </trkpt>
      <trkpt lat="43.69386" lon="3.13351">
        <ele>649.54</ele>
        <time>2014-03-02T11:44:04Z</time>
      </trkpt>
      <trkpt lat="43.69392" lon="3.13341">
        <ele>640.221</ele>
        <time>2014-03-02T11:44:21Z</time>
      </trkpt>
      <trkpt lat="43.69383" lon="3.13359">
        <ele>650.362</ele>
        <time>2014-03-02T11:53:26Z</time>
      </trkpt>
      <trkpt lat="43.69384" lon="3.13363">
        <ele>651.751</ele>
        <time>2014-03-02T11:54:49Z</time>
      </trkpt>
      <trkpt lat="43.69375" lon="3.13366">
        <ele>661.712</ele>
        <time>2014-03-02T12:02:51Z</time>
      </trkpt>
      <trkpt lat="43.69369" lon="3.13364">
        <ele>660.102</ele>
        <time>2014-03-02T12:02:57Z</time>
      </trkpt>
      <trkpt lat="43.69362" lon="3.1336">
        <ele>659.902</ele>
        <time>2014-03-02T12:03:05Z</time>
      </trkpt>
      <trkpt lat="43.69359" lon="3.13351">
        <ele>660.172</ele>
        <time>2014-03-02T12:03:12Z</time>
      </trkpt>
      <trkpt lat="43.69359" lon="3.13341">
        <ele>661.333</ele>
        <time>2014-03-02T12:03:19Z</time>
      </trkpt>
      <trkpt lat="43.6936" lon="3.13337">
        <ele>660.882</ele>
        <time>2014-03-02T12:03:22Z</time>
      </trkpt>
      <trkpt lat="43.69364" lon="3.13328">
        <ele>659.512</ele>
        <time>2014-03-02T12:03:29Z</time>
      </trkpt>
      <trkpt lat="43.69369" lon="3.1332">
        <ele>658.052</ele>
        <time>2014-03-02T12:03:36Z</time>
      </trkpt>
      <trkpt lat="43.69375" lon="3.13314">
        <ele>657.942</ele>
        <time>2014-03-02T12:03:44Z</time>
      </trkpt>
      <trkpt lat="43.69382" lon="3.13309">
        <ele>658.534</ele>
        <time>2014-03-02T12:03:52Z</time>
      </trkpt>
      <trkpt lat="43.69388" lon="3.13304">
        <ele>660.803</ele>
        <time>2014-03-02T12:04:01Z</time>
      </trkpt>
      <trkpt lat="43.69393" lon="3.13299">
        <ele>662.172</ele>
        <time>2014-03-02T12:04:08Z</time>
      </trkpt>
      <trkpt lat="43.69398" lon="3.13292">
        <ele>659.961</ele>
        <time>2014-03-02T12:04:16Z</time>
      </trkpt>
      <trkpt lat="43.69406" lon="3.13282">
        <ele>659.281</ele>
        <time>2014-03-02T12:04:27Z</time>
      </trkpt>
      <trkpt lat="43.6941" lon="3.13275">
        <ele>658.871</ele>
        <time>2014-03-02T12:04:35Z</time>
      </trkpt>
      <trkpt lat="43.69416" lon="3.13268">
        <ele>660.923</ele>
        <time>2014-03-02T12:04:44Z</time>
      </trkpt>
      <trkpt lat="43.69421" lon="3.13261">
        <ele>659.331</ele>
        <time>2014-03-02T12:04:51Z</time>
      </trkpt>
      <trkpt lat="43.69426" lon="3.13252">
        <ele>661.162</ele>
        <time>2014-03-02T12:05:00Z</time>
      </trkpt>
      <trkpt lat="43.69431" lon="3.13242">
        <ele>663.562</ele>
        <time>2014-03-02T12:05:08Z</time>
      </trkpt>
      <trkpt lat="43.69436" lon="3.13235">
        <ele>664.222</ele>
        <time>2014-03-02T12:05:16Z</time>
      </trkpt>
      <trkpt lat="43.69442" lon="3.13229">
        <ele>664.071</ele>
        <time>2014-03-02T12:05:24Z</time>
      </trkpt>
      <trkpt lat="43.69447" lon="3.13222">
        <ele>666.152</ele>
        <time>2014-03-02T12:05:32Z</time>
      </trkpt>
      <trkpt lat="43.69452" lon="3.13215">
        <ele>668.903</ele>
        <time>2014-03-02T12:05:40Z</time>
      </trkpt>
      <trkpt lat="43.69456" lon="3.13209">
        <ele>670.332</ele>
        <time>2014-03-02T12:05:46Z</time>
      </trkpt>
      <trkpt lat="43.69463" lon="3.13203">
        <ele>670.463</ele>
        <time>2014-03-02T12:05:54Z</time>
      </trkpt>
      <trkpt lat="43.69471" lon="3.13195">
        <ele>668.702</ele>
        <time>2014-03-02T12:06:04Z</time>
      </trkpt>
      <trkpt lat="43.69478" lon="3.13187">
        <ele>668.422</ele>
        <time>2014-03-02T12:06:12Z</time>
      </trkpt>
      <trkpt lat="43.69482" lon="3.13184">
        <ele>668.982</ele>
        <time>2014-03-02T12:06:18Z</time>
      </trkpt>
      <trkpt lat="43.69482" lon="3.13183">
        <ele>669.422</ele>
        <time>2014-03-02T12:06:20Z</time>
      </trkpt>
      <trkpt lat="43.69487" lon="3.13179">
        <ele>670.592</ele>
        <time>2014-03-02T12:06:26Z</time>
      </trkpt>
      <trkpt lat="43.69493" lon="3.13175">
        <ele>670.832</ele>
        <time>2014-03-02T12:06:33Z</time>
      </trkpt>
      <trkpt lat="43.69501" lon="3.13171">
        <ele>670.262</ele>
        <time>2014-03-02T12:06:42Z</time>
      </trkpt>
      <trkpt lat="43.69505" lon="3.13168">
        <ele>670.332</ele>
        <time>2014-03-02T12:06:48Z</time>
      </trkpt>
      <trkpt lat="43.69512" lon="3.13166">
        <ele>669.473</ele>
        <time>2014-03-02T12:06:55Z</time>
      </trkpt>
      <trkpt lat="43.69515" lon="3.13168">
        <ele>670.233</ele>
        <time>2014-03-02T12:06:59Z</time>
      </trkpt>
      <trkpt lat="43.69519" lon="3.13173">
        <ele>673.872</ele>
        <time>2014-03-02T12:07:07Z</time>
      </trkpt>
      <trkpt lat="43.69523" lon="3.13173">
        <ele>675.422</ele>
        <time>2014-03-02T12:07:14Z</time>
      </trkpt>
      <trkpt lat="43.69527" lon="3.13172">
        <ele>675.782</ele>
        <time>2014-03-02T12:07:18Z</time>
      </trkpt>
      <trkpt lat="43.69533" lon="3.13171">
        <ele>675.082</ele>
        <time>2014-03-02T12:07:25Z</time>
      </trkpt>
      <trkpt lat="43.69537" lon="3.1317">
        <ele>674.572</ele>
        <time>2014-03-02T12:07:31Z</time>
      </trkpt>
      <trkpt lat="43.69543" lon="3.13168">
        <ele>674.362</ele>
        <time>2014-03-02T12:07:40Z</time>
      </trkpt>
      <trkpt lat="43.69541" lon="3.13172">
        <ele>674.522</ele>
        <time>2014-03-02T12:07:50Z</time>
      </trkpt>
      <trkpt lat="43.69531" lon="3.13176">
        <ele>675.042</ele>
        <time>2014-03-02T12:07:58Z</time>
      </trkpt>
      <trkpt lat="43.69524" lon="3.13178">
        <ele>675.763</ele>
        <time>2014-03-02T12:08:05Z</time>
      </trkpt>
      <trkpt lat="43.69521" lon="3.13179">
        <ele>676.143</ele>
        <time>2014-03-02T12:08:08Z</time>
      </trkpt>
      <trkpt lat="43.69515" lon="3.13186">
        <ele>676.902</ele>
        <time>2014-03-02T12:08:16Z</time>
      </trkpt>
      <trkpt lat="43.69507" lon="3.13195">
        <ele>677.893</ele>
        <time>2014-03-02T12:08:25Z</time>
      </trkpt>
      <trkpt lat="43.69501" lon="3.13203">
        <ele>680.544</ele>
        <time>2014-03-02T12:08:33Z</time>
      </trkpt>
      <trkpt lat="43.69496" lon="3.13209">
        <ele>681.763</ele>
        <time>2014-03-02T12:08:38Z</time>
      </trkpt>
      <trkpt lat="43.69492" lon="3.13209">
        <ele>682.522</ele>
        <time>2014-03-02T12:08:45Z</time>
      </trkpt>
      <trkpt lat="43.69492" lon="3.13209">
        <ele>682.592</ele>
        <time>2014-03-02T12:08:46Z</time>
      </trkpt>
      <trkpt lat="43.69487" lon="3.13218">
        <ele>683.092</ele>
        <time>2014-03-02T12:08:54Z</time>
      </trkpt>
      <trkpt lat="43.69486" lon="3.13219">
        <ele>683.233</ele>
        <time>2014-03-02T12:08:55Z</time>
      </trkpt>
      <trkpt lat="43.69478" lon="3.13231">
        <ele>683.112</ele>
        <time>2014-03-02T12:09:05Z</time>
      </trkpt>
      <trkpt lat="43.69471" lon="3.13241">
        <ele>684.213</ele>
        <time>2014-03-02T12:09:14Z</time>
      </trkpt>
      <trkpt lat="43.69468" lon="3.13247">
        <ele>684.953</ele>
        <time>2014-03-02T12:09:19Z</time>
      </trkpt>
      <trkpt lat="43.69461" lon="3.1326">
        <ele>686.834</ele>
        <time>2014-03-02T12:09:28Z</time>
      </trkpt>
      <trkpt lat="43.69452" lon="3.13279">
        <ele>689.533</ele>
        <time>2014-03-02T12:09:41Z</time>
      </trkpt>
      <trkpt lat="43.6945" lon="3.13283">
        <ele>688.313</ele>
        <time>2014-03-02T12:09:44Z</time>
      </trkpt>
      <trkpt lat="43.69449" lon="3.13291">
        <ele>687.523</ele>
        <time>2014-03-02T12:09:51Z</time>
      </trkpt>
      <trkpt lat="43.69446" lon="3.13309">
        <ele>687.953</ele>
        <time>2014-03-02T12:10:03Z</time>
      </trkpt>
      <trkpt lat="43.6945" lon="3.13323">
        <ele>689.113</ele>
        <time>2014-03-02T12:10:13Z</time>
      </trkpt>
      <trkpt lat="43.69457" lon="3.13333">
        <ele>689.813</ele>
        <time>2014-03-02T12:10:22Z</time>
      </trkpt>
      <trkpt lat="43.6947" lon="3.13346">
        <ele>690.152</ele>
        <time>2014-03-02T12:10:35Z</time>
      </trkpt>
      <trkpt lat="43.6948" lon="3.13355">
        <ele>690.393</ele>
        <time>2014-03-02T12:10:45Z</time>
      </trkpt>
      <trkpt lat="43.69489" lon="3.13361">
        <ele>691.143</ele>
        <time>2014-03-02T12:10:55Z</time>
      </trkpt>
      <trkpt lat="43.69499" lon="3.1337">
        <ele>691.133</ele>
        <time>2014-03-02T12:11:06Z</time>
      </trkpt>
      <trkpt lat="43.69508" lon="3.13379">
        <ele>691.523</ele>
        <time>2014-03-02T12:11:17Z</time>
      </trkpt>
      <trkpt lat="43.69515" lon="3.13386">
        <ele>692.003</ele>
        <time>2014-03-02T12:11:25Z</time>
      </trkpt>
      <trkpt lat="43.69523" lon="3.13398">
        <ele>692.243</ele>
        <time>2014-03-02T12:11:36Z</time>
      </trkpt>
      <trkpt lat="43.69531" lon="3.1341">
        <ele>693.243</ele>
        <time>2014-03-02T12:11:47Z</time>
      </trkpt>
      <trkpt lat="43.69536" lon="3.13421">
        <ele>693.433</ele>
        <time>2014-03-02T12:11:56Z</time>
      </trkpt>
      <trkpt lat="43.6954" lon="3.13438">
        <ele>695.234</ele>
        <time>2014-03-02T12:12:08Z</time>
      </trkpt>
      <trkpt lat="43.69543" lon="3.13452">
        <ele>698.153</ele>
        <time>2014-03-02T12:12:19Z</time>
      </trkpt>
      <trkpt lat="43.69545" lon="3.13463">
        <ele>700.713</ele>
        <time>2014-03-02T12:12:27Z</time>
      </trkpt>
      <trkpt lat="43.69546" lon="3.13472">
        <ele>703.053</ele>
        <time>2014-03-02T12:12:35Z</time>
      </trkpt>
      <trkpt lat="43.69548" lon="3.13479">
        <ele>704.554</ele>
        <time>2014-03-02T12:12:41Z</time>
      </trkpt>
      <trkpt lat="43.6955" lon="3.13489">
        <ele>704.744</ele>
        <time>2014-03-02T12:12:48Z</time>
      </trkpt>
      <trkpt lat="43.69553" lon="3.13506">
        <ele>704.483</ele>
        <time>2014-03-02T12:13:00Z</time>
      </trkpt>
      <trkpt lat="43.69555" lon="3.13524">
        <ele>706.063</ele>
        <time>2014-03-02T12:13:12Z</time>
      </trkpt>
      <trkpt lat="43.69557" lon="3.13539">
        <ele>707.954</ele>
        <time>2014-03-02T12:13:22Z</time>
      </trkpt>
      <trkpt lat="43.69557" lon="3.13554">
        <ele>709.174</ele>
        <time>2014-03-02T12:13:32Z</time>
      </trkpt>
      <trkpt lat="43.69559" lon="3.13568">
        <ele>710.354</ele>
        <time>2014-03-02T12:13:42Z</time>
      </trkpt>
      <trkpt lat="43.69561" lon="3.1358">
        <ele>710.904</ele>
        <time>2014-03-02T12:13:51Z</time>
      </trkpt>
      <trkpt lat="43.69563" lon="3.13592">
        <ele>711.844</ele>
        <time>2014-03-02T12:14:00Z</time>
      </trkpt>
      <trkpt lat="43.69565" lon="3.13606">
        <ele>713.244</ele>
        <time>2014-03-02T12:14:10Z</time>
      </trkpt>
      <trkpt lat="43.69567" lon="3.13618">
        <ele>714.104</ele>
        <time>2014-03-02T12:14:19Z</time>
      </trkpt>
      <trkpt lat="43.69569" lon="3.13628">
        <ele>714.883</ele>
        <time>2014-03-02T12:14:28Z</time>
      </trkpt>
      <trkpt lat="43.69571" lon="3.1363">
        <ele>715.474</ele>
        <time>2014-03-02T12:14:35Z</time>
      </trkpt>
      <trkpt lat="43.69573" lon="3.13623">
        <ele>715.243</ele>
        <time>2014-03-02T12:14:43Z</time>
      </trkpt>
      <trkpt lat="43.69573" lon="3.13624">
        <ele>714.953</ele>
        <time>2014-03-02T12:14:50Z</time>
      </trkpt>
      <trkpt lat="43.69573" lon="3.13628">
        <ele>714.923</ele>
        <time>2014-03-02T12:14:58Z</time>
      </trkpt>
      <trkpt lat="43.69573" lon="3.13634">
        <ele>716.384</ele>
        <time>2014-03-02T12:15:08Z</time>
      </trkpt>
      <trkpt lat="43.69572" lon="3.13642">
        <ele>716.653</ele>
        <time>2014-03-02T12:15:17Z</time>
      </trkpt>
      <trkpt lat="43.69573" lon="3.1364">
        <ele>715.623</ele>
        <time>2014-03-02T12:15:29Z</time>
      </trkpt>
      <trkpt lat="43.69575" lon="3.13641">
        <ele>714.753</ele>
        <time>2014-03-02T12:16:03Z</time>
      </trkpt>
      <trkpt lat="43.69574" lon="3.13648">
        <ele>715.704</ele>
        <time>2014-03-02T12:17:29Z</time>
      </trkpt>
      <trkpt lat="43.69576" lon="3.13659">
        <ele>716.894</ele>
        <time>2014-03-02T12:17:38Z</time>
      </trkpt>
      <trkpt lat="43.69579" lon="3.13671">
        <ele>718.144</ele>
        <time>2014-03-02T12:17:47Z</time>
      </trkpt>
      <trkpt lat="43.69582" lon="3.13681">
        <ele>718.974</ele>
        <time>2014-03-02T12:17:56Z</time>
      </trkpt>
      <trkpt lat="43.69584" lon="3.13687">
        <ele>719.314</ele>
        <time>2014-03-02T12:18:02Z</time>
      </trkpt>
      <trkpt lat="43.69591" lon="3.13699">
        <ele>720.264</ele>
        <time>2014-03-02T12:18:13Z</time>
      </trkpt>
      <trkpt lat="43.69598" lon="3.13705">
        <ele>722.465</ele>
        <time>2014-03-02T12:18:23Z</time>
      </trkpt>
      <trkpt lat="43.69605" lon="3.13709">
        <ele>724.424</ele>
        <time>2014-03-02T12:18:32Z</time>
      </trkpt>
      <trkpt lat="43.69613" lon="3.1371">
        <ele>726.774</ele>
        <time>2014-03-02T12:18:42Z</time>
      </trkpt>
      <trkpt lat="43.69618" lon="3.13713">
        <ele>726.004</ele>
        <time>2014-03-02T12:18:49Z</time>
      </trkpt>
      <trkpt lat="43.69627" lon="3.13714">
        <ele>725.804</ele>
        <time>2014-03-02T12:18:59Z</time>
      </trkpt>
      <trkpt lat="43.69635" lon="3.13712">
        <ele>729.895</ele>
        <time>2014-03-02T12:19:09Z</time>
      </trkpt>
      <trkpt lat="43.69643" lon="3.13711">
        <ele>730.124</ele>
        <time>2014-03-02T12:19:17Z</time>
      </trkpt>
      <trkpt lat="43.6965" lon="3.13711">
        <ele>729.874</ele>
        <time>2014-03-02T12:19:24Z</time>
      </trkpt>
      <trkpt lat="43.69655" lon="3.13717">
        <ele>729.294</ele>
        <time>2014-03-02T12:19:32Z</time>
      </trkpt>
      <trkpt lat="43.69664" lon="3.13715">
        <ele>731.065</ele>
        <time>2014-03-02T12:19:40Z</time>
      </trkpt>
      <trkpt lat="43.69672" lon="3.13711">
        <ele>731.945</ele>
        <time>2014-03-02T12:19:47Z</time>
      </trkpt>
      <trkpt lat="43.6968" lon="3.13709">
        <ele>731.925</ele>
        <time>2014-03-02T12:19:55Z</time>
      </trkpt>
      <trkpt lat="43.69688" lon="3.13708">
        <ele>730.434</ele>
        <time>2014-03-02T12:20:03Z</time>
      </trkpt>
      <trkpt lat="43.697" lon="3.13706">
        <ele>728.884</ele>
        <time>2014-03-02T12:20:14Z</time>
      </trkpt>
      <trkpt lat="43.6971" lon="3.13706">
        <ele>727.264</ele>
        <time>2014-03-02T12:20:24Z</time>
      </trkpt>
      <trkpt lat="43.69719" lon="3.13703">
        <ele>727.004</ele>
        <time>2014-03-02T12:20:33Z</time>
      </trkpt>
      <trkpt lat="43.69728" lon="3.13702">
        <ele>725.984</ele>
        <time>2014-03-02T12:20:42Z</time>
      </trkpt>
      <trkpt lat="43.69735" lon="3.13703">
        <ele>726.045</ele>
        <time>2014-03-02T12:20:50Z</time>
      </trkpt>
      <trkpt lat="43.69746" lon="3.13699">
        <ele>726.555</ele>
        <time>2014-03-02T12:20:59Z</time>
      </trkpt>
      <trkpt lat="43.69756" lon="3.13697">
        <ele>727.775</ele>
        <time>2014-03-02T12:21:08Z</time>
      </trkpt>
      <trkpt lat="43.69764" lon="3.13698">
        <ele>729.455</ele>
        <time>2014-03-02T12:21:17Z</time>
      </trkpt>
      <trkpt lat="43.69774" lon="3.13694">
        <ele>730.224</ele>
        <time>2014-03-02T12:21:26Z</time>
      </trkpt>
      <trkpt lat="43.69783" lon="3.1369">
        <ele>729.744</ele>
        <time>2014-03-02T12:21:35Z</time>
      </trkpt>
      <trkpt lat="43.69791" lon="3.13686">
        <ele>729.955</ele>
        <time>2014-03-02T12:21:44Z</time>
      </trkpt>
      <trkpt lat="43.698" lon="3.13682">
        <ele>730.515</ele>
        <time>2014-03-02T12:21:53Z</time>
      </trkpt>
      <trkpt lat="43.69808" lon="3.13675">
        <ele>730.644</ele>
        <time>2014-03-02T12:22:02Z</time>
      </trkpt>
      <trkpt lat="43.69816" lon="3.13671">
        <ele>730.774</ele>
        <time>2014-03-02T12:22:11Z</time>
      </trkpt>
      <trkpt lat="43.69823" lon="3.13667">
        <ele>731.054</ele>
        <time>2014-03-02T12:22:19Z</time>
      </trkpt>
      <trkpt lat="43.6983" lon="3.13666">
        <ele>731.194</ele>
        <time>2014-03-02T12:22:27Z</time>
      </trkpt>
      <trkpt lat="43.69839" lon="3.13664">
        <ele>732.074</ele>
        <time>2014-03-02T12:22:36Z</time>
      </trkpt>
      <trkpt lat="43.69847" lon="3.13662">
        <ele>732.584</ele>
        <time>2014-03-02T12:22:46Z</time>
      </trkpt>
      <trkpt lat="43.6985" lon="3.1366">
        <ele>732.864</ele>
        <time>2014-03-02T12:22:52Z</time>
      </trkpt>
      <trkpt lat="43.69856" lon="3.13659">
        <ele>733.184</ele>
        <time>2014-03-02T12:23:02Z</time>
      </trkpt>
      <trkpt lat="43.6986" lon="3.13657">
        <ele>732.894</ele>
        <time>2014-03-02T12:23:21Z</time>
      </trkpt>
      <trkpt lat="43.69862" lon="3.13656">
        <ele>732.544</ele>
        <time>2014-03-02T12:23:27Z</time>
      </trkpt>
      <trkpt lat="43.69863" lon="3.13655">
        <ele>732.824</ele>
        <time>2014-03-02T12:23:36Z</time>
      </trkpt>
      <trkpt lat="43.69865" lon="3.13655">
        <ele>732.974</ele>
        <time>2014-03-02T12:23:38Z</time>
      </trkpt>
      <trkpt lat="43.69868" lon="3.13654">
        <ele>733.294</ele>
        <time>2014-03-02T12:23:42Z</time>
      </trkpt>
      <trkpt lat="43.69878" lon="3.13651">
        <ele>734.875</ele>
        <time>2014-03-02T12:23:53Z</time>
      </trkpt>
      <trkpt lat="43.69886" lon="3.13649">
        <ele>735.985</ele>
        <time>2014-03-02T12:24:01Z</time>
      </trkpt>
      <trkpt lat="43.69894" lon="3.13647">
        <ele>736.784</ele>
        <time>2014-03-02T12:24:10Z</time>
      </trkpt>
      <trkpt lat="43.69902" lon="3.13646">
        <ele>736.804</ele>
        <time>2014-03-02T12:24:19Z</time>
      </trkpt>
      <trkpt lat="43.69908" lon="3.13645">
        <ele>736.954</ele>
        <time>2014-03-02T12:24:27Z</time>
      </trkpt>
      <trkpt lat="43.69914" lon="3.13644">
        <ele>737.214</ele>
        <time>2014-03-02T12:24:35Z</time>
      </trkpt>
      <trkpt lat="43.69921" lon="3.13644">
        <ele>737.694</ele>
        <time>2014-03-02T12:24:43Z</time>
      </trkpt>
      <trkpt lat="43.6993" lon="3.13644">
        <ele>738.855</ele>
        <time>2014-03-02T12:24:53Z</time>
      </trkpt>
      <trkpt lat="43.69936" lon="3.13645">
        <ele>739.125</ele>
        <time>2014-03-02T12:25:00Z</time>
      </trkpt>
      <trkpt lat="43.69945" lon="3.13646">
        <ele>739.805</ele>
        <time>2014-03-02T12:25:11Z</time>
      </trkpt>
      <trkpt lat="43.69955" lon="3.13647">
        <ele>740.724</ele>
        <time>2014-03-02T12:25:22Z</time>
      </trkpt>
      <trkpt lat="43.6996" lon="3.13648">
        <ele>741.285</ele>
        <time>2014-03-02T12:25:28Z</time>
      </trkpt>
      <trkpt lat="43.69969" lon="3.13649">
        <ele>742.465</ele>
        <time>2014-03-02T12:25:39Z</time>
      </trkpt>
      <trkpt lat="43.69978" lon="3.13649">
        <ele>743.475</ele>
        <time>2014-03-02T12:25:49Z</time>
      </trkpt>
      <trkpt lat="43.69986" lon="3.13649">
        <ele>744.115</ele>
        <time>2014-03-02T12:25:58Z</time>
      </trkpt>
      <trkpt lat="43.69994" lon="3.13648">
        <ele>744.975</ele>
        <time>2014-03-02T12:26:08Z</time>
      </trkpt>
      <trkpt lat="43.69996" lon="3.13648">
        <ele>744.404</ele>
        <time>2014-03-02T12:26:16Z</time>
      </trkpt>
      <trkpt lat="43.70002" lon="3.13645">
        <ele>747.245</ele>
        <time>2014-03-02T12:27:06Z</time>
      </trkpt>
      <trkpt lat="43.70011" lon="3.13642">
        <ele>748.645</ele>
        <time>2014-03-02T12:27:17Z</time>
      </trkpt>
      <trkpt lat="43.70019" lon="3.13639">
        <ele>749.585</ele>
        <time>2014-03-02T12:27:27Z</time>
      </trkpt>
      <trkpt lat="43.70029" lon="3.13637">
        <ele>750.335</ele>
        <time>2014-03-02T12:27:38Z</time>
      </trkpt>
      <trkpt lat="43.70037" lon="3.13632">
        <ele>752.406</ele>
        <time>2014-03-02T12:27:47Z</time>
      </trkpt>
      <trkpt lat="43.70048" lon="3.13625">
        <ele>755.665</ele>
        <time>2014-03-02T12:27:59Z</time>
      </trkpt>
      <trkpt lat="43.70058" lon="3.13619">
        <ele>757.715</ele>
        <time>2014-03-02T12:28:10Z</time>
      </trkpt>
      <trkpt lat="43.70068" lon="3.13612">
        <ele>759.365</ele>
        <time>2014-03-02T12:28:21Z</time>
      </trkpt>
      <trkpt lat="43.70079" lon="3.13606">
        <ele>760.765</ele>
        <time>2014-03-02T12:28:33Z</time>
      </trkpt>
      <trkpt lat="43.70089" lon="3.13605">
        <ele>759.535</ele>
        <time>2014-03-02T12:28:43Z</time>
      </trkpt>
      <trkpt lat="43.70098" lon="3.13605">
        <ele>759.375</ele>
        <time>2014-03-02T12:28:53Z</time>
      </trkpt>
      <trkpt lat="43.70108" lon="3.13607">
        <ele>759.165</ele>
        <time>2014-03-02T12:29:03Z</time>
      </trkpt>
      <trkpt lat="43.70119" lon="3.13611">
        <ele>759.645</ele>
        <time>2014-03-02T12:29:14Z</time>
      </trkpt>
      <trkpt lat="43.7013" lon="3.13616">
        <ele>759.845</ele>
        <time>2014-03-02T12:29:26Z</time>
      </trkpt>
      <trkpt lat="43.70136" lon="3.13619">
        <ele>759.925</ele>
        <time>2014-03-02T12:29:36Z</time>
      </trkpt>
      <trkpt lat="43.7014" lon="3.13622">
        <ele>759.935</ele>
        <time>2014-03-02T12:29:48Z</time>
      </trkpt>
      <trkpt lat="43.70146" lon="3.13629">
        <ele>761.035</ele>
        <time>2014-03-02T12:29:57Z</time>
      </trkpt>
      <trkpt lat="43.70145" lon="3.13632">
        <ele>761.765</ele>
        <time>2014-03-02T12:30:03Z</time>
      </trkpt>
      <trkpt lat="43.70142" lon="3.13636">
        <ele>763.006</ele>
        <time>2014-03-02T12:30:11Z</time>
      </trkpt>
      <trkpt lat="43.7014" lon="3.13639">
        <ele>764.106</ele>
        <time>2014-03-02T12:30:16Z</time>
      </trkpt>
      <trkpt lat="43.70137" lon="3.13643">
        <ele>765.916</ele>
        <time>2014-03-02T12:30:26Z</time>
      </trkpt>
      <trkpt lat="43.70136" lon="3.13647">
        <ele>766.556</ele>
        <time>2014-03-02T12:30:32Z</time>
      </trkpt>
      <trkpt lat="43.70132" lon="3.13651">
        <ele>767.606</ele>
        <time>2014-03-02T12:30:41Z</time>
      </trkpt>
      <trkpt lat="43.7013" lon="3.13655">
        <ele>768.696</ele>
        <time>2014-03-02T12:30:47Z</time>
      </trkpt>
      <trkpt lat="43.70129" lon="3.13657">
        <ele>769.606</ele>
        <time>2014-03-02T12:30:52Z</time>
      </trkpt>
      <trkpt lat="43.70126" lon="3.13661">
        <ele>770.876</ele>
        <time>2014-03-02T12:31:00Z</time>
      </trkpt>
      <trkpt lat="43.70125" lon="3.13665">
        <ele>773.166</ele>
        <time>2014-03-02T12:31:08Z</time>
      </trkpt>
      <trkpt lat="43.70124" lon="3.13668">
        <ele>774.766</ele>
        <time>2014-03-02T12:31:15Z</time>
      </trkpt>
      <trkpt lat="43.70124" lon="3.1367">
        <ele>774.505</ele>
        <time>2014-03-02T12:31:26Z</time>
      </trkpt>
      <trkpt lat="43.70124" lon="3.1367">
        <ele>774.875</ele>
        <time>2014-03-02T12:31:33Z</time>
      </trkpt>
      <trkpt lat="43.70122" lon="3.13672">
        <ele>774.276</ele>
        <time>2014-03-02T12:31:53Z</time>
      </trkpt>
      <trkpt lat="43.70119" lon="3.1368">
        <ele>776.216</ele>
        <time>2014-03-02T12:32:01Z</time>
      </trkpt>
      <trkpt lat="43.70114" lon="3.13691">
        <ele>779.056</ele>
        <time>2014-03-02T12:32:11Z</time>
      </trkpt>
      <trkpt lat="43.7011" lon="3.137">
        <ele>780.826</ele>
        <time>2014-03-02T12:32:18Z</time>
      </trkpt>
      <trkpt lat="43.70105" lon="3.13709">
        <ele>783.576</ele>
        <time>2014-03-02T12:32:27Z</time>
      </trkpt>
      <trkpt lat="43.70102" lon="3.13715">
        <ele>784.306</ele>
        <time>2014-03-02T12:32:33Z</time>
      </trkpt>
      <trkpt lat="43.70094" lon="3.1373">
        <ele>785.666</ele>
        <time>2014-03-02T12:32:46Z</time>
      </trkpt>
      <trkpt lat="43.70089" lon="3.13733">
        <ele>785.935</ele>
        <time>2014-03-02T12:32:53Z</time>
      </trkpt>
      <trkpt lat="43.70085" lon="3.13732">
        <ele>785.125</ele>
        <time>2014-03-02T12:33:01Z</time>
      </trkpt>
      <trkpt lat="43.70083" lon="3.13731">
        <ele>786.745</ele>
        <time>2014-03-02T12:33:30Z</time>
      </trkpt>
      <trkpt lat="43.70083" lon="3.13733">
        <ele>786.825</ele>
        <time>2014-03-02T12:33:38Z</time>
      </trkpt>
      <trkpt lat="43.70084" lon="3.13736">
        <ele>787.306</ele>
        <time>2014-03-02T12:33:47Z</time>
      </trkpt>
      <trkpt lat="43.70086" lon="3.13736">
        <ele>787.635</ele>
        <time>2014-03-02T12:33:57Z</time>
      </trkpt>
      <trkpt lat="43.70087" lon="3.13736">
        <ele>786.865</ele>
        <time>2014-03-02T12:35:07Z</time>
      </trkpt>
      <trkpt lat="43.70088" lon="3.13739">
        <ele>786.375</ele>
        <time>2014-03-02T12:35:13Z</time>
      </trkpt>
      <trkpt lat="43.70087" lon="3.13737">
        <ele>786.365</ele>
        <time>2014-03-02T12:35:18Z</time>
      </trkpt>
      <trkpt lat="43.70086" lon="3.13732">
        <ele>786.605</ele>
        <time>2014-03-02T12:35:39Z</time>
      </trkpt>
      <trkpt lat="43.70086" lon="3.13735">
        <ele>787.995</ele>
        <time>2014-03-02T12:37:01Z</time>
      </trkpt>
      <trkpt lat="43.70085" lon="3.13736">
        <ele>789.215</ele>
        <time>2014-03-02T12:44:33Z</time>
      </trkpt>
      <trkpt lat="43.70085" lon="3.13737">
        <ele>786.865</ele>
        <time>2014-03-02T12:44:42Z</time>
      </trkpt>
      <trkpt lat="43.70085" lon="3.1374">
        <ele>786.465</ele>
        <time>2014-03-02T12:45:14Z</time>
      </trkpt>
      <trkpt lat="43.70086" lon="3.13745">
        <ele>785.264</ele>
        <time>2014-03-02T12:45:30Z</time>
      </trkpt>
      <trkpt lat="43.70083" lon="3.13751">
        <ele>783.804</ele>
        <time>2014-03-02T12:45:38Z</time>
      </trkpt>
      <trkpt lat="43.70082" lon="3.13754">
        <ele>783.085</ele>
        <time>2014-03-02T12:45:44Z</time>
      </trkpt>
      <trkpt lat="43.70081" lon="3.13755">
        <ele>782.415</ele>
        <time>2014-03-02T12:45:53Z</time>
      </trkpt>
      <trkpt lat="43.7008" lon="3.13755">
        <ele>782.295</ele>
        <time>2014-03-02T12:45:54Z</time>
      </trkpt>
      <trkpt lat="43.70076" lon="3.1376">
        <ele>780.834</ele>
        <time>2014-03-02T12:46:02Z</time>
      </trkpt>
      <trkpt lat="43.70071" lon="3.13765">
        <ele>779.605</ele>
        <time>2014-03-02T12:46:11Z</time>
      </trkpt>
      <trkpt lat="43.70068" lon="3.1377">
        <ele>777.914</ele>
        <time>2014-03-02T12:46:20Z</time>
      </trkpt>
      <trkpt lat="43.70067" lon="3.1377">
        <ele>777.733</ele>
        <time>2014-03-02T12:46:21Z</time>
      </trkpt>
      <trkpt lat="43.70063" lon="3.13773">
        <ele>776.795</ele>
        <time>2014-03-02T12:46:28Z</time>
      </trkpt>
      <trkpt lat="43.70065" lon="3.13776">
        <ele>776.935</ele>
        <time>2014-03-02T12:46:43Z</time>
      </trkpt>
      <trkpt lat="43.70073" lon="3.13786">
        <ele>776.025</ele>
        <time>2014-03-02T12:46:55Z</time>
      </trkpt>
      <trkpt lat="43.70081" lon="3.13796">
        <ele>775.855</ele>
        <time>2014-03-02T12:47:06Z</time>
      </trkpt>
      <trkpt lat="43.7009" lon="3.13804">
        <ele>775.465</ele>
        <time>2014-03-02T12:47:16Z</time>
      </trkpt>
      <trkpt lat="43.70103" lon="3.13812">
        <ele>773.645</ele>
        <time>2014-03-02T12:47:29Z</time>
      </trkpt>
      <trkpt lat="43.70108" lon="3.13813">
        <ele>773.935</ele>
        <time>2014-03-02T12:47:37Z</time>
      </trkpt>
      <trkpt lat="43.70111" lon="3.13816">
        <ele>772.455</ele>
        <time>2014-03-02T12:47:51Z</time>
      </trkpt>
      <trkpt lat="43.7011" lon="3.13816">
        <ele>771.034</ele>
        <time>2014-03-02T12:47:56Z</time>
      </trkpt>
      <trkpt lat="43.70111" lon="3.13823">
        <ele>770.145</ele>
        <time>2014-03-02T12:48:03Z</time>
      </trkpt>
      <trkpt lat="43.70111" lon="3.13826">
        <ele>770.565</ele>
        <time>2014-03-02T12:48:09Z</time>
      </trkpt>
      <trkpt lat="43.70115" lon="3.13831">
        <ele>769.805</ele>
        <time>2014-03-02T12:48:34Z</time>
      </trkpt>
      <trkpt lat="43.70117" lon="3.13831">
        <ele>769.615</ele>
        <time>2014-03-02T12:48:36Z</time>
      </trkpt>
      <trkpt lat="43.7012" lon="3.13837">
        <ele>768.945</ele>
        <time>2014-03-02T12:48:44Z</time>
      </trkpt>
      <trkpt lat="43.70124" lon="3.13843">
        <ele>766.754</ele>
        <time>2014-03-02T12:48:53Z</time>
      </trkpt>
      <trkpt lat="43.70125" lon="3.13853">
        <ele>765.455</ele>
        <time>2014-03-02T12:49:02Z</time>
      </trkpt>
      <trkpt lat="43.70126" lon="3.13863">
        <ele>766.245</ele>
        <time>2014-03-02T12:49:10Z</time>
      </trkpt>
      <trkpt lat="43.70131" lon="3.13873">
        <ele>765.065</ele>
        <time>2014-03-02T12:49:21Z</time>
      </trkpt>
      <trkpt lat="43.70133" lon="3.13883">
        <ele>763.615</ele>
        <time>2014-03-02T12:49:30Z</time>
      </trkpt>
      <trkpt lat="43.70136" lon="3.1389">
        <ele>762.685</ele>
        <time>2014-03-02T12:49:37Z</time>
      </trkpt>
      <trkpt lat="43.7014" lon="3.13899">
        <ele>762.005</ele>
        <time>2014-03-02T12:49:46Z</time>
      </trkpt>
      <trkpt lat="43.70141" lon="3.139">
        <ele>761.855</ele>
        <time>2014-03-02T12:49:48Z</time>
      </trkpt>
      <trkpt lat="43.70144" lon="3.13906">
        <ele>761.115</ele>
        <time>2014-03-02T12:49:57Z</time>
      </trkpt>
      <trkpt lat="43.70148" lon="3.1391">
        <ele>758.975</ele>
        <time>2014-03-02T12:50:05Z</time>
      </trkpt>
      <trkpt lat="43.7015" lon="3.13915">
        <ele>757.295</ele>
        <time>2014-03-02T12:50:12Z</time>
      </trkpt>
      <trkpt lat="43.70152" lon="3.13923">
        <ele>756.596</ele>
        <time>2014-03-02T12:50:20Z</time>
      </trkpt>
      <trkpt lat="43.70154" lon="3.13928">
        <ele>755.325</ele>
        <time>2014-03-02T12:50:26Z</time>
      </trkpt>
      <trkpt lat="43.70154" lon="3.13929">
        <ele>756.876</ele>
        <time>2014-03-02T12:50:35Z</time>
      </trkpt>
      <trkpt lat="43.70156" lon="3.13934">
        <ele>756.586</ele>
        <time>2014-03-02T12:50:42Z</time>
      </trkpt>
      <trkpt lat="43.70155" lon="3.13945">
        <ele>755.645</ele>
        <time>2014-03-02T12:50:50Z</time>
      </trkpt>
      <trkpt lat="43.70156" lon="3.13955">
        <ele>754.986</ele>
        <time>2014-03-02T12:50:58Z</time>
      </trkpt>
      <trkpt lat="43.70158" lon="3.13968">
        <ele>755.636</ele>
        <time>2014-03-02T12:51:07Z</time>
      </trkpt>
      <trkpt lat="43.70158" lon="3.1398">
        <ele>755.996</ele>
        <time>2014-03-02T12:51:15Z</time>
      </trkpt>
      <trkpt lat="43.70159" lon="3.13984">
        <ele>755.726</ele>
        <time>2014-03-02T12:51:18Z</time>
      </trkpt>
      <trkpt lat="43.70164" lon="3.1399">
        <ele>754.476</ele>
        <time>2014-03-02T12:51:27Z</time>
      </trkpt>
      <trkpt lat="43.70165" lon="3.13995">
        <ele>753.706</ele>
        <time>2014-03-02T12:51:32Z</time>
      </trkpt>
      <trkpt lat="43.70164" lon="3.13998">
        <ele>753.015</ele>
        <time>2014-03-02T12:51:35Z</time>
      </trkpt>
      <trkpt lat="43.70164" lon="3.14008">
        <ele>751.786</ele>
        <time>2014-03-02T12:51:43Z</time>
      </trkpt>
      <trkpt lat="43.70165" lon="3.14021">
        <ele>751.346</ele>
        <time>2014-03-02T12:51:52Z</time>
      </trkpt>
      <trkpt lat="43.70166" lon="3.14024">
        <ele>751.496</ele>
        <time>2014-03-02T12:51:55Z</time>
      </trkpt>
      <trkpt lat="43.70168" lon="3.14036">
        <ele>750.635</ele>
        <time>2014-03-02T12:52:05Z</time>
      </trkpt>
      <trkpt lat="43.7017" lon="3.14051">
        <ele>750.336</ele>
        <time>2014-03-02T12:52:16Z</time>
      </trkpt>
      <trkpt lat="43.70173" lon="3.14057">
        <ele>750.076</ele>
        <time>2014-03-02T12:52:21Z</time>
      </trkpt>
      <trkpt lat="43.70172" lon="3.14068">
        <ele>752.287</ele>
        <time>2014-03-02T12:52:31Z</time>
      </trkpt>
      <trkpt lat="43.70172" lon="3.14074">
        <ele>754.447</ele>
        <time>2014-03-02T12:52:39Z</time>
      </trkpt>
      <trkpt lat="43.70172" lon="3.14076">
        <ele>755.226</ele>
        <time>2014-03-02T12:52:48Z</time>
      </trkpt>
      <trkpt lat="43.70171" lon="3.14081">
        <ele>756.087</ele>
        <time>2014-03-02T12:52:53Z</time>
      </trkpt>
      <trkpt lat="43.70172" lon="3.1409">
        <ele>756.747</ele>
        <time>2014-03-02T12:53:01Z</time>
      </trkpt>
      <trkpt lat="43.70173" lon="3.14097">
        <ele>757.967</ele>
        <time>2014-03-02T12:53:08Z</time>
      </trkpt>
      <trkpt lat="43.70173" lon="3.14105">
        <ele>759.24</ele>
        <time>2014-03-02T12:53:15Z</time>
      </trkpt>
      <trkpt lat="43.70173" lon="3.14112">
        <ele>760.191</ele>
        <time>2014-03-02T12:53:21Z</time>
      </trkpt>
      <trkpt lat="43.70174" lon="3.14123">
        <ele>761.997</ele>
        <time>2014-03-02T12:53:31Z</time>
      </trkpt>
      <trkpt lat="43.70175" lon="3.14124">
        <ele>761.847</ele>
        <time>2014-03-02T12:53:32Z</time>
      </trkpt>
      <trkpt lat="43.7018" lon="3.14128">
        <ele>760.936</ele>
        <time>2014-03-02T12:53:41Z</time>
      </trkpt>
      <trkpt lat="43.70182" lon="3.14132">
        <ele>761.183</ele>
        <time>2014-03-02T12:53:46Z</time>
      </trkpt>
      <trkpt lat="43.70182" lon="3.14138">
        <ele>761.723</ele>
        <time>2014-03-02T12:53:52Z</time>
      </trkpt>
      <trkpt lat="43.70183" lon="3.14144">
        <ele>760.039</ele>
        <time>2014-03-02T12:53:58Z</time>
      </trkpt>
      <trkpt lat="43.70185" lon="3.14152">
        <ele>759.71</ele>
        <time>2014-03-02T12:54:04Z</time>
      </trkpt>
      <trkpt lat="43.70189" lon="3.14161">
        <ele>758.003</ele>
        <time>2014-03-02T12:54:13Z</time>
      </trkpt>
      <trkpt lat="43.70193" lon="3.14169">
        <ele>756.483</ele>
        <time>2014-03-02T12:54:23Z</time>
      </trkpt>
      <trkpt lat="43.70197" lon="3.14172">
        <ele>755.783</ele>
        <time>2014-03-02T12:54:30Z</time>
      </trkpt>
      <trkpt lat="43.702" lon="3.14175">
        <ele>754.839</ele>
        <time>2014-03-02T12:54:37Z</time>
      </trkpt>
      <trkpt lat="43.70204" lon="3.1418">
        <ele>754.829</ele>
        <time>2014-03-02T12:54:43Z</time>
      </trkpt>
      <trkpt lat="43.7021" lon="3.14186">
        <ele>754.204</ele>
        <time>2014-03-02T12:54:50Z</time>
      </trkpt>
      <trkpt lat="43.70213" lon="3.14192">
        <ele>754.803</ele>
        <time>2014-03-02T12:54:56Z</time>
      </trkpt>
      <trkpt lat="43.70218" lon="3.14199">
        <ele>753.555</ele>
        <time>2014-03-02T12:55:02Z</time>
      </trkpt>
      <trkpt lat="43.70222" lon="3.14201">
        <ele>753.765</ele>
        <time>2014-03-02T12:55:06Z</time>
      </trkpt>
      <trkpt lat="43.70226" lon="3.14207">
        <ele>754.297</ele>
        <time>2014-03-02T12:55:11Z</time>
      </trkpt>
      <trkpt lat="43.70233" lon="3.14215">
        <ele>752.622</ele>
        <time>2014-03-02T12:55:19Z</time>
      </trkpt>
      <trkpt lat="43.7024" lon="3.14224">
        <ele>752.195</ele>
        <time>2014-03-02T12:55:27Z</time>
      </trkpt>
      <trkpt lat="43.70244" lon="3.14229">
        <ele>753.153</ele>
        <time>2014-03-02T12:55:33Z</time>
      </trkpt>
      <trkpt lat="43.70253" lon="3.14235">
        <ele>752.319</ele>
        <time>2014-03-02T12:55:42Z</time>
      </trkpt>
      <trkpt lat="43.70258" lon="3.14244">
        <ele>751.353</ele>
        <time>2014-03-02T12:55:51Z</time>
      </trkpt>
      <trkpt lat="43.70261" lon="3.14249">
        <ele>749.849</ele>
        <time>2014-03-02T12:55:58Z</time>
      </trkpt>
      <trkpt lat="43.70266" lon="3.14253">
        <ele>748.223</ele>
        <time>2014-03-02T12:56:07Z</time>
      </trkpt>
      <trkpt lat="43.70268" lon="3.14257">
        <ele>747.428</ele>
        <time>2014-03-02T12:56:12Z</time>
      </trkpt>
      <trkpt lat="43.70269" lon="3.14259">
        <ele>747.162</ele>
        <time>2014-03-02T12:56:14Z</time>
      </trkpt>
      <trkpt lat="43.7027" lon="3.14267">
        <ele>745.945</ele>
        <time>2014-03-02T12:56:21Z</time>
      </trkpt>
      <trkpt lat="43.70271" lon="3.14275">
        <ele>745.413</ele>
        <time>2014-03-02T12:56:28Z</time>
      </trkpt>
      <trkpt lat="43.7027" lon="3.14283">
        <ele>746.314</ele>
        <time>2014-03-02T12:56:36Z</time>
      </trkpt>
      <trkpt lat="43.70271" lon="3.14288">
        <ele>745.618</ele>
        <time>2014-03-02T12:56:43Z</time>
      </trkpt>
      <trkpt lat="43.70273" lon="3.1429">
        <ele>744.963</ele>
        <time>2014-03-02T12:56:49Z</time>
      </trkpt>
      <trkpt lat="43.70275" lon="3.14293">
        <ele>743.576</ele>
        <time>2014-03-02T12:56:55Z</time>
      </trkpt>
      <trkpt lat="43.70277" lon="3.14297">
        <ele>741.97</ele>
        <time>2014-03-02T12:57:03Z</time>
      </trkpt>
      <trkpt lat="43.70278" lon="3.14299">
        <ele>740.84</ele>
        <time>2014-03-02T12:57:11Z</time>
      </trkpt>
      <trkpt lat="43.70279" lon="3.14302">
        <ele>740.144</ele>
        <time>2014-03-02T12:57:18Z</time>
      </trkpt>
      <trkpt lat="43.7028" lon="3.14306">
        <ele>740.015</ele>
        <time>2014-03-02T12:57:23Z</time>
      </trkpt>
      <trkpt lat="43.70282" lon="3.1431">
        <ele>739.321</ele>
        <time>2014-03-02T12:57:28Z</time>
      </trkpt>
      <trkpt lat="43.70284" lon="3.14311">
        <ele>738.584</ele>
        <time>2014-03-02T12:57:33Z</time>
      </trkpt>
      <trkpt lat="43.70286" lon="3.14315">
        <ele>737.784</ele>
        <time>2014-03-02T12:57:40Z</time>
      </trkpt>
      <trkpt lat="43.70288" lon="3.14321">
        <ele>738.089</ele>
        <time>2014-03-02T12:57:48Z</time>
      </trkpt>
      <trkpt lat="43.70291" lon="3.14323">
        <ele>737.654</ele>
        <time>2014-03-02T12:57:53Z</time>
      </trkpt>
      <trkpt lat="43.70293" lon="3.14327">
        <ele>735.817</ele>
        <time>2014-03-02T12:58:00Z</time>
      </trkpt>
      <trkpt lat="43.70297" lon="3.14333">
        <ele>734.741</ele>
        <time>2014-03-02T12:58:08Z</time>
      </trkpt>
      <trkpt lat="43.70299" lon="3.14335">
        <ele>733.819</ele>
        <time>2014-03-02T12:58:13Z</time>
      </trkpt>
      <trkpt lat="43.70302" lon="3.14337">
        <ele>732.825</ele>
        <time>2014-03-02T12:58:20Z</time>
      </trkpt>
      <trkpt lat="43.70305" lon="3.1434">
        <ele>731.258</ele>
        <time>2014-03-02T12:58:27Z</time>
      </trkpt>
      <trkpt lat="43.70307" lon="3.14344">
        <ele>730.541</ele>
        <time>2014-03-02T12:58:32Z</time>
      </trkpt>
      <trkpt lat="43.70309" lon="3.14351">
        <ele>729.052</ele>
        <time>2014-03-02T12:58:40Z</time>
      </trkpt>
      <trkpt lat="43.70312" lon="3.14357">
        <ele>727.631</ele>
        <time>2014-03-02T12:58:49Z</time>
      </trkpt>
      <trkpt lat="43.70313" lon="3.14362">
        <ele>726.924</ele>
        <time>2014-03-02T12:58:57Z</time>
      </trkpt>
      <trkpt lat="43.70314" lon="3.14366">
        <ele>723.028</ele>
        <time>2014-03-02T12:59:04Z</time>
      </trkpt>
      <trkpt lat="43.70314" lon="3.14371">
        <ele>720.753</ele>
        <time>2014-03-02T12:59:11Z</time>
      </trkpt>
      <trkpt lat="43.70316" lon="3.14375">
        <ele>717.666</ele>
        <time>2014-03-02T12:59:18Z</time>
      </trkpt>
      <trkpt lat="43.70318" lon="3.14379">
        <ele>714.941</ele>
        <time>2014-03-02T12:59:25Z</time>
      </trkpt>
      <trkpt lat="43.7032" lon="3.14382">
        <ele>713.489</ele>
        <time>2014-03-02T12:59:29Z</time>
      </trkpt>
      <trkpt lat="43.70323" lon="3.14387">
        <ele>711.727</ele>
        <time>2014-03-02T12:59:36Z</time>
      </trkpt>
      <trkpt lat="43.70325" lon="3.1439">
        <ele>710.386</ele>
        <time>2014-03-02T12:59:43Z</time>
      </trkpt>
      <trkpt lat="43.70328" lon="3.14397">
        <ele>707.756</ele>
        <time>2014-03-02T12:59:51Z</time>
      </trkpt>
      <trkpt lat="43.70329" lon="3.14401">
        <ele>706.967</ele>
        <time>2014-03-02T12:59:58Z</time>
      </trkpt>
      <trkpt lat="43.7033" lon="3.14403">
        <ele>705.247</ele>
        <time>2014-03-02T13:00:03Z</time>
      </trkpt>
      <trkpt lat="43.70331" lon="3.14403">
        <ele>705.009</ele>
        <time>2014-03-02T13:00:04Z</time>
      </trkpt>
      <trkpt lat="43.70332" lon="3.14405">
        <ele>704.887</ele>
        <time>2014-03-02T13:00:06Z</time>
      </trkpt>
      <trkpt lat="43.70333" lon="3.14409">
        <ele>703.266</ele>
        <time>2014-03-02T13:00:11Z</time>
      </trkpt>
      <trkpt lat="43.70333" lon="3.14414">
        <ele>700.916</ele>
        <time>2014-03-02T13:00:16Z</time>
      </trkpt>
      <trkpt lat="43.70334" lon="3.14415">
        <ele>699.833</ele>
        <time>2014-03-02T13:00:18Z</time>
      </trkpt>
      <trkpt lat="43.70336" lon="3.14419">
        <ele>697.782</ele>
        <time>2014-03-02T13:00:23Z</time>
      </trkpt>
      <trkpt lat="43.70333" lon="3.14427">
        <ele>696.427</ele>
        <time>2014-03-02T13:00:31Z</time>
      </trkpt>
      <trkpt lat="43.70333" lon="3.14429">
        <ele>696.657</ele>
        <time>2014-03-02T13:00:33Z</time>
      </trkpt>
      <trkpt lat="43.70334" lon="3.1444">
        <ele>696.597</ele>
        <time>2014-03-02T13:00:43Z</time>
      </trkpt>
      <trkpt lat="43.70335" lon="3.14443">
        <ele>697.262</ele>
        <time>2014-03-02T13:00:49Z</time>
      </trkpt>
      <trkpt lat="43.70335" lon="3.14449">
        <ele>698.058</ele>
        <time>2014-03-02T13:00:56Z</time>
      </trkpt>
      <trkpt lat="43.70334" lon="3.14456">
        <ele>697.078</ele>
        <time>2014-03-02T13:01:14Z</time>
      </trkpt>
      <trkpt lat="43.70329" lon="3.1446">
        <ele>697.908</ele>
        <time>2014-03-02T13:01:22Z</time>
      </trkpt>
      <trkpt lat="43.70326" lon="3.14463">
        <ele>696.518</ele>
        <time>2014-03-02T13:01:29Z</time>
      </trkpt>
      <trkpt lat="43.70324" lon="3.14468">
        <ele>694.317</ele>
        <time>2014-03-02T13:01:51Z</time>
      </trkpt>
      <trkpt lat="43.70326" lon="3.14468">
        <ele>691.937</ele>
        <time>2014-03-02T13:02:00Z</time>
      </trkpt>
      <trkpt lat="43.70331" lon="3.14471">
        <ele>692.297</ele>
        <time>2014-03-02T13:02:09Z</time>
      </trkpt>
      <trkpt lat="43.70336" lon="3.14472">
        <ele>691.708</ele>
        <time>2014-03-02T13:02:18Z</time>
      </trkpt>
      <trkpt lat="43.70341" lon="3.14477">
        <ele>685.247</ele>
        <time>2014-03-02T13:03:29Z</time>
      </trkpt>
      <trkpt lat="43.70342" lon="3.14479">
        <ele>685.64</ele>
        <time>2014-03-02T13:03:36Z</time>
      </trkpt>
      <trkpt lat="43.70348" lon="3.14481">
        <ele>682.817</ele>
        <time>2014-03-02T13:03:54Z</time>
      </trkpt>
      <trkpt lat="43.70349" lon="3.14482">
        <ele>682.887</ele>
        <time>2014-03-02T13:04:02Z</time>
      </trkpt>
      <trkpt lat="43.70352" lon="3.14485">
        <ele>683.338</ele>
        <time>2014-03-02T13:04:14Z</time>
      </trkpt>
      <trkpt lat="43.70354" lon="3.14488">
        <ele>683.257</ele>
        <time>2014-03-02T13:04:23Z</time>
      </trkpt>
      <trkpt lat="43.70355" lon="3.14489">
        <ele>682.565</ele>
        <time>2014-03-02T13:04:25Z</time>
      </trkpt>
      <trkpt lat="43.70359" lon="3.1449">
        <ele>683.458</ele>
        <time>2014-03-02T13:04:31Z</time>
      </trkpt>
      <trkpt lat="43.7036" lon="3.14492">
        <ele>683.278</ele>
        <time>2014-03-02T13:04:33Z</time>
      </trkpt>
      <trkpt lat="43.70362" lon="3.14497">
        <ele>683.491</ele>
        <time>2014-03-02T13:04:40Z</time>
      </trkpt>
      <trkpt lat="43.70362" lon="3.14501">
        <ele>683.828</ele>
        <time>2014-03-02T13:04:47Z</time>
      </trkpt>
      <trkpt lat="43.70364" lon="3.14503">
        <ele>682.148</ele>
        <time>2014-03-02T13:04:55Z</time>
      </trkpt>
      <trkpt lat="43.70364" lon="3.14508">
        <ele>680.888</ele>
        <time>2014-03-02T13:05:02Z</time>
      </trkpt>
      <trkpt lat="43.70365" lon="3.14513">
        <ele>678.017</ele>
        <time>2014-03-02T13:05:09Z</time>
      </trkpt>
      <trkpt lat="43.70368" lon="3.14518">
        <ele>673.807</ele>
        <time>2014-03-02T13:05:22Z</time>
      </trkpt>
      <trkpt lat="43.70371" lon="3.14522">
        <ele>672.657</ele>
        <time>2014-03-02T13:05:28Z</time>
      </trkpt>
      <trkpt lat="43.70375" lon="3.14525">
        <ele>670.017</ele>
        <time>2014-03-02T13:05:35Z</time>
      </trkpt>
      <trkpt lat="43.70378" lon="3.14526">
        <ele>668.927</ele>
        <time>2014-03-02T13:05:40Z</time>
      </trkpt>
      <trkpt lat="43.7038" lon="3.14524">
        <ele>666.337</ele>
        <time>2014-03-02T13:05:47Z</time>
      </trkpt>
      <trkpt lat="43.70383" lon="3.14522">
        <ele>665.038</ele>
        <time>2014-03-02T13:05:55Z</time>
      </trkpt>
      <trkpt lat="43.70387" lon="3.14522">
        <ele>665.727</ele>
        <time>2014-03-02T13:06:01Z</time>
      </trkpt>
      <trkpt lat="43.70391" lon="3.14519">
        <ele>666.128</ele>
        <time>2014-03-02T13:06:08Z</time>
      </trkpt>
      <trkpt lat="43.70395" lon="3.14517">
        <ele>665.057</ele>
        <time>2014-03-02T13:06:15Z</time>
      </trkpt>
      <trkpt lat="43.704" lon="3.14515">
        <ele>663.487</ele>
        <time>2014-03-02T13:06:23Z</time>
      </trkpt>
      <trkpt lat="43.70404" lon="3.14518">
        <ele>661.607</ele>
        <time>2014-03-02T13:06:30Z</time>
      </trkpt>
      <trkpt lat="43.70408" lon="3.14518">
        <ele>660.597</ele>
        <time>2014-03-02T13:06:36Z</time>
      </trkpt>
      <trkpt lat="43.7041" lon="3.14516">
        <ele>660.998</ele>
        <time>2014-03-02T13:06:39Z</time>
      </trkpt>
      <trkpt lat="43.70413" lon="3.14515">
        <ele>661.088</ele>
        <time>2014-03-02T13:06:45Z</time>
      </trkpt>
      <trkpt lat="43.70415" lon="3.14515">
        <ele>660.587</ele>
        <time>2014-03-02T13:06:48Z</time>
      </trkpt>
      <trkpt lat="43.70417" lon="3.14517">
        <ele>659.438</ele>
        <time>2014-03-02T13:06:55Z</time>
      </trkpt>
      <trkpt lat="43.70419" lon="3.14522">
        <ele>658.418</ele>
        <time>2014-03-02T13:07:08Z</time>
      </trkpt>
      <trkpt lat="43.70422" lon="3.14526">
        <ele>657.238</ele>
        <time>2014-03-02T13:07:14Z</time>
      </trkpt>
      <trkpt lat="43.70423" lon="3.14529">
        <ele>656.038</ele>
        <time>2014-03-02T13:07:22Z</time>
      </trkpt>
      <trkpt lat="43.70426" lon="3.14532">
        <ele>652.858</ele>
        <time>2014-03-02T13:07:33Z</time>
      </trkpt>
      <trkpt lat="43.7043" lon="3.14539">
        <ele>650.568</ele>
        <time>2014-03-02T13:07:42Z</time>
      </trkpt>
      <trkpt lat="43.70432" lon="3.14541">
        <ele>650.298</ele>
        <time>2014-03-02T13:07:47Z</time>
      </trkpt>
      <trkpt lat="43.70434" lon="3.14542">
        <ele>649.198</ele>
        <time>2014-03-02T13:07:52Z</time>
      </trkpt>
      <trkpt lat="43.70437" lon="3.14546">
        <ele>647.978</ele>
        <time>2014-03-02T13:07:58Z</time>
      </trkpt>
      <trkpt lat="43.70436" lon="3.14549">
        <ele>645.468</ele>
        <time>2014-03-02T13:08:05Z</time>
      </trkpt>
      <trkpt lat="43.70437" lon="3.14553">
        <ele>642.997</ele>
        <time>2014-03-02T13:08:11Z</time>
      </trkpt>
      <trkpt lat="43.70441" lon="3.14556">
        <ele>640.927</ele>
        <time>2014-03-02T13:08:17Z</time>
      </trkpt>
      <trkpt lat="43.70442" lon="3.1456">
        <ele>639.368</ele>
        <time>2014-03-02T13:08:22Z</time>
      </trkpt>
      <trkpt lat="43.70443" lon="3.14564">
        <ele>638.498</ele>
        <time>2014-03-02T13:08:28Z</time>
      </trkpt>
      <trkpt lat="43.70443" lon="3.14567">
        <ele>638.598</ele>
        <time>2014-03-02T13:08:32Z</time>
      </trkpt>
      <trkpt lat="43.70444" lon="3.14578">
        <ele>638.649</ele>
        <time>2014-03-02T13:08:39Z</time>
      </trkpt>
      <trkpt lat="43.70445" lon="3.14583">
        <ele>638.218</ele>
        <time>2014-03-02T13:08:45Z</time>
      </trkpt>
      <trkpt lat="43.70448" lon="3.1459">
        <ele>639.489</ele>
        <time>2014-03-02T13:08:55Z</time>
      </trkpt>
      <trkpt lat="43.70448" lon="3.14599">
        <ele>636.858</ele>
        <time>2014-03-02T13:09:04Z</time>
      </trkpt>
      <trkpt lat="43.7045" lon="3.14603">
        <ele>634.808</ele>
        <time>2014-03-02T13:09:09Z</time>
      </trkpt>
      <trkpt lat="43.70453" lon="3.14608">
        <ele>633.508</ele>
        <time>2014-03-02T13:09:15Z</time>
      </trkpt>
      <trkpt lat="43.70455" lon="3.14613">
        <ele>632.128</ele>
        <time>2014-03-02T13:09:21Z</time>
      </trkpt>
      <trkpt lat="43.70458" lon="3.14617">
        <ele>631.338</ele>
        <time>2014-03-02T13:09:26Z</time>
      </trkpt>
      <trkpt lat="43.70459" lon="3.14626">
        <ele>629.888</ele>
        <time>2014-03-02T13:09:33Z</time>
      </trkpt>
      <trkpt lat="43.70461" lon="3.14631">
        <ele>630.089</ele>
        <time>2014-03-02T13:09:38Z</time>
      </trkpt>
      <trkpt lat="43.70461" lon="3.14639">
        <ele>631.819</ele>
        <time>2014-03-02T13:09:45Z</time>
      </trkpt>
      <trkpt lat="43.70466" lon="3.14646">
        <ele>634.96</ele>
        <time>2014-03-02T13:09:51Z</time>
      </trkpt>
      <trkpt lat="43.70468" lon="3.14653">
        <ele>634.809</ele>
        <time>2014-03-02T13:10:00Z</time>
      </trkpt>
      <trkpt lat="43.7047" lon="3.14661">
        <ele>635.089</ele>
        <time>2014-03-02T13:10:07Z</time>
      </trkpt>
      <trkpt lat="43.7047" lon="3.1467">
        <ele>634.369</ele>
        <time>2014-03-02T13:10:14Z</time>
      </trkpt>
      <trkpt lat="43.70472" lon="3.14678">
        <ele>634.95</ele>
        <time>2014-03-02T13:10:21Z</time>
      </trkpt>
      <trkpt lat="43.70474" lon="3.14685">
        <ele>633.299</ele>
        <time>2014-03-02T13:10:27Z</time>
      </trkpt>
      <trkpt lat="43.70479" lon="3.14695">
        <ele>630.708</ele>
        <time>2014-03-02T13:10:35Z</time>
      </trkpt>
      <trkpt lat="43.70483" lon="3.14698">
        <ele>628.438</ele>
        <time>2014-03-02T13:10:40Z</time>
      </trkpt>
      <trkpt lat="43.70485" lon="3.14702">
        <ele>626.858</ele>
        <time>2014-03-02T13:10:45Z</time>
      </trkpt>
      <trkpt lat="43.7049" lon="3.14707">
        <ele>624.148</ele>
        <time>2014-03-02T13:10:52Z</time>
      </trkpt>
      <trkpt lat="43.70495" lon="3.14711">
        <ele>622.448</ele>
        <time>2014-03-02T13:10:58Z</time>
      </trkpt>
      <trkpt lat="43.705" lon="3.14713">
        <ele>620.437</ele>
        <time>2014-03-02T13:11:04Z</time>
      </trkpt>
      <trkpt lat="43.70502" lon="3.14715">
        <ele>618.728</ele>
        <time>2014-03-02T13:11:09Z</time>
      </trkpt>
      <trkpt lat="43.70505" lon="3.14719">
        <ele>616.428</ele>
        <time>2014-03-02T13:11:16Z</time>
      </trkpt>
      <trkpt lat="43.70508" lon="3.14724">
        <ele>614.958</ele>
        <time>2014-03-02T13:11:23Z</time>
      </trkpt>
      <trkpt lat="43.70516" lon="3.14728">
        <ele>611.678</ele>
        <time>2014-03-02T13:11:31Z</time>
      </trkpt>
      <trkpt lat="43.7052" lon="3.14732">
        <ele>609.788</ele>
        <time>2014-03-02T13:11:37Z</time>
      </trkpt>
      <trkpt lat="43.70524" lon="3.14737">
        <ele>608.009</ele>
        <time>2014-03-02T13:11:44Z</time>
      </trkpt>
      <trkpt lat="43.70528" lon="3.14739">
        <ele>607.328</ele>
        <time>2014-03-02T13:11:50Z</time>
      </trkpt>
      <trkpt lat="43.70532" lon="3.14742">
        <ele>607.158</ele>
        <time>2014-03-02T13:11:57Z</time>
      </trkpt>
      <trkpt lat="43.70534" lon="3.14746">
        <ele>600.109</ele>
        <time>2014-03-02T13:12:36Z</time>
      </trkpt>
      <trkpt lat="43.70537" lon="3.1475">
        <ele>600.938</ele>
        <time>2014-03-02T13:12:44Z</time>
      </trkpt>
      <trkpt lat="43.70541" lon="3.14754">
        <ele>601.278</ele>
        <time>2014-03-02T13:12:52Z</time>
      </trkpt>
      <trkpt lat="43.70544" lon="3.14758">
        <ele>600.718</ele>
        <time>2014-03-02T13:12:59Z</time>
      </trkpt>
      <trkpt lat="43.70549" lon="3.14763">
        <ele>598.689</ele>
        <time>2014-03-02T13:13:12Z</time>
      </trkpt>
      <trkpt lat="43.70551" lon="3.14766">
        <ele>599.469</ele>
        <time>2014-03-02T13:13:18Z</time>
      </trkpt>
      <trkpt lat="43.70555" lon="3.1477">
        <ele>598.338</ele>
        <time>2014-03-02T13:13:25Z</time>
      </trkpt>
      <trkpt lat="43.70558" lon="3.14774">
        <ele>596.719</ele>
        <time>2014-03-02T13:13:32Z</time>
      </trkpt>
      <trkpt lat="43.70561" lon="3.14777">
        <ele>595.558</ele>
        <time>2014-03-02T13:13:38Z</time>
      </trkpt>
      <trkpt lat="43.70566" lon="3.1478">
        <ele>593.178</ele>
        <time>2014-03-02T13:13:44Z</time>
      </trkpt>
      <trkpt lat="43.70571" lon="3.14784">
        <ele>593.183</ele>
        <time>2014-03-02T13:13:52Z</time>
      </trkpt>
      <trkpt lat="43.70572" lon="3.14788">
        <ele>593.269</ele>
        <time>2014-03-02T13:14:00Z</time>
      </trkpt>
      <trkpt lat="43.70572" lon="3.148">
        <ele>585.609</ele>
        <time>2014-03-02T13:15:49Z</time>
      </trkpt>
      <trkpt lat="43.70573" lon="3.14803">
        <ele>587.19</ele>
        <time>2014-03-02T13:15:54Z</time>
      </trkpt>
      <trkpt lat="43.70575" lon="3.14805">
        <ele>587.772</ele>
        <time>2014-03-02T13:16:00Z</time>
      </trkpt>
      <trkpt lat="43.70578" lon="3.14807">
        <ele>586.789</ele>
        <time>2014-03-02T13:16:07Z</time>
      </trkpt>
      <trkpt lat="43.70578" lon="3.14809">
        <ele>585.919</ele>
        <time>2014-03-02T13:16:18Z</time>
      </trkpt>
      <trkpt lat="43.70579" lon="3.14811">
        <ele>585.429</ele>
        <time>2014-03-02T13:16:21Z</time>
      </trkpt>
      <trkpt lat="43.70581" lon="3.1482">
        <ele>585.84</ele>
        <time>2014-03-02T13:16:29Z</time>
      </trkpt>
      <trkpt lat="43.70581" lon="3.14825">
        <ele>586.92</ele>
        <time>2014-03-02T13:16:38Z</time>
      </trkpt>
      <trkpt lat="43.70582" lon="3.14829">
        <ele>586.519</ele>
        <time>2014-03-02T13:16:45Z</time>
      </trkpt>
      <trkpt lat="43.70582" lon="3.14835">
        <ele>585.449</ele>
        <time>2014-03-02T13:16:56Z</time>
      </trkpt>
      <trkpt lat="43.70582" lon="3.14836">
        <ele>585.33</ele>
        <time>2014-03-02T13:16:58Z</time>
      </trkpt>
      <trkpt lat="43.7058" lon="3.14845">
        <ele>586.06</ele>
        <time>2014-03-02T13:17:07Z</time>
      </trkpt>
      <trkpt lat="43.70579" lon="3.1485">
        <ele>586.04</ele>
        <time>2014-03-02T13:17:14Z</time>
      </trkpt>
      <trkpt lat="43.70577" lon="3.14854">
        <ele>584.069</ele>
        <time>2014-03-02T13:17:22Z</time>
      </trkpt>
      <trkpt lat="43.70576" lon="3.14859">
        <ele>582.589</ele>
        <time>2014-03-02T13:17:28Z</time>
      </trkpt>
      <trkpt lat="43.70576" lon="3.14864">
        <ele>580.599</ele>
        <time>2014-03-02T13:17:35Z</time>
      </trkpt>
      <trkpt lat="43.70576" lon="3.14869">
        <ele>577.629</ele>
        <time>2014-03-02T13:17:42Z</time>
      </trkpt>
      <trkpt lat="43.70574" lon="3.14875">
        <ele>574.16</ele>
        <time>2014-03-02T13:17:50Z</time>
      </trkpt>
      <trkpt lat="43.70573" lon="3.14878">
        <ele>574.239</ele>
        <time>2014-03-02T13:17:55Z</time>
      </trkpt>
      <trkpt lat="43.70574" lon="3.14883">
        <ele>573.129</ele>
        <time>2014-03-02T13:18:00Z</time>
      </trkpt>
      <trkpt lat="43.70574" lon="3.14884">
        <ele>572.429</ele>
        <time>2014-03-02T13:18:02Z</time>
      </trkpt>
      <trkpt lat="43.70575" lon="3.14894">
        <ele>573.19</ele>
        <time>2014-03-02T13:18:10Z</time>
      </trkpt>
      <trkpt lat="43.70573" lon="3.14897">
        <ele>572.569</ele>
        <time>2014-03-02T13:18:17Z</time>
      </trkpt>
      <trkpt lat="43.70572" lon="3.14901">
        <ele>570.679</ele>
        <time>2014-03-02T13:18:24Z</time>
      </trkpt>
      <trkpt lat="43.70572" lon="3.14904">
        <ele>570.249</ele>
        <time>2014-03-02T13:18:29Z</time>
      </trkpt>
      <trkpt lat="43.70572" lon="3.14908">
        <ele>569.489</ele>
        <time>2014-03-02T13:18:35Z</time>
      </trkpt>
      <trkpt lat="43.70572" lon="3.14912">
        <ele>567.769</ele>
        <time>2014-03-02T13:18:40Z</time>
      </trkpt>
      <trkpt lat="43.70571" lon="3.14916">
        <ele>563.079</ele>
        <time>2014-03-02T13:18:46Z</time>
      </trkpt>
      <trkpt lat="43.70572" lon="3.14921">
        <ele>562.319</ele>
        <time>2014-03-02T13:18:53Z</time>
      </trkpt>
      <trkpt lat="43.70574" lon="3.14926">
        <ele>560.449</ele>
        <time>2014-03-02T13:19:00Z</time>
      </trkpt>
      <trkpt lat="43.70574" lon="3.14927">
        <ele>559.599</ele>
        <time>2014-03-02T13:19:01Z</time>
      </trkpt>
      <trkpt lat="43.70575" lon="3.14931">
        <ele>559.009</ele>
        <time>2014-03-02T13:19:05Z</time>
      </trkpt>
      <trkpt lat="43.70572" lon="3.14941">
        <ele>558.18</ele>
        <time>2014-03-02T13:19:13Z</time>
      </trkpt>
      <trkpt lat="43.70571" lon="3.14947">
        <ele>559.63</ele>
        <time>2014-03-02T13:19:20Z</time>
      </trkpt>
      <trkpt lat="43.70571" lon="3.1495">
        <ele>560.39</ele>
        <time>2014-03-02T13:19:25Z</time>
      </trkpt>
      <trkpt lat="43.7057" lon="3.14956">
        <ele>558.35</ele>
        <time>2014-03-02T13:19:34Z</time>
      </trkpt>
      <trkpt lat="43.7057" lon="3.14966">
        <ele>557.84</ele>
        <time>2014-03-02T13:19:41Z</time>
      </trkpt>
      <trkpt lat="43.7057" lon="3.14973">
        <ele>555.789</ele>
        <time>2014-03-02T13:19:47Z</time>
      </trkpt>
      <trkpt lat="43.70569" lon="3.14976">
        <ele>554.53</ele>
        <time>2014-03-02T13:19:51Z</time>
      </trkpt>
      <trkpt lat="43.7057" lon="3.14978">
        <ele>554.12</ele>
        <time>2014-03-02T13:19:53Z</time>
      </trkpt>
      <trkpt lat="43.70569" lon="3.14984">
        <ele>552.64</ele>
        <time>2014-03-02T13:19:59Z</time>
      </trkpt>
      <trkpt lat="43.70569" lon="3.14986">
        <ele>552.21</ele>
        <time>2014-03-02T13:20:00Z</time>
      </trkpt>
      <trkpt lat="43.70563" lon="3.14993">
        <ele>548.541</ele>
        <time>2014-03-02T13:20:07Z</time>
      </trkpt>
      <trkpt lat="43.70561" lon="3.14999">
        <ele>540.52</ele>
        <time>2014-03-02T13:20:27Z</time>
      </trkpt>
      <trkpt lat="43.70564" lon="3.14999">
        <ele>540.95</ele>
        <time>2014-03-02T13:20:49Z</time>
      </trkpt>
      <trkpt lat="43.70565" lon="3.14995">
        <ele>542.61</ele>
        <time>2014-03-02T13:20:59Z</time>
      </trkpt>
      <trkpt lat="43.70566" lon="3.14985">
        <ele>543.702</ele>
        <time>2014-03-02T13:21:07Z</time>
      </trkpt>
      <trkpt lat="43.70567" lon="3.1498">
        <ele>542.731</ele>
        <time>2014-03-02T13:21:14Z</time>
      </trkpt>
      <trkpt lat="43.70576" lon="3.14978">
        <ele>550.31</ele>
        <time>2014-03-02T13:22:14Z</time>
      </trkpt>
      <trkpt lat="43.70577" lon="3.14971">
        <ele>549.904</ele>
        <time>2014-03-02T13:22:20Z</time>
      </trkpt>
      <trkpt lat="43.70575" lon="3.14961">
        <ele>548.991</ele>
        <time>2014-03-02T13:22:28Z</time>
      </trkpt>
      <trkpt lat="43.70576" lon="3.14954">
        <ele>550.922</ele>
        <time>2014-03-02T13:22:35Z</time>
      </trkpt>
      <trkpt lat="43.70578" lon="3.14946">
        <ele>551.091</ele>
        <time>2014-03-02T13:22:41Z</time>
      </trkpt>
      <trkpt lat="43.70576" lon="3.14937">
        <ele>551.209</ele>
        <time>2014-03-02T13:22:49Z</time>
      </trkpt>
      <trkpt lat="43.70576" lon="3.14933">
        <ele>552.06</ele>
        <time>2014-03-02T13:22:54Z</time>
      </trkpt>
      <trkpt lat="43.70575" lon="3.1493">
        <ele>551.64</ele>
        <time>2014-03-02T13:23:04Z</time>
      </trkpt>
      <trkpt lat="43.70574" lon="3.14929">
        <ele>552.359</ele>
        <time>2014-03-02T13:24:20Z</time>
      </trkpt>
      <trkpt lat="43.70575" lon="3.14932">
        <ele>551.419</ele>
        <time>2014-03-02T13:24:26Z</time>
      </trkpt>
      <trkpt lat="43.70576" lon="3.14933">
        <ele>550.599</ele>
        <time>2014-03-02T13:24:31Z</time>
      </trkpt>
      <trkpt lat="43.70577" lon="3.14933">
        <ele>550.309</ele>
        <time>2014-03-02T13:24:33Z</time>
      </trkpt>
      <trkpt lat="43.70578" lon="3.14941">
        <ele>548.249</ele>
        <time>2014-03-02T13:24:40Z</time>
      </trkpt>
      <trkpt lat="43.70578" lon="3.14945">
        <ele>546.279</ele>
        <time>2014-03-02T13:24:47Z</time>
      </trkpt>
      <trkpt lat="43.70577" lon="3.1495">
        <ele>547.441</ele>
        <time>2014-03-02T13:24:54Z</time>
      </trkpt>
      <trkpt lat="43.70577" lon="3.14955">
        <ele>549.14</ele>
        <time>2014-03-02T13:25:00Z</time>
      </trkpt>
      <trkpt lat="43.70576" lon="3.14959">
        <ele>549.27</ele>
        <time>2014-03-02T13:25:08Z</time>
      </trkpt>
      <trkpt lat="43.70575" lon="3.14963">
        <ele>549.711</ele>
        <time>2014-03-02T13:25:14Z</time>
      </trkpt>
      <trkpt lat="43.70576" lon="3.14964">
        <ele>549.66</ele>
        <time>2014-03-02T13:25:21Z</time>
      </trkpt>
      <trkpt lat="43.70577" lon="3.14968">
        <ele>550.16</ele>
        <time>2014-03-02T13:25:55Z</time>
      </trkpt>
      <trkpt lat="43.70575" lon="3.14973">
        <ele>550.801</ele>
        <time>2014-03-02T13:26:01Z</time>
      </trkpt>
      <trkpt lat="43.70572" lon="3.14977">
        <ele>548.41</ele>
        <time>2014-03-02T13:26:07Z</time>
      </trkpt>
      <trkpt lat="43.70572" lon="3.14983">
        <ele>548.01</ele>
        <time>2014-03-02T13:26:15Z</time>
      </trkpt>
      <trkpt lat="43.7057" lon="3.14985">
        <ele>547.68</ele>
        <time>2014-03-02T13:26:17Z</time>
      </trkpt>
      <trkpt lat="43.70569" lon="3.14992">
        <ele>547.551</ele>
        <time>2014-03-02T13:26:23Z</time>
      </trkpt>
      <trkpt lat="43.70566" lon="3.14995">
        <ele>545.57</ele>
        <time>2014-03-02T13:26:28Z</time>
      </trkpt>
      <trkpt lat="43.70563" lon="3.14998">
        <ele>544.48</ele>
        <time>2014-03-02T13:26:35Z</time>
      </trkpt>
      <trkpt lat="43.70562" lon="3.15004">
        <ele>546.231</ele>
        <time>2014-03-02T13:26:42Z</time>
      </trkpt>
      <trkpt lat="43.70558" lon="3.15008">
        <ele>546.38</ele>
        <time>2014-03-02T13:26:49Z</time>
      </trkpt>
      <trkpt lat="43.70556" lon="3.15012">
        <ele>545.57</ele>
        <time>2014-03-02T13:26:54Z</time>
      </trkpt>
      <trkpt lat="43.70552" lon="3.15013">
        <ele>542.009</ele>
        <time>2014-03-02T13:27:01Z</time>
      </trkpt>
      <trkpt lat="43.70549" lon="3.15015">
        <ele>541.929</ele>
        <time>2014-03-02T13:27:09Z</time>
      </trkpt>
      <trkpt lat="43.70546" lon="3.15017">
        <ele>541.169</ele>
        <time>2014-03-02T13:27:16Z</time>
      </trkpt>
      <trkpt lat="43.70542" lon="3.1502">
        <ele>541.349</ele>
        <time>2014-03-02T13:27:22Z</time>
      </trkpt>
      <trkpt lat="43.70539" lon="3.15022">
        <ele>537.469</ele>
        <time>2014-03-02T13:27:32Z</time>
      </trkpt>
      <trkpt lat="43.70534" lon="3.15028">
        <ele>533.969</ele>
        <time>2014-03-02T13:27:44Z</time>
      </trkpt>
      <trkpt lat="43.7053" lon="3.15032">
        <ele>532.029</ele>
        <time>2014-03-02T13:27:50Z</time>
      </trkpt>
      <trkpt lat="43.70526" lon="3.15032">
        <ele>529.168</ele>
        <time>2014-03-02T13:27:56Z</time>
      </trkpt>
      <trkpt lat="43.70523" lon="3.15033">
        <ele>527.999</ele>
        <time>2014-03-02T13:28:02Z</time>
      </trkpt>
      <trkpt lat="43.70519" lon="3.15032">
        <ele>526.73</ele>
        <time>2014-03-02T13:28:08Z</time>
      </trkpt>
      <trkpt lat="43.70513" lon="3.15032">
        <ele>524.029</ele>
        <time>2014-03-02T13:28:15Z</time>
      </trkpt>
      <trkpt lat="43.70508" lon="3.15032">
        <ele>522.869</ele>
        <time>2014-03-02T13:28:22Z</time>
      </trkpt>
      <trkpt lat="43.70506" lon="3.15035">
        <ele>524.12</ele>
        <time>2014-03-02T13:28:28Z</time>
      </trkpt>
      <trkpt lat="43.70504" lon="3.15036">
        <ele>522.169</ele>
        <time>2014-03-02T13:28:35Z</time>
      </trkpt>
      <trkpt lat="43.70501" lon="3.15035">
        <ele>522.049</ele>
        <time>2014-03-02T13:28:44Z</time>
      </trkpt>
      <trkpt lat="43.70497" lon="3.15037">
        <ele>522.429</ele>
        <time>2014-03-02T13:28:53Z</time>
      </trkpt>
      <trkpt lat="43.70493" lon="3.15039">
        <ele>519.138</ele>
        <time>2014-03-02T13:29:02Z</time>
      </trkpt>
      <trkpt lat="43.70489" lon="3.1504">
        <ele>518.079</ele>
        <time>2014-03-02T13:29:08Z</time>
      </trkpt>
      <trkpt lat="43.7048" lon="3.15042">
        <ele>516.539</ele>
        <time>2014-03-02T13:29:30Z</time>
      </trkpt>
      <trkpt lat="43.70463" lon="3.15051">
        <ele>508.678</ele>
        <time>2014-03-02T13:30:03Z</time>
      </trkpt>
      <trkpt lat="43.70463" lon="3.15053">
        <ele>505.059</ele>
        <time>2014-03-02T13:30:11Z</time>
      </trkpt>
      <trkpt lat="43.70463" lon="3.15057">
        <ele>501.768</ele>
        <time>2014-03-02T13:30:21Z</time>
      </trkpt>
      <trkpt lat="43.70466" lon="3.1506">
        <ele>498.859</ele>
        <time>2014-03-02T13:30:28Z</time>
      </trkpt>
      <trkpt lat="43.70468" lon="3.15064">
        <ele>497.329</ele>
        <time>2014-03-02T13:30:34Z</time>
      </trkpt>
      <trkpt lat="43.70472" lon="3.15067">
        <ele>496.23</ele>
        <time>2014-03-02T13:30:40Z</time>
      </trkpt>
      <trkpt lat="43.70476" lon="3.15071">
        <ele>494.57</ele>
        <time>2014-03-02T13:30:48Z</time>
      </trkpt>
      <trkpt lat="43.70479" lon="3.15076">
        <ele>496</ele>
        <time>2014-03-02T13:30:59Z</time>
      </trkpt>
      <trkpt lat="43.70481" lon="3.15081">
        <ele>494.329</ele>
        <time>2014-03-02T13:31:09Z</time>
      </trkpt>
      <trkpt lat="43.70483" lon="3.15085">
        <ele>491.069</ele>
        <time>2014-03-02T13:31:16Z</time>
      </trkpt>
      <trkpt lat="43.70484" lon="3.1509">
        <ele>491.079</ele>
        <time>2014-03-02T13:31:23Z</time>
      </trkpt>
      <trkpt lat="43.70495" lon="3.15097">
        <ele>484.259</ele>
        <time>2014-03-02T13:32:12Z</time>
      </trkpt>
      <trkpt lat="43.70495" lon="3.15103">
        <ele>484.113</ele>
        <time>2014-03-02T13:32:23Z</time>
      </trkpt>
      <trkpt lat="43.70493" lon="3.1511">
        <ele>485.03</ele>
        <time>2014-03-02T13:32:32Z</time>
      </trkpt>
      <trkpt lat="43.70493" lon="3.15121">
        <ele>485.54</ele>
        <time>2014-03-02T13:32:49Z</time>
      </trkpt>
      <trkpt lat="43.70491" lon="3.15124">
        <ele>487.19</ele>
        <time>2014-03-02T13:32:56Z</time>
      </trkpt>
      <trkpt lat="43.70492" lon="3.15125">
        <ele>486.55</ele>
        <time>2014-03-02T13:33:06Z</time>
      </trkpt>
      <trkpt lat="43.70489" lon="3.15124">
        <ele>485.77</ele>
        <time>2014-03-02T13:33:11Z</time>
      </trkpt>
      <trkpt lat="43.70485" lon="3.15125">
        <ele>484.019</ele>
        <time>2014-03-02T13:33:18Z</time>
      </trkpt>
      <trkpt lat="43.70483" lon="3.15126">
        <ele>484.39</ele>
        <time>2014-03-02T13:33:22Z</time>
      </trkpt>
      <trkpt lat="43.70476" lon="3.15127">
        <ele>486.081</ele>
        <time>2014-03-02T13:33:30Z</time>
      </trkpt>
      <trkpt lat="43.70468" lon="3.15127">
        <ele>483.329</ele>
        <time>2014-03-02T13:33:38Z</time>
      </trkpt>
      <trkpt lat="43.70465" lon="3.15127">
        <ele>482.349</ele>
        <time>2014-03-02T13:33:45Z</time>
      </trkpt>
      <trkpt lat="43.70457" lon="3.15128">
        <ele>481.879</ele>
        <time>2014-03-02T13:34:00Z</time>
      </trkpt>
      <trkpt lat="43.70446" lon="3.1513">
        <ele>481.049</ele>
        <time>2014-03-02T13:34:21Z</time>
      </trkpt>
      <trkpt lat="43.70441" lon="3.15134">
        <ele>482.079</ele>
        <time>2014-03-02T13:34:31Z</time>
      </trkpt>
      <trkpt lat="43.70435" lon="3.15137">
        <ele>478.079</ele>
        <time>2014-03-02T13:34:39Z</time>
      </trkpt>
      <trkpt lat="43.70432" lon="3.15139">
        <ele>475.589</ele>
        <time>2014-03-02T13:34:45Z</time>
      </trkpt>
      <trkpt lat="43.70429" lon="3.1514">
        <ele>473.548</ele>
        <time>2014-03-02T13:34:52Z</time>
      </trkpt>
      <trkpt lat="43.70419" lon="3.15144">
        <ele>466.699</ele>
        <time>2014-03-02T13:35:12Z</time>
      </trkpt>
      <trkpt lat="43.70416" lon="3.15145">
        <ele>466.779</ele>
        <time>2014-03-02T13:35:17Z</time>
      </trkpt>
      <trkpt lat="43.70411" lon="3.15147">
        <ele>466.119</ele>
        <time>2014-03-02T13:35:25Z</time>
      </trkpt>
      <trkpt lat="43.70407" lon="3.1515">
        <ele>465.839</ele>
        <time>2014-03-02T13:35:31Z</time>
      </trkpt>
      <trkpt lat="43.70403" lon="3.15151">
        <ele>465.749</ele>
        <time>2014-03-02T13:35:37Z</time>
      </trkpt>
      <trkpt lat="43.704" lon="3.15151">
        <ele>465.399</ele>
        <time>2014-03-02T13:35:44Z</time>
      </trkpt>
      <trkpt lat="43.70396" lon="3.15151">
        <ele>464.359</ele>
        <time>2014-03-02T13:35:54Z</time>
      </trkpt>
      <trkpt lat="43.70391" lon="3.15153">
        <ele>462.519</ele>
        <time>2014-03-02T13:36:00Z</time>
      </trkpt>
      <trkpt lat="43.70387" lon="3.15153">
        <ele>460.269</ele>
        <time>2014-03-02T13:36:06Z</time>
      </trkpt>
      <trkpt lat="43.70383" lon="3.15154">
        <ele>458.599</ele>
        <time>2014-03-02T13:36:13Z</time>
      </trkpt>
      <trkpt lat="43.70378" lon="3.15158">
        <ele>455.329</ele>
        <time>2014-03-02T13:36:28Z</time>
      </trkpt>
      <trkpt lat="43.70375" lon="3.15161">
        <ele>453.769</ele>
        <time>2014-03-02T13:36:35Z</time>
      </trkpt>
      <trkpt lat="43.70372" lon="3.15164">
        <ele>451.119</ele>
        <time>2014-03-02T13:36:42Z</time>
      </trkpt>
      <trkpt lat="43.70368" lon="3.15167">
        <ele>448.647</ele>
        <time>2014-03-02T13:36:47Z</time>
      </trkpt>
      <trkpt lat="43.70362" lon="3.15174">
        <ele>449.119</ele>
        <time>2014-03-02T13:36:54Z</time>
      </trkpt>
      <trkpt lat="43.70355" lon="3.15177">
        <ele>448.189</ele>
        <time>2014-03-02T13:37:01Z</time>
      </trkpt>
      <trkpt lat="43.70351" lon="3.15177">
        <ele>446.799</ele>
        <time>2014-03-02T13:37:08Z</time>
      </trkpt>
      <trkpt lat="43.70349" lon="3.1518">
        <ele>445.139</ele>
        <time>2014-03-02T13:37:15Z</time>
      </trkpt>
      <trkpt lat="43.70339" lon="3.15177">
        <ele>445.271</ele>
        <time>2014-03-02T13:39:15Z</time>
      </trkpt>
      <trkpt lat="43.70334" lon="3.15174">
        <ele>445.469</ele>
        <time>2014-03-02T13:39:23Z</time>
      </trkpt>
      <trkpt lat="43.70331" lon="3.15173">
        <ele>445.729</ele>
        <time>2014-03-02T13:39:29Z</time>
      </trkpt>
      <trkpt lat="43.70329" lon="3.15172">
        <ele>445.749</ele>
        <time>2014-03-02T13:39:32Z</time>
      </trkpt>
      <trkpt lat="43.70322" lon="3.15169">
        <ele>445.519</ele>
        <time>2014-03-02T13:39:40Z</time>
      </trkpt>
      <trkpt lat="43.70316" lon="3.15167">
        <ele>445.93</ele>
        <time>2014-03-02T13:39:47Z</time>
      </trkpt>
      <trkpt lat="43.70312" lon="3.15164">
        <ele>445.059</ele>
        <time>2014-03-02T13:39:53Z</time>
      </trkpt>
      <trkpt lat="43.70308" lon="3.15162">
        <ele>443.689</ele>
        <time>2014-03-02T13:40:01Z</time>
      </trkpt>
      <trkpt lat="43.70301" lon="3.1516">
        <ele>441.178</ele>
        <time>2014-03-02T13:40:08Z</time>
      </trkpt>
      <trkpt lat="43.70294" lon="3.15157">
        <ele>440.479</ele>
        <time>2014-03-02T13:40:14Z</time>
      </trkpt>
      <trkpt lat="43.70286" lon="3.15152">
        <ele>439.379</ele>
        <time>2014-03-02T13:40:22Z</time>
      </trkpt>
      <trkpt lat="43.70279" lon="3.15147">
        <ele>437.589</ele>
        <time>2014-03-02T13:40:29Z</time>
      </trkpt>
      <trkpt lat="43.70273" lon="3.15142">
        <ele>435.638</ele>
        <time>2014-03-02T13:40:36Z</time>
      </trkpt>
      <trkpt lat="43.70265" lon="3.15139">
        <ele>435.289</ele>
        <time>2014-03-02T13:40:44Z</time>
      </trkpt>
      <trkpt lat="43.70256" lon="3.15134">
        <ele>434.999</ele>
        <time>2014-03-02T13:40:53Z</time>
      </trkpt>
      <trkpt lat="43.7025" lon="3.15129">
        <ele>434.109</ele>
        <time>2014-03-02T13:41:00Z</time>
      </trkpt>
      <trkpt lat="43.70242" lon="3.15123">
        <ele>433.489</ele>
        <time>2014-03-02T13:41:09Z</time>
      </trkpt>
      <trkpt lat="43.70232" lon="3.15119">
        <ele>432.629</ele>
        <time>2014-03-02T13:41:18Z</time>
      </trkpt>
      <trkpt lat="43.70227" lon="3.15117">
        <ele>432.809</ele>
        <time>2014-03-02T13:41:24Z</time>
      </trkpt>
      <trkpt lat="43.70221" lon="3.15116">
        <ele>432.559</ele>
        <time>2014-03-02T13:41:31Z</time>
      </trkpt>
      <trkpt lat="43.70218" lon="3.15114">
        <ele>430.939</ele>
        <time>2014-03-02T13:41:40Z</time>
      </trkpt>
      <trkpt lat="43.70213" lon="3.15113">
        <ele>429.899</ele>
        <time>2014-03-02T13:41:48Z</time>
      </trkpt>
      <trkpt lat="43.70206" lon="3.1511">
        <ele>428.978</ele>
        <time>2014-03-02T13:41:54Z</time>
      </trkpt>
      <trkpt lat="43.70198" lon="3.15107">
        <ele>427.238</ele>
        <time>2014-03-02T13:42:01Z</time>
      </trkpt>
      <trkpt lat="43.70189" lon="3.15104">
        <ele>426.269</ele>
        <time>2014-03-02T13:42:09Z</time>
      </trkpt>
      <trkpt lat="43.70184" lon="3.15103">
        <ele>426.099</ele>
        <time>2014-03-02T13:42:13Z</time>
      </trkpt>
      <trkpt lat="43.70175" lon="3.151">
        <ele>425.699</ele>
        <time>2014-03-02T13:42:21Z</time>
      </trkpt>
      <trkpt lat="43.70167" lon="3.15095">
        <ele>425.439</ele>
        <time>2014-03-02T13:42:29Z</time>
      </trkpt>
      <trkpt lat="43.70159" lon="3.15089">
        <ele>425.859</ele>
        <time>2014-03-02T13:42:38Z</time>
      </trkpt>
      <trkpt lat="43.70156" lon="3.15086">
        <ele>426.109</ele>
        <time>2014-03-02T13:42:42Z</time>
      </trkpt>
      <trkpt lat="43.7015" lon="3.15083">
        <ele>426.308</ele>
        <time>2014-03-02T13:42:49Z</time>
      </trkpt>
      <trkpt lat="43.70149" lon="3.15083">
        <ele>425.868</ele>
        <time>2014-03-02T13:42:57Z</time>
      </trkpt>
      <trkpt lat="43.70144" lon="3.1508">
        <ele>426.369</ele>
        <time>2014-03-02T13:43:06Z</time>
      </trkpt>
      <trkpt lat="43.70134" lon="3.15073">
        <ele>428.009</ele>
        <time>2014-03-02T13:43:15Z</time>
      </trkpt>
      <trkpt lat="43.7013" lon="3.15068">
        <ele>428.538</ele>
        <time>2014-03-02T13:43:22Z</time>
      </trkpt>
      <trkpt lat="43.70126" lon="3.15068">
        <ele>427.368</ele>
        <time>2014-03-02T13:44:01Z</time>
      </trkpt>
      <trkpt lat="43.70122" lon="3.15071">
        <ele>426.808</ele>
        <time>2014-03-02T13:44:09Z</time>
      </trkpt>
      <trkpt lat="43.70119" lon="3.15074">
        <ele>424.788</ele>
        <time>2014-03-02T13:44:17Z</time>
      </trkpt>
      <trkpt lat="43.70119" lon="3.15077">
        <ele>423.648</ele>
        <time>2014-03-02T13:44:30Z</time>
      </trkpt>
      <trkpt lat="43.7012" lon="3.1508">
        <ele>423.678</ele>
        <time>2014-03-02T13:44:35Z</time>
      </trkpt>
      <trkpt lat="43.70121" lon="3.15082">
        <ele>423.458</ele>
        <time>2014-03-02T13:44:39Z</time>
      </trkpt>
      <trkpt lat="43.70126" lon="3.15088">
        <ele>423.238</ele>
        <time>2014-03-02T13:44:48Z</time>
      </trkpt>
      <trkpt lat="43.70129" lon="3.15093">
        <ele>423.198</ele>
        <time>2014-03-02T13:44:55Z</time>
      </trkpt>
      <trkpt lat="43.70132" lon="3.15097">
        <ele>423.609</ele>
        <time>2014-03-02T13:45:01Z</time>
      </trkpt>
      <trkpt lat="43.70135" lon="3.15104">
        <ele>423.759</ele>
        <time>2014-03-02T13:45:09Z</time>
      </trkpt>
      <trkpt lat="43.70138" lon="3.1511">
        <ele>423.878</ele>
        <time>2014-03-02T13:45:17Z</time>
      </trkpt>
      <trkpt lat="43.70139" lon="3.15113">
        <ele>422.858</ele>
        <time>2014-03-02T13:45:20Z</time>
      </trkpt>
      <trkpt lat="43.70144" lon="3.1512">
        <ele>419.978</ele>
        <time>2014-03-02T13:45:28Z</time>
      </trkpt>
      <trkpt lat="43.70148" lon="3.15126">
        <ele>419.099</ele>
        <time>2014-03-02T13:45:36Z</time>
      </trkpt>
      <trkpt lat="43.7015" lon="3.15129">
        <ele>418.248</ele>
        <time>2014-03-02T13:45:44Z</time>
      </trkpt>
      <trkpt lat="43.70153" lon="3.15132">
        <ele>415.308</ele>
        <time>2014-03-02T13:45:50Z</time>
      </trkpt>
      <trkpt lat="43.70155" lon="3.15133">
        <ele>413.128</ele>
        <time>2014-03-02T13:45:56Z</time>
      </trkpt>
      <trkpt lat="43.70157" lon="3.15137">
        <ele>411.468</ele>
        <time>2014-03-02T13:46:05Z</time>
      </trkpt>
      <trkpt lat="43.70158" lon="3.15138">
        <ele>410.618</ele>
        <time>2014-03-02T13:46:16Z</time>
      </trkpt>
      <trkpt lat="43.70159" lon="3.15142">
        <ele>408.158</ele>
        <time>2014-03-02T13:47:18Z</time>
      </trkpt>
      <trkpt lat="43.70157" lon="3.15144">
        <ele>407.908</ele>
        <time>2014-03-02T13:47:23Z</time>
      </trkpt>
      <trkpt lat="43.70154" lon="3.15146">
        <ele>407.488</ele>
        <time>2014-03-02T13:47:28Z</time>
      </trkpt>
      <trkpt lat="43.70147" lon="3.15153">
        <ele>406.688</ele>
        <time>2014-03-02T13:47:38Z</time>
      </trkpt>
      <trkpt lat="43.70143" lon="3.15162">
        <ele>405.218</ele>
        <time>2014-03-02T13:47:47Z</time>
      </trkpt>
      <trkpt lat="43.70139" lon="3.1517">
        <ele>404.008</ele>
        <time>2014-03-02T13:47:55Z</time>
      </trkpt>
      <trkpt lat="43.70136" lon="3.1518">
        <ele>402.318</ele>
        <time>2014-03-02T13:48:03Z</time>
      </trkpt>
      <trkpt lat="43.70132" lon="3.15185">
        <ele>400.488</ele>
        <time>2014-03-02T13:48:11Z</time>
      </trkpt>
      <trkpt lat="43.70129" lon="3.15188">
        <ele>399.418</ele>
        <time>2014-03-02T13:48:19Z</time>
      </trkpt>
      <trkpt lat="43.7012" lon="3.15193">
        <ele>398.348</ele>
        <time>2014-03-02T13:48:29Z</time>
      </trkpt>
      <trkpt lat="43.70114" lon="3.15197">
        <ele>397.548</ele>
        <time>2014-03-02T13:48:36Z</time>
      </trkpt>
      <trkpt lat="43.7011" lon="3.15206">
        <ele>396.278</ele>
        <time>2014-03-02T13:48:44Z</time>
      </trkpt>
      <trkpt lat="43.70106" lon="3.1522">
        <ele>394.458</ele>
        <time>2014-03-02T13:48:54Z</time>
      </trkpt>
      <trkpt lat="43.70104" lon="3.15223">
        <ele>395.079</ele>
        <time>2014-03-02T13:48:57Z</time>
      </trkpt>
      <trkpt lat="43.70095" lon="3.15226">
        <ele>394.438</ele>
        <time>2014-03-02T13:49:05Z</time>
      </trkpt>
      <trkpt lat="43.70094" lon="3.15225">
        <ele>394.558</ele>
        <time>2014-03-02T13:49:06Z</time>
      </trkpt>
      <trkpt lat="43.70088" lon="3.15226">
        <ele>393.458</ele>
        <time>2014-03-02T13:49:12Z</time>
      </trkpt>
      <trkpt lat="43.70083" lon="3.15233">
        <ele>392.918</ele>
        <time>2014-03-02T13:49:20Z</time>
      </trkpt>
      <trkpt lat="43.70083" lon="3.15239">
        <ele>392.108</ele>
        <time>2014-03-02T13:49:25Z</time>
      </trkpt>
      <trkpt lat="43.70085" lon="3.15248">
        <ele>391.119</ele>
        <time>2014-03-02T13:49:34Z</time>
      </trkpt>
      <trkpt lat="43.70086" lon="3.15252">
        <ele>390.198</ele>
        <time>2014-03-02T13:49:40Z</time>
      </trkpt>
      <trkpt lat="43.70087" lon="3.15254">
        <ele>389.598</ele>
        <time>2014-03-02T13:49:42Z</time>
      </trkpt>
      <trkpt lat="43.70089" lon="3.15259">
        <ele>388.288</ele>
        <time>2014-03-02T13:49:46Z</time>
      </trkpt>
      <trkpt lat="43.70094" lon="3.15269">
        <ele>383.948</ele>
        <time>2014-03-02T13:49:56Z</time>
      </trkpt>
      <trkpt lat="43.701" lon="3.15279">
        <ele>380.688</ele>
        <time>2014-03-02T13:50:06Z</time>
      </trkpt>
      <trkpt lat="43.70104" lon="3.15291">
        <ele>377.838</ele>
        <time>2014-03-02T13:50:16Z</time>
      </trkpt>
      <trkpt lat="43.70106" lon="3.15302">
        <ele>375.568</ele>
        <time>2014-03-02T13:50:25Z</time>
      </trkpt>
      <trkpt lat="43.70108" lon="3.15308">
        <ele>373.858</ele>
        <time>2014-03-02T13:50:31Z</time>
      </trkpt>
      <trkpt lat="43.70112" lon="3.15321">
        <ele>371.498</ele>
        <time>2014-03-02T13:50:40Z</time>
      </trkpt>
      <trkpt lat="43.70113" lon="3.15326">
        <ele>370.107</ele>
        <time>2014-03-02T13:50:44Z</time>
      </trkpt>
      <trkpt lat="43.70113" lon="3.15331">
        <ele>369.518</ele>
        <time>2014-03-02T13:50:48Z</time>
      </trkpt>
      <trkpt lat="43.70108" lon="3.15342">
        <ele>368.889</ele>
        <time>2014-03-02T13:50:58Z</time>
      </trkpt>
      <trkpt lat="43.70102" lon="3.15348">
        <ele>368.219</ele>
        <time>2014-03-02T13:51:06Z</time>
      </trkpt>
      <trkpt lat="43.70096" lon="3.15355">
        <ele>367.328</ele>
        <time>2014-03-02T13:51:14Z</time>
      </trkpt>
      <trkpt lat="43.70089" lon="3.15365">
        <ele>365.048</ele>
        <time>2014-03-02T13:51:24Z</time>
      </trkpt>
      <trkpt lat="43.70088" lon="3.1537">
        <ele>365.429</ele>
        <time>2014-03-02T13:51:31Z</time>
      </trkpt>
      <trkpt lat="43.70084" lon="3.15366">
        <ele>369.059</ele>
        <time>2014-03-02T13:51:53Z</time>
      </trkpt>
      <trkpt lat="43.70083" lon="3.15373">
        <ele>366.788</ele>
        <time>2014-03-02T13:52:00Z</time>
      </trkpt>
      <trkpt lat="43.70084" lon="3.15378">
        <ele>365.698</ele>
        <time>2014-03-02T13:52:04Z</time>
      </trkpt>
      <trkpt lat="43.70086" lon="3.15393">
        <ele>362.288</ele>
        <time>2014-03-02T13:52:15Z</time>
      </trkpt>
      <trkpt lat="43.70086" lon="3.15395">
        <ele>361.938</ele>
        <time>2014-03-02T13:52:17Z</time>
      </trkpt>
      <trkpt lat="43.70087" lon="3.15402">
        <ele>360.128</ele>
        <time>2014-03-02T13:52:21Z</time>
      </trkpt>
      <trkpt lat="43.7009" lon="3.15414">
        <ele>356.768</ele>
        <time>2014-03-02T13:52:29Z</time>
      </trkpt>
      <trkpt lat="43.70091" lon="3.15425">
        <ele>355.268</ele>
        <time>2014-03-02T13:52:37Z</time>
      </trkpt>
      <trkpt lat="43.70095" lon="3.15433">
        <ele>354.388</ele>
        <time>2014-03-02T13:52:43Z</time>
      </trkpt>
      <trkpt lat="43.70097" lon="3.15439">
        <ele>354.149</ele>
        <time>2014-03-02T13:52:51Z</time>
      </trkpt>
      <trkpt lat="43.70097" lon="3.15442">
        <ele>355.239</ele>
        <time>2014-03-02T13:53:03Z</time>
      </trkpt>
      <trkpt lat="43.70098" lon="3.15446">
        <ele>355.969</ele>
        <time>2014-03-02T13:53:09Z</time>
      </trkpt>
      <trkpt lat="43.70099" lon="3.15448">
        <ele>356.319</ele>
        <time>2014-03-02T13:53:11Z</time>
      </trkpt>
      <trkpt lat="43.70102" lon="3.15455">
        <ele>356.989</ele>
        <time>2014-03-02T13:53:19Z</time>
      </trkpt>
      <trkpt lat="43.70108" lon="3.15465">
        <ele>356.569</ele>
        <time>2014-03-02T13:53:29Z</time>
      </trkpt>
      <trkpt lat="43.7011" lon="3.1547">
        <ele>355.029</ele>
        <time>2014-03-02T13:53:36Z</time>
      </trkpt>
      <trkpt lat="43.70111" lon="3.15472">
        <ele>354.249</ele>
        <time>2014-03-02T13:53:40Z</time>
      </trkpt>
      <trkpt lat="43.7011" lon="3.1548">
        <ele>352.959</ele>
        <time>2014-03-02T13:53:49Z</time>
      </trkpt>
      <trkpt lat="43.70108" lon="3.15482">
        <ele>352.039</ele>
        <time>2014-03-02T13:54:02Z</time>
      </trkpt>
      <trkpt lat="43.70102" lon="3.15486">
        <ele>351.269</ele>
        <time>2014-03-02T13:54:11Z</time>
      </trkpt>
      <trkpt lat="43.70095" lon="3.1549">
        <ele>349.699</ele>
        <time>2014-03-02T13:54:22Z</time>
      </trkpt>
      <trkpt lat="43.7009" lon="3.15495">
        <ele>348.499</ele>
        <time>2014-03-02T13:54:30Z</time>
      </trkpt>
      <trkpt lat="43.70085" lon="3.15501">
        <ele>346.548</ele>
        <time>2014-03-02T13:54:39Z</time>
      </trkpt>
      <trkpt lat="43.70081" lon="3.1551">
        <ele>344.238</ele>
        <time>2014-03-02T13:54:49Z</time>
      </trkpt>
      <trkpt lat="43.7008" lon="3.15513">
        <ele>343.439</ele>
        <time>2014-03-02T13:54:58Z</time>
      </trkpt>
      <trkpt lat="43.70078" lon="3.1552">
        <ele>342.248</ele>
        <time>2014-03-02T13:55:05Z</time>
      </trkpt>
      <trkpt lat="43.70078" lon="3.15535">
        <ele>340.798</ele>
        <time>2014-03-02T13:55:16Z</time>
      </trkpt>
      <trkpt lat="43.7008" lon="3.15546">
        <ele>340.079</ele>
        <time>2014-03-02T13:55:25Z</time>
      </trkpt>
      <trkpt lat="43.70081" lon="3.15552">
        <ele>340.019</ele>
        <time>2014-03-02T13:55:33Z</time>
      </trkpt>
      <trkpt lat="43.70085" lon="3.15558">
        <ele>340.009</ele>
        <time>2014-03-02T13:55:40Z</time>
      </trkpt>
      <trkpt lat="43.70092" lon="3.15568">
        <ele>340.469</ele>
        <time>2014-03-02T13:55:50Z</time>
      </trkpt>
      <trkpt lat="43.70098" lon="3.15575">
        <ele>342.089</ele>
        <time>2014-03-02T13:55:59Z</time>
      </trkpt>
      <trkpt lat="43.70103" lon="3.15579">
        <ele>342.149</ele>
        <time>2014-03-02T13:56:07Z</time>
      </trkpt>
      <trkpt lat="43.70113" lon="3.15583">
        <ele>340.68</ele>
        <time>2014-03-02T13:56:16Z</time>
      </trkpt>
      <trkpt lat="43.70127" lon="3.15585">
        <ele>338.589</ele>
        <time>2014-03-02T13:56:29Z</time>
      </trkpt>
      <trkpt lat="43.70128" lon="3.15586">
        <ele>338.389</ele>
        <time>2014-03-02T13:56:30Z</time>
      </trkpt>
      <trkpt lat="43.70139" lon="3.15586">
        <ele>337.309</ele>
        <time>2014-03-02T13:56:40Z</time>
      </trkpt>
      <trkpt lat="43.7015" lon="3.15587">
        <ele>336.259</ele>
        <time>2014-03-02T13:56:51Z</time>
      </trkpt>
      <trkpt lat="43.70156" lon="3.15587">
        <ele>335.789</ele>
        <time>2014-03-02T13:56:57Z</time>
      </trkpt>
      <trkpt lat="43.70159" lon="3.15589">
        <ele>336.339</ele>
        <time>2014-03-02T13:57:01Z</time>
      </trkpt>
      <trkpt lat="43.70164" lon="3.15589">
        <ele>336.009</ele>
        <time>2014-03-02T13:57:10Z</time>
      </trkpt>
      <trkpt lat="43.70167" lon="3.1559">
        <ele>334.639</ele>
        <time>2014-03-02T13:57:23Z</time>
      </trkpt>
      <trkpt lat="43.7017" lon="3.15591">
        <ele>337.573</ele>
        <time>2014-03-02T13:57:31Z</time>
      </trkpt>
      <trkpt lat="43.70165" lon="3.15595">
        <ele>345.22</ele>
        <time>2014-03-02T13:57:54Z</time>
      </trkpt>
      <trkpt lat="43.70162" lon="3.15599">
        <ele>344.109</ele>
        <time>2014-03-02T13:58:00Z</time>
      </trkpt>
      <trkpt lat="43.7016" lon="3.15605">
        <ele>342.749</ele>
        <time>2014-03-02T13:58:05Z</time>
      </trkpt>
      <trkpt lat="43.70156" lon="3.15616">
        <ele>340.629</ele>
        <time>2014-03-02T13:58:15Z</time>
      </trkpt>
      <trkpt lat="43.70151" lon="3.15628">
        <ele>338.819</ele>
        <time>2014-03-02T13:58:25Z</time>
      </trkpt>
      <trkpt lat="43.70143" lon="3.15642">
        <ele>336.469</ele>
        <time>2014-03-02T13:58:38Z</time>
      </trkpt>
      <trkpt lat="43.70138" lon="3.15653">
        <ele>335.209</ele>
        <time>2014-03-02T13:58:49Z</time>
      </trkpt>
      <trkpt lat="43.70131" lon="3.15665">
        <ele>333.829</ele>
        <time>2014-03-02T13:59:02Z</time>
      </trkpt>
      <trkpt lat="43.70124" lon="3.15675">
        <ele>332.529</ele>
        <time>2014-03-02T13:59:13Z</time>
      </trkpt>
      <trkpt lat="43.70118" lon="3.15686">
        <ele>331.129</ele>
        <time>2014-03-02T13:59:23Z</time>
      </trkpt>
      <trkpt lat="43.70112" lon="3.15698">
        <ele>329.609</ele>
        <time>2014-03-02T13:59:34Z</time>
      </trkpt>
      <trkpt lat="43.70109" lon="3.15703">
        <ele>328.159</ele>
        <time>2014-03-02T13:59:41Z</time>
      </trkpt>
      <trkpt lat="43.70104" lon="3.1571">
        <ele>327.109</ele>
        <time>2014-03-02T13:59:48Z</time>
      </trkpt>
      <trkpt lat="43.70099" lon="3.15722">
        <ele>326.189</ele>
        <time>2014-03-02T13:59:59Z</time>
      </trkpt>
      <trkpt lat="43.70096" lon="3.15728">
        <ele>325.769</ele>
        <time>2014-03-02T14:00:04Z</time>
      </trkpt>
      <trkpt lat="43.70093" lon="3.15736">
        <ele>325.069</ele>
        <time>2014-03-02T14:00:13Z</time>
      </trkpt>
      <trkpt lat="43.70091" lon="3.15742">
        <ele>324.699</ele>
        <time>2014-03-02T14:00:19Z</time>
      </trkpt>
      <trkpt lat="43.70085" lon="3.15757">
        <ele>323.249</ele>
        <time>2014-03-02T14:00:30Z</time>
      </trkpt>
      <trkpt lat="43.70081" lon="3.15767">
        <ele>320.809</ele>
        <time>2014-03-02T14:00:39Z</time>
      </trkpt>
      <trkpt lat="43.70077" lon="3.15775">
        <ele>319.109</ele>
        <time>2014-03-02T14:00:47Z</time>
      </trkpt>
      <trkpt lat="43.70073" lon="3.15785">
        <ele>318.399</ele>
        <time>2014-03-02T14:00:55Z</time>
      </trkpt>
      <trkpt lat="43.70068" lon="3.15798">
        <ele>317.189</ele>
        <time>2014-03-02T14:01:05Z</time>
      </trkpt>
      <trkpt lat="43.70063" lon="3.15808">
        <ele>315.839</ele>
        <time>2014-03-02T14:01:14Z</time>
      </trkpt>
      <trkpt lat="43.70055" lon="3.15823">
        <ele>314.859</ele>
        <time>2014-03-02T14:01:26Z</time>
      </trkpt>
      <trkpt lat="43.70052" lon="3.15833">
        <ele>314.259</ele>
        <time>2014-03-02T14:01:34Z</time>
      </trkpt>
      <trkpt lat="43.70048" lon="3.15847">
        <ele>313.679</ele>
        <time>2014-03-02T14:01:44Z</time>
      </trkpt>
      <trkpt lat="43.70046" lon="3.15863">
        <ele>312.879</ele>
        <time>2014-03-02T14:01:56Z</time>
      </trkpt>
      <trkpt lat="43.70044" lon="3.15874">
        <ele>312.389</ele>
        <time>2014-03-02T14:02:07Z</time>
      </trkpt>
      <trkpt lat="43.70044" lon="3.15883">
        <ele>312.019</ele>
        <time>2014-03-02T14:02:17Z</time>
      </trkpt>
      <trkpt lat="43.70042" lon="3.15896">
        <ele>311.169</ele>
        <time>2014-03-02T14:02:27Z</time>
      </trkpt>
      <trkpt lat="43.7004" lon="3.15915">
        <ele>309.809</ele>
        <time>2014-03-02T14:02:39Z</time>
      </trkpt>
      <trkpt lat="43.70037" lon="3.1593">
        <ele>308.849</ele>
        <time>2014-03-02T14:02:49Z</time>
      </trkpt>
      <trkpt lat="43.70035" lon="3.15936">
        <ele>308.51</ele>
        <time>2014-03-02T14:02:56Z</time>
      </trkpt>
      <trkpt lat="43.70035" lon="3.15937">
        <ele>308.489</ele>
        <time>2014-03-02T14:02:58Z</time>
      </trkpt>
      <trkpt lat="43.70033" lon="3.15951">
        <ele>307.619</ele>
        <time>2014-03-02T14:03:08Z</time>
      </trkpt>
      <trkpt lat="43.70028" lon="3.15969">
        <ele>306.589</ele>
        <time>2014-03-02T14:03:21Z</time>
      </trkpt>
      <trkpt lat="43.70026" lon="3.15979">
        <ele>306.63</ele>
        <time>2014-03-02T14:03:29Z</time>
      </trkpt>
      <trkpt lat="43.70022" lon="3.15994">
        <ele>305.809</ele>
        <time>2014-03-02T14:03:39Z</time>
      </trkpt>
      <trkpt lat="43.70018" lon="3.16006">
        <ele>305.15</ele>
        <time>2014-03-02T14:03:49Z</time>
      </trkpt>
      <trkpt lat="43.70017" lon="3.16011">
        <ele>305.03</ele>
        <time>2014-03-02T14:03:56Z</time>
      </trkpt>
      <trkpt lat="43.70015" lon="3.16013">
        <ele>304.93</ele>
        <time>2014-03-02T14:03:59Z</time>
      </trkpt>
      <trkpt lat="43.7001" lon="3.16025">
        <ele>304.379</ele>
        <time>2014-03-02T14:04:09Z</time>
      </trkpt>
      <trkpt lat="43.70004" lon="3.16039">
        <ele>303.149</ele>
        <time>2014-03-02T14:04:19Z</time>
      </trkpt>
      <trkpt lat="43.69998" lon="3.16054">
        <ele>301.7</ele>
        <time>2014-03-02T14:04:31Z</time>
      </trkpt>
      <trkpt lat="43.69994" lon="3.16064">
        <ele>300.941</ele>
        <time>2014-03-02T14:04:39Z</time>
      </trkpt>
      <trkpt lat="43.69991" lon="3.1607">
        <ele>301.13</ele>
        <time>2014-03-02T14:04:44Z</time>
      </trkpt>
      <trkpt lat="43.69992" lon="3.16073">
        <ele>301.08</ele>
        <time>2014-03-02T14:04:48Z</time>
      </trkpt>
      <trkpt lat="43.69989" lon="3.16084">
        <ele>301.01</ele>
        <time>2014-03-02T14:04:56Z</time>
      </trkpt>
      <trkpt lat="43.69987" lon="3.16091">
        <ele>301.38</ele>
        <time>2014-03-02T14:05:01Z</time>
      </trkpt>
      <trkpt lat="43.69984" lon="3.16097">
        <ele>302.23</ele>
        <time>2014-03-02T14:05:09Z</time>
      </trkpt>
      <trkpt lat="43.69982" lon="3.16103">
        <ele>302.82</ele>
        <time>2014-03-02T14:05:16Z</time>
      </trkpt>
      <trkpt lat="43.69978" lon="3.16117">
        <ele>301.56</ele>
        <time>2014-03-02T14:05:26Z</time>
      </trkpt>
      <trkpt lat="43.69974" lon="3.16131">
        <ele>301.65</ele>
        <time>2014-03-02T14:05:36Z</time>
      </trkpt>
      <trkpt lat="43.69969" lon="3.16153">
        <ele>301.05</ele>
        <time>2014-03-02T14:05:50Z</time>
      </trkpt>
      <trkpt lat="43.69968" lon="3.16162">
        <ele>300.2</ele>
        <time>2014-03-02T14:05:58Z</time>
      </trkpt>
      <trkpt lat="43.69968" lon="3.16172">
        <ele>299.98</ele>
        <time>2014-03-02T14:06:06Z</time>
      </trkpt>
      <trkpt lat="43.69965" lon="3.16184">
        <ele>300.761</ele>
        <time>2014-03-02T14:06:16Z</time>
      </trkpt>
      <trkpt lat="43.69965" lon="3.16194">
        <ele>301.211</ele>
        <time>2014-03-02T14:06:25Z</time>
      </trkpt>
      <trkpt lat="43.69963" lon="3.16202">
        <ele>301.821</ele>
        <time>2014-03-02T14:06:34Z</time>
      </trkpt>
      <trkpt lat="43.69962" lon="3.1621">
        <ele>303.251</ele>
        <time>2014-03-02T14:06:43Z</time>
      </trkpt>
      <trkpt lat="43.6996" lon="3.16217">
        <ele>302.57</ele>
        <time>2014-03-02T14:06:52Z</time>
      </trkpt>
      <trkpt lat="43.69959" lon="3.1622">
        <ele>302.45</ele>
        <time>2014-03-02T14:06:56Z</time>
      </trkpt>
      <trkpt lat="43.69955" lon="3.16225">
        <ele>303.981</ele>
        <time>2014-03-02T14:07:02Z</time>
      </trkpt>
      <trkpt lat="43.69947" lon="3.16234">
        <ele>306.351</ele>
        <time>2014-03-02T14:07:13Z</time>
      </trkpt>
      <trkpt lat="43.69939" lon="3.1624">
        <ele>307.661</ele>
        <time>2014-03-02T14:07:23Z</time>
      </trkpt>
      <trkpt lat="43.69929" lon="3.16244">
        <ele>309.18</ele>
        <time>2014-03-02T14:07:34Z</time>
      </trkpt>
      <trkpt lat="43.69924" lon="3.16252">
        <ele>309.89</ele>
        <time>2014-03-02T14:07:42Z</time>
      </trkpt>
      <trkpt lat="43.69922" lon="3.16262">
        <ele>310.901</ele>
        <time>2014-03-02T14:07:51Z</time>
      </trkpt>
      <trkpt lat="43.69922" lon="3.16269">
        <ele>310.72</ele>
        <time>2014-03-02T14:07:58Z</time>
      </trkpt>
      <trkpt lat="43.69924" lon="3.16275">
        <ele>310.44</ele>
        <time>2014-03-02T14:08:04Z</time>
      </trkpt>
      <trkpt lat="43.6993" lon="3.16277">
        <ele>311.771</ele>
        <time>2014-03-02T14:08:13Z</time>
      </trkpt>
      <trkpt lat="43.69924" lon="3.16273">
        <ele>316.28</ele>
        <time>2014-03-02T14:08:42Z</time>
      </trkpt>
      <trkpt lat="43.69923" lon="3.16274">
        <ele>314.38</ele>
        <time>2014-03-02T14:08:48Z</time>
      </trkpt>
      <trkpt lat="43.69919" lon="3.16271">
        <ele>310.67</ele>
        <time>2014-03-02T14:08:58Z</time>
      </trkpt>
      <trkpt lat="43.69916" lon="3.16272">
        <ele>310.15</ele>
        <time>2014-03-02T14:09:05Z</time>
      </trkpt>
      <trkpt lat="43.69919" lon="3.16272">
        <ele>309.02</ele>
        <time>2014-03-02T14:09:23Z</time>
      </trkpt>
      <trkpt lat="43.69918" lon="3.16271">
        <ele>307.77</ele>
        <time>2014-03-02T14:09:48Z</time>
      </trkpt>
      <trkpt lat="43.69915" lon="3.1627">
        <ele>307.34</ele>
        <time>2014-03-02T14:09:55Z</time>
      </trkpt>
      <trkpt lat="43.69918" lon="3.16272">
        <ele>307.31</ele>
        <time>2014-03-02T14:10:05Z</time>
      </trkpt>
      <trkpt lat="43.69918" lon="3.16273">
        <ele>307.91</ele>
        <time>2014-03-02T14:10:14Z</time>
      </trkpt>
      <trkpt lat="43.69918" lon="3.16275">
        <ele>308.3</ele>
        <time>2014-03-02T14:10:26Z</time>
      </trkpt>
      <trkpt lat="43.69918" lon="3.16279">
        <ele>308.29</ele>
        <time>2014-03-02T14:10:33Z</time>
      </trkpt>
      <trkpt lat="43.69918" lon="3.16283">
        <ele>307.76</ele>
        <time>2014-03-02T14:10:39Z</time>
      </trkpt>
      <trkpt lat="43.69917" lon="3.16285">
        <ele>307.64</ele>
        <time>2014-03-02T14:10:47Z</time>
      </trkpt>
      <trkpt lat="43.69915" lon="3.16291">
        <ele>306.03</ele>
        <time>2014-03-02T14:11:02Z</time>
      </trkpt>
      <trkpt lat="43.69911" lon="3.16297">
        <ele>305.6</ele>
        <time>2014-03-02T14:11:12Z</time>
      </trkpt>
      <trkpt lat="43.69906" lon="3.16303">
        <ele>302.569</ele>
        <time>2014-03-02T14:11:23Z</time>
      </trkpt>
      <trkpt lat="43.69899" lon="3.16309">
        <ele>299.48</ele>
        <time>2014-03-02T14:11:36Z</time>
      </trkpt>
      <trkpt lat="43.69894" lon="3.16312">
        <ele>299.46</ele>
        <time>2014-03-02T14:11:45Z</time>
      </trkpt>
      <trkpt lat="43.6989" lon="3.16316">
        <ele>301.221</ele>
        <time>2014-03-02T14:11:54Z</time>
      </trkpt>
      <trkpt lat="43.69887" lon="3.16318">
        <ele>302.471</ele>
        <time>2014-03-02T14:12:00Z</time>
      </trkpt>
      <trkpt lat="43.69882" lon="3.1632">
        <ele>302.78</ele>
        <time>2014-03-02T14:12:09Z</time>
      </trkpt>
      <trkpt lat="43.6988" lon="3.16321">
        <ele>303.49</ele>
        <time>2014-03-02T14:12:14Z</time>
      </trkpt>
      <trkpt lat="43.69878" lon="3.16322">
        <ele>301.1</ele>
        <time>2014-03-02T14:12:21Z</time>
      </trkpt>
      <trkpt lat="43.69875" lon="3.16324">
        <ele>298.95</ele>
        <time>2014-03-02T14:12:30Z</time>
      </trkpt>
      <trkpt lat="43.69874" lon="3.16325">
        <ele>299.12</ele>
        <time>2014-03-02T14:12:33Z</time>
      </trkpt>
      <trkpt lat="43.69867" lon="3.16328">
        <ele>302.051</ele>
        <time>2014-03-02T14:12:40Z</time>
      </trkpt>
      <trkpt lat="43.69863" lon="3.16331">
        <ele>302.449</ele>
        <time>2014-03-02T14:12:51Z</time>
      </trkpt>
      <trkpt lat="43.6986" lon="3.16333">
        <ele>305.01</ele>
        <time>2014-03-02T14:12:57Z</time>
      </trkpt>
      <trkpt lat="43.6986" lon="3.1633">
        <ele>298.849</ele>
        <time>2014-03-02T14:13:04Z</time>
      </trkpt>
      <trkpt lat="43.69858" lon="3.16331">
        <ele>298.349</ele>
        <time>2014-03-02T14:13:16Z</time>
      </trkpt>
      <trkpt lat="43.69855" lon="3.16333">
        <ele>299.55</ele>
        <time>2014-03-02T14:13:21Z</time>
      </trkpt>
      <trkpt lat="43.69849" lon="3.16337">
        <ele>302.35</ele>
        <time>2014-03-02T14:13:34Z</time>
      </trkpt>
      <trkpt lat="43.69846" lon="3.16338">
        <ele>302.109</ele>
        <time>2014-03-02T14:13:39Z</time>
      </trkpt>
      <trkpt lat="43.69844" lon="3.16339">
        <ele>302.61</ele>
        <time>2014-03-02T14:13:45Z</time>
      </trkpt>
      <trkpt lat="43.69841" lon="3.1634">
        <ele>301.139</ele>
        <time>2014-03-02T14:13:51Z</time>
      </trkpt>
      <trkpt lat="43.69838" lon="3.16339">
        <ele>294.038</ele>
        <time>2014-03-02T14:14:00Z</time>
      </trkpt>
      <trkpt lat="43.69837" lon="3.16339">
        <ele>289.519</ele>
        <time>2014-03-02T14:14:06Z</time>
      </trkpt>
      <trkpt lat="43.69834" lon="3.16337">
        <ele>287.499</ele>
        <time>2014-03-02T14:14:12Z</time>
      </trkpt>
      <trkpt lat="43.69833" lon="3.16336">
        <ele>288.57</ele>
        <time>2014-03-02T14:14:18Z</time>
      </trkpt>
      <trkpt lat="43.6983" lon="3.16337">
        <ele>288.47</ele>
        <time>2014-03-02T14:14:31Z</time>
      </trkpt>
      <trkpt lat="43.69829" lon="3.16332">
        <ele>284.39</ele>
        <time>2014-03-02T14:14:38Z</time>
      </trkpt>
      <trkpt lat="43.69829" lon="3.16342">
        <ele>284.42</ele>
        <time>2014-03-02T14:14:54Z</time>
      </trkpt>
      <trkpt lat="43.69829" lon="3.16342">
        <ele>281.29</ele>
        <time>2014-03-02T14:14:58Z</time>
      </trkpt>
      <trkpt lat="43.6982" lon="3.16348">
        <ele>278.05</ele>
        <time>2014-03-02T14:15:08Z</time>
      </trkpt>
      <trkpt lat="43.69815" lon="3.16352">
        <ele>277.829</ele>
        <time>2014-03-02T14:15:15Z</time>
      </trkpt>
      <trkpt lat="43.69813" lon="3.16354">
        <ele>278.65</ele>
        <time>2014-03-02T14:15:21Z</time>
      </trkpt>
      <trkpt lat="43.69803" lon="3.16358">
        <ele>278.36</ele>
        <time>2014-03-02T14:15:31Z</time>
      </trkpt>
      <trkpt lat="43.69791" lon="3.16361">
        <ele>277.099</ele>
        <time>2014-03-02T14:15:43Z</time>
      </trkpt>
      <trkpt lat="43.69784" lon="3.16363">
        <ele>275.65</ele>
        <time>2014-03-02T14:15:52Z</time>
      </trkpt>
      <trkpt lat="43.69775" lon="3.16364">
        <ele>275.68</ele>
        <time>2014-03-02T14:16:01Z</time>
      </trkpt>
      <trkpt lat="43.69765" lon="3.16366">
        <ele>274.83</ele>
        <time>2014-03-02T14:16:11Z</time>
      </trkpt>
      <trkpt lat="43.69759" lon="3.16368">
        <ele>274.4</ele>
        <time>2014-03-02T14:16:17Z</time>
      </trkpt>
      <trkpt lat="43.6975" lon="3.16369">
        <ele>273.149</ele>
        <time>2014-03-02T14:16:26Z</time>
      </trkpt>
      <trkpt lat="43.69745" lon="3.16371">
        <ele>273.16</ele>
        <time>2014-03-02T14:16:34Z</time>
      </trkpt>
      <trkpt lat="43.69741" lon="3.1637">
        <ele>273.259</ele>
        <time>2014-03-02T14:16:42Z</time>
      </trkpt>
      <trkpt lat="43.69737" lon="3.16369">
        <ele>273.34</ele>
        <time>2014-03-02T14:16:50Z</time>
      </trkpt>
      <trkpt lat="43.69734" lon="3.16369">
        <ele>273.17</ele>
        <time>2014-03-02T14:16:57Z</time>
      </trkpt>
      <trkpt lat="43.69731" lon="3.1637">
        <ele>273.099</ele>
        <time>2014-03-02T14:17:05Z</time>
      </trkpt>
      <trkpt lat="43.69723" lon="3.16372">
        <ele>272.94</ele>
        <time>2014-03-02T14:17:15Z</time>
      </trkpt>
      <trkpt lat="43.69717" lon="3.16373">
        <ele>272.97</ele>
        <time>2014-03-02T14:17:22Z</time>
      </trkpt>
      <trkpt lat="43.69709" lon="3.16379">
        <ele>272.7</ele>
        <time>2014-03-02T14:17:30Z</time>
      </trkpt>
      <trkpt lat="43.69702" lon="3.16381">
        <ele>272.94</ele>
        <time>2014-03-02T14:17:38Z</time>
      </trkpt>
      <trkpt lat="43.69695" lon="3.16383">
        <ele>272.96</ele>
        <time>2014-03-02T14:17:45Z</time>
      </trkpt>
      <trkpt lat="43.69686" lon="3.16385">
        <ele>273.2</ele>
        <time>2014-03-02T14:17:54Z</time>
      </trkpt>
      <trkpt lat="43.69674" lon="3.16388">
        <ele>273.41</ele>
        <time>2014-03-02T14:18:04Z</time>
      </trkpt>
      <trkpt lat="43.69658" lon="3.16389">
        <ele>273.069</ele>
        <time>2014-03-02T14:18:16Z</time>
      </trkpt>
      <trkpt lat="43.69643" lon="3.16394">
        <ele>272.479</ele>
        <time>2014-03-02T14:18:27Z</time>
      </trkpt>
      <trkpt lat="43.69627" lon="3.16398">
        <ele>272.05</ele>
        <time>2014-03-02T14:18:39Z</time>
      </trkpt>
      <trkpt lat="43.69612" lon="3.164">
        <ele>271.56</ele>
        <time>2014-03-02T14:18:50Z</time>
      </trkpt>
      <trkpt lat="43.696" lon="3.16404">
        <ele>271.16</ele>
        <time>2014-03-02T14:19:01Z</time>
      </trkpt>
      <trkpt lat="43.6959" lon="3.16405">
        <ele>270.819</ele>
        <time>2014-03-02T14:19:10Z</time>
      </trkpt>
      <trkpt lat="43.6958" lon="3.16407">
        <ele>272.19</ele>
        <time>2014-03-02T14:19:18Z</time>
      </trkpt>
      <trkpt lat="43.69567" lon="3.16412">
        <ele>271.999</ele>
        <time>2014-03-02T14:19:28Z</time>
      </trkpt>
      <trkpt lat="43.69554" lon="3.16417">
        <ele>271.519</ele>
        <time>2014-03-02T14:19:39Z</time>
      </trkpt>
      <trkpt lat="43.69546" lon="3.16423">
        <ele>270.999</ele>
        <time>2014-03-02T14:19:47Z</time>
      </trkpt>
      <trkpt lat="43.69533" lon="3.16433">
        <ele>269.789</ele>
        <time>2014-03-02T14:19:59Z</time>
      </trkpt>
      <trkpt lat="43.69521" lon="3.16443">
        <ele>269.149</ele>
        <time>2014-03-02T14:20:11Z</time>
      </trkpt>
      <trkpt lat="43.69511" lon="3.16452">
        <ele>267.068</ele>
        <time>2014-03-02T14:20:21Z</time>
      </trkpt>
      <trkpt lat="43.69502" lon="3.16461">
        <ele>265.328</ele>
        <time>2014-03-02T14:20:31Z</time>
      </trkpt>
      <trkpt lat="43.69493" lon="3.1647">
        <ele>264.149</ele>
        <time>2014-03-02T14:20:40Z</time>
      </trkpt>
      <trkpt lat="43.69485" lon="3.16479">
        <ele>263.179</ele>
        <time>2014-03-02T14:20:49Z</time>
      </trkpt>
      <trkpt lat="43.69485" lon="3.16483">
        <ele>264.929</ele>
        <time>2014-03-02T14:20:55Z</time>
      </trkpt>
      <trkpt lat="43.69486" lon="3.16485">
        <ele>266.749</ele>
        <time>2014-03-02T14:21:01Z</time>
      </trkpt>
      <trkpt lat="43.69485" lon="3.1648">
        <ele>267.429</ele>
        <time>2014-03-02T14:21:21Z</time>
      </trkpt>
      <trkpt lat="43.69478" lon="3.16488">
        <ele>266.879</ele>
        <time>2014-03-02T14:21:30Z</time>
      </trkpt>
      <trkpt lat="43.69474" lon="3.16493">
        <ele>264.269</ele>
        <time>2014-03-02T14:21:37Z</time>
      </trkpt>
      <trkpt lat="43.69471" lon="3.16496">
        <ele>263.189</ele>
        <time>2014-03-02T14:21:44Z</time>
      </trkpt>
      <trkpt lat="43.69471" lon="3.16496">
        <ele>263.309</ele>
        <time>2014-03-02T14:21:46Z</time>
      </trkpt>
      <trkpt lat="43.69475" lon="3.16491">
        <ele>263.749</ele>
        <time>2014-03-02T14:21:51Z</time>
      </trkpt>
      <trkpt lat="43.69478" lon="3.16488">
        <ele>264.539</ele>
        <time>2014-03-02T14:21:59Z</time>
      </trkpt>
      <trkpt lat="43.69479" lon="3.16489">
        <ele>269.129</ele>
        <time>2014-03-02T14:23:03Z</time>
      </trkpt>
      <trkpt lat="43.69478" lon="3.16491">
        <ele>271.169</ele>
        <time>2014-03-02T14:23:43Z</time>
      </trkpt>
      <trkpt lat="43.69478" lon="3.16492">
        <ele>269.454</ele>
        <time>2014-03-02T14:23:48Z</time>
      </trkpt>
    </trkseg>
  </trk>
</gpx>